[[{"header":{"parameterUnit":"m.s-1","parameterCategory":1,"la1":31.0,"la2":29.5877,"lo1":-88.7671,"lo2":-86.6584,"dy":0.0162,"dx":0.0185,"nx":115,"ny":88,"refTime":"2024-04-06T06:00:00:Z","depth":0,"parameterNumber":2,"parameterNumberName":"U-component_of_WINDS"},"data":[0.0,0.0,0.0,0.0,0.0,0.0,0.0,0.0,0.0,0.0,0.0,0.0,0.0,0.0,0.0,0.0,0.0,0.0,0.0,0.0,0.0,0.0,0.0,0.0,0.0,0.0,0.0,0.0,0.0,0.0,0.0,0.0,0.0,0.0,0.0,0.0,0.0,0.0,0.0,0.0,0.0,0.0,0.0,0.0,0.0,0.0,0.0,0.0,0.0,0.0,0.0,0.0,0.0,0.0,0.0,0.0,0.0,0.0,0.0,0.0,0.0,0.0,0.0,0.0,0.0,0.0,0.0,0.0,0.0,0.0,0.0,0.0,0.0,0.0,0.0,0.0,0.0,0.0,0.0,0.0,0.0,0.0,0.0,0.0,0.0,0.0,0.0,0.0,0.0,0.0,0.0,0.0,0.0,0.0,0.0,0.0,0.0,0.0,0.0,0.0,0.0,0.0,0.0,0.0,0.0,0.0,0.0,0.0,0.0,0.0,0.0,0.0,0.0,0.0,0.0,0.0,0.0,0.0,0.0,0.0,0.0,0.0,0.0,0.0,0.0,0.0,0.0,0.0,0.0,0.0,0.0,0.0,0.0,0.0,0.0,0.0,0.0,0.0,0.0,0.0,0.0,0.0,0.0,0.0,0.0,0.0,0.0,0.0,0.0,0.0,0.0,0.0,0.0,0.0,0.0,0.0,0.0,0.0,0.0,0.0,0.0,0.0,0.0,0.0,0.0,0.0,0.0,0.0,0.0,0.0,0.0,0.0,0.0,0.0,0.0,0.0,0.0,0.0,0.0,0.0,0.0,0.0,0.0,0.0,0.0,0.0,0.0,0.0,0.0,0.0,0.0,0.0,0.0,0.0,0.0,0.0,0.0,0.0,0.0,0.0,0.0,0.0,0.0,0.0,0.0,0.0,0.0,0.0,0.0,0.0,0.0,0.0,0.0,0.0,0.0,0.0,0.0,0.0,0.0,0.0,0.0,0.0,0.0,0.0,0.0,0.0,0.0,0.0,0.0,0.0,0.0,0.0,0.0,0.0,0.0,0.0,0.0,0.0,0.0,0.0,0.0,0.0,0.0,0.0,0.0,0.0,0.0,0.0,0.0,0.0,0.0,0.0,0.0,0.0,0.0,0.0,0.0,0.0,0.0,0.0,0.0,0.0,0.0,0.0,0.0,0.0,0.0,0.0,0.0,0.0,0.0,0.0,0.0,0.0,0.0,0.0,0.0,0.0,0.0,0.0,0.0,0.0,0.0,0.0,0.0,0.0,0.0,0.0,0.0,0.0,0.0,0.0,0.0,0.0,0.0,0.0,0.0,0.0,0.0,0.0,0.0,0.0,0.0,0.0,0.0,0.0,0.0,0.0,0.0,0.0,0.0,0.0,0.0,0.0,0.0,0.0,0.0,0.0,0.0,0.0,0.0,0.0,0.0,0.0,0.0,0.0,0.0,0.0,0.0,0.0,0.0,0.0,0.0,0.0,0.0,0.0,0.0,0.0,0.0,0.0,0.0,0.0,0.0,0.0,0.0,0.0,0.0,0.0,0.0,0.0,0.0,0.0,0.0,0.0,0.0,0.0,0.0,0.0,0.0,0.0,0.0,0.0,0.0,0.0,0.0,0.0,0.0,0.0,0.0,0.0,0.0,0.0,0.0,0.0,0.0,0.0,0.0,0.0,0.0,0.0,0.0,0.0,0.0,0.0,0.0,0.0,0.0,0.0,0.0,0.0,0.0,0.0,0.0,0.0,0.0,0.0,0.0,0.0,0.0,0.0,0.0,0.0,0.0,0.0,0.0,0.0,0.0,0.0,0.0,0.0,0.0,0.0,0.0,0.0,0.0,0.0,0.0,0.0,0.0,0.0,0.0,0.0,0.0,0.0,0.0,0.0,0.0,0.0,0.0,0.0,0.0,0.0,0.0,0.0,0.0,0.0,0.0,0.0,0.0,0.0,0.0,0.0,0.0,0.0,0.0,0.0,0.0,0.0,0.0,0.0,0.0,0.0,0.0,0.0,0.0,0.0,0.0,0.0,0.0,0.0,0.0,0.0,0.0,0.0,0.0,0.0,0.0,0.0,0.0,0.0,0.0,0.0,0.0,0.0,0.0,0.0,0.0,0.0,0.0,0.0,0.0,0.0,0.0,0.0,0.0,0.0,0.0,0.0,0.0,0.0,0.0,0.0,0.0,0.0,0.0,0.0,0.0,0.0,0.0,0.0,0.0,0.0,0.0,0.0,0.0,0.0,0.0,0.0,0.0,0.0,0.0,0.0,0.0,0.0,0.0,0.0,0.0,0.0,0.0,0.0,0.0,0.0,0.0,0.0,0.0,0.0,0.0,0.0,0.0,0.0,0.0,0.0,0.0,0.0,0.0,0.0,0.0,0.0,0.0,0.0,0.0,0.0,0.0,0.0,0.0,0.0,0.0,0.0,0.0,0.0,0.0,0.0,0.0,0.0,0.0,0.0,0.0,0.0,0.0,0.0,0.0,0.0,0.0,0.0,0.0,0.0,0.0,0.0,0.0,0.0,0.0,0.0,0.0,0.0,0.0,0.0,0.0,0.0,0.0,0.0,0.0,0.0,0.0,0.0,0.0,0.0,0.0,0.0,0.0,0.0,0.0,0.0,0.0,0.0,0.0,0.0,0.0,0.0,0.0,0.0,0.0,0.0,0.0,0.0,0.0,0.0,0.0,0.0,0.0,0.0,0.0,0.0,0.0,0.0,0.0,0.0,0.0,0.0,0.0,0.0,0.0,0.0,0.0,0.0,0.0,0.0,0.0,0.0,0.0,0.0,0.0,0.0,0.0,0.0,0.0,0.0,0.0,0.0,0.0,0.0,0.0,0.0,0.0,0.0,0.0,0.0,0.0,0.0,0.0,0.0,0.0,0.0,0.0,0.0,0.0,0.0,0.0,0.0,0.0,0.0,0.0,0.0,0.0,0.0,0.0,0.0,0.0,0.0,0.0,0.0,0.0,0.0,0.0,0.0,0.0,0.0,0.0,0.0,0.0,0.0,0.0,0.0,0.0,0.0,0.0,0.0,0.0,0.0,0.0,0.0,0.0,0.0,0.0,0.0,0.0,0.0,0.0,0.0,0.0,0.0,0.0,0.0,0.0,0.0,0.0,0.0,0.0,0.0,0.0,0.0,0.0,0.0,0.0,0.0,0.0,0.0,0.0,0.0,0.0,0.0,0.0,0.0,0.0,0.0,0.0,0.0,0.0,0.0,0.0,0.0,0.0,0.0,0.0,0.0,0.0,0.0,0.0,0.0,0.0,0.0,0.0,0.0,0.0,0.0,0.0,0.0,0.0,0.0,0.0,0.0,0.0,0.0,0.0,0.0,0.0,0.0,0.0,0.0,0.0,0.0,0.0,0.0,0.0,0.0,0.0,0.0,0.0,0.0,0.0,0.0,0.0,0.0,0.0,0.0,0.0,0.0,0.0,0.0,0.0,0.0,0.0,0.0,0.0,0.0,0.0,0.0,0.0,0.0,0.0,0.0,0.0,0.0,0.0,0.0,0.0,0.0,0.0,0.0,0.0,0.0,0.0,0.0,0.0,0.0,0.0,0.0,0.0,0.0,0.0,0.0,0.0,0.0,0.0,0.0,0.0,0.0,0.0,0.0,0.0,0.0,0.0,0.0,0.0,0.0,0.0,0.0,0.0,0.0,0.0,0.0,0.0,0.0,0.0,0.0,0.0,0.0,0.0,0.0,0.0,0.0,0.0,0.0,0.0,0.0,0.0,0.0,0.0,0.0,0.0,0.0,0.0,0.0,0.0,0.0,0.0,0.0,0.0,0.0,0.0,0.0,0.0,0.0,0.0,0.0,0.0,0.0,0.0,0.0,0.0,0.0,0.0,0.0,0.0,0.0,0.0,0.0,0.0,0.0,0.0,0.0,0.0,0.0,0.0,0.0,0.0,0.0,0.0,0.0,0.0,0.0,0.0,0.0,0.0,0.0,0.0,0.0,0.0,0.0,0.0,0.0,0.0,0.0,0.0,0.0,0.0,0.0,0.0,0.0,0.0,0.0,0.0,0.0,0.0,0.0,0.0,0.0,0.0,0.0,0.0,0.0,0.0,0.0,0.0,0.0,0.0,0.0,0.0,0.0,0.0,0.0,0.0,0.0,0.0,0.0,0.0,0.0,0.0,0.0,0.0,0.0,0.0,0.0,0.0,0.0,0.0,0.0,0.0,0.0,0.0,0.0,0.0,0.0,0.0,0.0,0.0,0.0,0.0,0.0,0.0,0.0,0.0,0.0,0.0,0.0,0.0,0.0,-2.9913,0.0,0.0,0.0,0.0,0.0,0.0,0.0,0.0,0.0,0.0,0.0,0.0,0.0,0.0,0.0,0.0,0.0,0.0,0.0,0.0,0.0,0.0,0.0,0.0,0.0,0.0,0.0,0.0,0.0,0.0,0.0,0.0,0.0,0.0,0.0,0.0,0.0,0.0,0.0,0.0,0.0,0.0,0.0,0.0,0.0,0.0,0.0,0.0,0.0,0.0,0.0,0.0,0.0,0.0,0.0,0.0,0.0,0.0,0.0,0.0,0.0,0.0,0.0,0.0,0.0,0.0,0.0,0.0,0.0,0.0,0.0,0.0,0.0,0.0,0.0,0.0,0.0,0.0,0.0,0.0,0.0,0.0,0.0,0.0,0.0,0.0,0.0,0.0,0.0,0.0,0.0,0.0,0.0,0.0,0.0,0.0,0.0,0.0,0.0,0.0,0.0,0.0,0.0,0.0,0.0,0.0,0.0,0.0,0.0,0.0,-2.9808,-2.9914,-2.9901,-2.991,-2.9864,0.0,0.0,0.0,0.0,0.0,0.0,0.0,0.0,0.0,0.0,0.0,0.0,0.0,0.0,0.0,0.0,0.0,0.0,0.0,0.0,0.0,0.0,0.0,0.0,0.0,0.0,0.0,0.0,0.0,0.0,0.0,0.0,0.0,0.0,0.0,0.0,0.0,0.0,0.0,0.0,0.0,0.0,0.0,0.0,0.0,0.0,0.0,0.0,0.0,0.0,0.0,0.0,0.0,0.0,0.0,0.0,0.0,0.0,0.0,0.0,0.0,0.0,0.0,0.0,0.0,0.0,0.0,0.0,0.0,0.0,0.0,0.0,0.0,0.0,0.0,0.0,0.0,0.0,0.0,0.0,0.0,0.0,0.0,0.0,0.0,0.0,0.0,0.0,0.0,0.0,0.0,0.0,0.0,0.0,0.0,0.0,0.0,0.0,0.0,0.0,0.0,0.0,0.0,0.0,0.0,0.0,0.0,0.0,0.0,0.0,0.0,0.0,-3.0426,-3.0275,-2.9813,0.0,0.0,0.0,0.0,0.0,0.0,0.0,0.0,0.0,0.0,0.0,0.0,0.0,0.0,0.0,0.0,0.0,0.0,0.0,0.0,0.0,0.0,0.0,0.0,0.0,0.0,0.0,0.0,0.0,0.0,0.0,0.0,0.0,0.0,0.0,0.0,0.0,0.0,0.0,0.0,0.0,0.0,0.0,0.0,0.0,0.0,0.0,0.0,0.0,0.0,0.0,0.0,0.0,0.0,0.0,0.0,0.0,0.0,0.0,0.0,0.0,0.0,0.0,0.0,0.0,0.0,0.0,0.0,0.0,0.0,0.0,0.0,0.0,0.0,0.0,0.0,0.0,0.0,0.0,0.0,0.0,0.0,0.0,0.0,0.0,0.0,0.0,0.0,0.0,0.0,0.0,0.0,0.0,0.0,0.0,0.0,0.0,0.0,0.0,0.0,0.0,0.0,0.0,0.0,0.0,0.0,0.0,0.0,0.0,0.0,-3.1243,-3.1958,-3.2043,0.0,-2.9801,0.0,0.0,0.0,0.0,0.0,0.0,0.0,0.0,0.0,0.0,0.0,0.0,0.0,0.0,0.0,0.0,0.0,0.0,0.0,0.0,0.0,0.0,0.0,0.0,0.0,0.0,0.0,0.0,0.0,0.0,0.0,0.0,0.0,0.0,0.0,0.0,0.0,0.0,0.0,0.0,0.0,0.0,0.0,0.0,0.0,0.0,0.0,0.0,0.0,0.0,0.0,0.0,0.0,0.0,0.0,0.0,0.0,0.0,0.0,0.0,0.0,0.0,0.0,0.0,0.0,0.0,0.0,0.0,0.0,0.0,0.0,0.0,0.0,0.0,0.0,0.0,0.0,0.0,0.0,0.0,0.0,0.0,0.0,0.0,0.0,0.0,0.0,0.0,0.0,0.0,0.0,0.0,0.0,0.0,0.0,0.0,0.0,0.0,0.0,0.0,0.0,0.0,0.0,0.0,0.0,0.0,0.0,0.0,0.0,0.0,-3.1288,-3.2202,-3.2221,-3.1214,0.0,0.0,0.0,0.0,0.0,0.0,0.0,0.0,0.0,0.0,0.0,0.0,0.0,0.0,0.0,0.0,0.0,0.0,0.0,0.0,0.0,0.0,0.0,0.0,0.0,0.0,0.0,0.0,0.0,0.0,0.0,0.0,0.0,0.0,0.0,0.0,0.0,0.0,0.0,0.0,0.0,0.0,0.0,0.0,0.0,0.0,0.0,0.0,0.0,0.0,0.0,0.0,0.0,0.0,0.0,0.0,0.0,0.0,0.0,0.0,0.0,0.0,0.0,0.0,0.0,0.0,0.0,0.0,0.0,0.0,0.0,0.0,0.0,0.0,0.0,0.0,0.0,0.0,0.0,0.0,0.0,0.0,0.0,0.0,0.0,0.0,0.0,0.0,0.0,0.0,0.0,0.0,0.0,0.0,0.0,0.0,0.0,0.0,0.0,0.0,0.0,0.0,0.0,0.0,0.0,0.0,0.0,0.0,0.0,0.0,-3.1318,-3.1894,-3.2763,-3.2859,-3.159,-2.8929,0.0,0.0,0.0,0.0,0.0,0.0,0.0,0.0,0.0,0.0,0.0,0.0,0.0,0.0,0.0,0.0,0.0,0.0,0.0,0.0,0.0,0.0,0.0,0.0,0.0,0.0,0.0,0.0,0.0,0.0,0.0,0.0,0.0,0.0,0.0,0.0,0.0,0.0,0.0,0.0,0.0,0.0,0.0,0.0,0.0,0.0,0.0,0.0,0.0,0.0,0.0,0.0,0.0,0.0,0.0,0.0,0.0,0.0,0.0,0.0,0.0,0.0,0.0,0.0,0.0,0.0,0.0,0.0,0.0,0.0,0.0,0.0,0.0,0.0,0.0,0.0,0.0,0.0,0.0,0.0,0.0,0.0,0.0,0.0,0.0,0.0,0.0,0.0,0.0,0.0,0.0,0.0,0.0,0.0,0.0,0.0,0.0,0.0,0.0,0.0,0.0,0.0,0.0,0.0,0.0,0.0,0.0,0.0,-3.1837,-3.2664,-3.3504,-3.4319,-3.4449,-3.2978,0.0,0.0,0.0,0.0,0.0,0.0,0.0,0.0,0.0,0.0,0.0,0.0,0.0,0.0,0.0,0.0,0.0,0.0,0.0,0.0,0.0,0.0,0.0,0.0,0.0,0.0,0.0,0.0,0.0,0.0,0.0,0.0,0.0,0.0,0.0,0.0,0.0,0.0,0.0,0.0,0.0,0.0,0.0,0.0,0.0,0.0,0.0,0.0,0.0,0.0,0.0,0.0,0.0,0.0,0.0,0.0,0.0,0.0,0.0,0.0,0.0,0.0,0.0,0.0,0.0,0.0,0.0,0.0,0.0,0.0,0.0,0.0,0.0,0.0,0.0,0.0,0.0,0.0,0.0,0.0,0.0,0.0,0.0,0.0,0.0,0.0,0.0,0.0,0.0,0.0,0.0,0.0,0.0,0.0,0.0,0.0,0.0,0.0,0.0,0.0,0.0,0.0,0.0,0.0,0.0,0.0,0.0,0.0,0.0,-3.1901,-3.3262,-3.4117,-3.4401,-3.3462,-3.1863,0.0,0.0,0.0,0.0,0.0,0.0,0.0,0.0,0.0,0.0,0.0,0.0,0.0,0.0,0.0,0.0,0.0,0.0,0.0,0.0,0.0,0.0,0.0,0.0,0.0,0.0,0.0,0.0,0.0,0.0,0.0,0.0,0.0,0.0,0.0,0.0,0.0,0.0,0.0,0.0,0.0,0.0,0.0,0.0,0.0,0.0,0.0,0.0,0.0,0.0,0.0,0.0,0.0,0.0,0.0,0.0,0.0,0.0,0.0,0.0,0.0,0.0,0.0,0.0,0.0,0.0,0.0,0.0,0.0,0.0,0.0,0.0,0.0,0.0,0.0,0.0,0.0,0.0,0.0,0.0,0.0,0.0,0.0,0.0,0.0,0.0,0.0,0.0,0.0,0.0,0.0,0.0,0.0,0.0,0.0,0.0,0.0,0.0,0.0,0.0,0.0,0.0,0.0,0.0,0.0,0.0,0.0,0.0,0.0,-3.3033,0.0,-3.468,-3.4344,-3.3321,-3.1613,0.0,0.0,0.0,0.0,0.0,0.0,0.0,0.0,0.0,0.0,0.0,0.0,0.0,0.0,0.0,0.0,0.0,0.0,0.0,0.0,0.0,0.0,0.0,0.0,0.0,0.0,0.0,0.0,0.0,0.0,0.0,0.0,0.0,0.0,0.0,0.0,0.0,0.0,0.0,0.0,0.0,0.0,0.0,0.0,0.0,0.0,0.0,0.0,0.0,0.0,0.0,0.0,0.0,0.0,0.0,0.0,0.0,0.0,0.0,0.0,0.0,0.0,0.0,0.0,0.0,0.0,0.0,0.0,0.0,0.0,0.0,0.0,0.0,0.0,0.0,0.0,0.0,0.0,0.0,0.0,0.0,0.0,0.0,0.0,0.0,0.0,0.0,0.0,0.0,0.0,0.0,0.0,0.0,0.0,0.0,0.0,0.0,0.0,0.0,0.0,0.0,0.0,0.0,0.0,0.0,0.0,0.0,0.0,-3.3001,-3.5343,-3.5516,-3.5243,-3.4386,-3.4295,-3.2425,0.0,0.0,0.0,0.0,0.0,0.0,0.0,0.0,0.0,0.0,0.0,0.0,0.0,0.0,0.0,0.0,0.0,0.0,0.0,0.0,0.0,0.0,0.0,0.0,0.0,0.0,0.0,0.0,0.0,0.0,0.0,0.0,0.0,0.0,0.0,0.0,0.0,0.0,0.0,0.0,0.0,0.0,0.0,0.0,0.0,0.0,0.0,0.0,0.0,0.0,0.0,0.0,0.0,0.0,0.0,0.0,0.0,0.0,0.0,0.0,0.0,0.0,0.0,0.0,0.0,0.0,0.0,0.0,0.0,0.0,0.0,0.0,0.0,0.0,0.0,0.0,0.0,0.0,0.0,0.0,0.0,0.0,0.0,0.0,0.0,0.0,0.0,0.0,0.0,0.0,0.0,0.0,0.0,0.0,0.0,0.0,0.0,0.0,0.0,0.0,0.0,0.0,0.0,0.0,0.0,0.0,0.0,0.0,0.0,-3.5454,-3.6061,-3.6223,-3.5925,-3.4313,-3.2315,0.0,0.0,0.0,0.0,0.0,0.0,0.0,0.0,0.0,0.0,0.0,0.0,0.0,0.0,0.0,0.0,0.0,0.0,0.0,0.0,0.0,0.0,0.0,0.0,0.0,0.0,0.0,0.0,0.0,0.0,0.0,0.0,0.0,0.0,0.0,0.0,0.0,0.0,0.0,0.0,0.0,0.0,0.0,0.0,0.0,0.0,0.0,0.0,0.0,0.0,0.0,0.0,0.0,0.0,0.0,0.0,0.0,0.0,0.0,0.0,0.0,0.0,0.0,0.0,0.0,0.0,0.0,0.0,0.0,0.0,0.0,0.0,0.0,0.0,0.0,0.0,0.0,0.0,0.0,0.0,0.0,0.0,0.0,0.0,0.0,0.0,0.0,0.0,0.0,0.0,0.0,0.0,0.0,0.0,0.0,0.0,0.0,0.0,0.0,0.0,0.0,0.0,0.0,0.0,0.0,0.0,0.0,0.0,0.0,-3.6816,-3.7336,-3.7448,-3.7151,-3.5083,-3.2741,-3.0214,0.0,0.0,0.0,0.0,0.0,0.0,0.0,0.0,0.0,0.0,0.0,0.0,0.0,0.0,0.0,0.0,0.0,0.0,0.0,0.0,0.0,0.0,0.0,0.0,0.0,0.0,0.0,0.0,0.0,0.0,0.0,0.0,0.0,0.0,0.0,0.0,0.0,0.0,0.0,0.0,0.0,0.0,0.0,0.0,0.0,0.0,0.0,0.0,0.0,0.0,0.0,0.0,0.0,0.0,0.0,0.0,0.0,0.0,0.0,0.0,0.0,0.0,0.0,0.0,0.0,0.0,0.0,0.0,0.0,0.0,0.0,0.0,0.0,0.0,0.0,0.0,0.0,0.0,0.0,0.0,0.0,0.0,0.0,0.0,0.0,0.0,0.0,0.0,0.0,0.0,0.0,0.0,0.0,0.0,0.0,0.0,0.0,0.0,0.0,0.0,0.0,0.0,0.0,0.0,0.0,0.0,0.0,0.0,-3.9082,-3.918,-3.8809,-3.7968,-3.6445,-3.3707,0.0,0.0,0.0,0.0,0.0,0.0,0.0,0.0,0.0,0.0,0.0,0.0,0.0,0.0,0.0,0.0,0.0,0.0,0.0,0.0,0.0,0.0,0.0,0.0,0.0,0.0,0.0,0.0,0.0,0.0,0.0,0.0,0.0,0.0,0.0,0.0,0.0,0.0,0.0,0.0,0.0,0.0,0.0,0.0,0.0,0.0,0.0,0.0,0.0,0.0,0.0,0.0,0.0,0.0,0.0,0.0,0.0,0.0,0.0,0.0,0.0,0.0,0.0,0.0,0.0,0.0,0.0,0.0,0.0,0.0,0.0,0.0,0.0,0.0,0.0,0.0,0.0,0.0,0.0,0.0,0.0,0.0,0.0,0.0,0.0,0.0,0.0,0.0,0.0,0.0,0.0,0.0,0.0,0.0,0.0,0.0,0.0,0.0,0.0,0.0,0.0,0.0,0.0,0.0,0.0,0.0,0.0,0.0,0.0,-3.8961,-4.0126,-4.0118,-3.8822,-3.7742,-3.5267,0.0,0.0,0.0,0.0,0.0,0.0,0.0,0.0,0.0,0.0,0.0,0.0,0.0,0.0,0.0,0.0,0.0,0.0,0.0,0.0,0.0,0.0,0.0,0.0,0.0,0.0,0.0,0.0,0.0,0.0,0.0,0.0,0.0,0.0,0.0,0.0,0.0,0.0,0.0,0.0,0.0,0.0,0.0,0.0,0.0,0.0,0.0,0.0,0.0,0.0,0.0,0.0,0.0,0.0,0.0,0.0,0.0,0.0,0.0,0.0,0.0,0.0,0.0,0.0,0.0,0.0,0.0,0.0,0.0,0.0,0.0,0.0,0.0,0.0,0.0,0.0,0.0,0.0,0.0,0.0,0.0,0.0,0.0,0.0,0.0,0.0,0.0,0.0,0.0,0.0,0.0,0.0,0.0,0.0,0.0,0.0,0.0,0.0,0.0,0.0,0.0,0.0,0.0,0.0,0.0,0.0,0.0,0.0,-3.7613,-3.9926,-4.0843,-4.0932,-4.0044,-3.8534,-3.5991,0.0,0.0,0.0,0.0,0.0,0.0,0.0,0.0,0.0,0.0,0.0,0.0,0.0,0.0,0.0,0.0,0.0,0.0,0.0,0.0,0.0,0.0,0.0,0.0,0.0,0.0,0.0,0.0,0.0,0.0,0.0,0.0,0.0,0.0,0.0,0.0,0.0,0.0,0.0,0.0,0.0,0.0,0.0,0.0,0.0,0.0,0.0,0.0,0.0,0.0,0.0,0.0,0.0,0.0,0.0,0.0,0.0,0.0,0.0,0.0,0.0,0.0,0.0,0.0,0.0,0.0,0.0,0.0,0.0,0.0,0.0,0.0,0.0,0.0,0.0,0.0,0.0,0.0,0.0,0.0,0.0,0.0,0.0,0.0,0.0,0.0,0.0,0.0,0.0,0.0,0.0,0.0,0.0,0.0,0.0,0.0,0.0,0.0,0.0,0.0,0.0,0.0,0.0,0.0,0.0,0.0,0.0,0.0,-3.8087,-4.1071,-4.1388,-4.1372,-4.1098,-3.8899,-3.6141,0.0,0.0,0.0,0.0,0.0,0.0,0.0,0.0,0.0,0.0,0.0,0.0,0.0,0.0,0.0,0.0,0.0,0.0,0.0,0.0,0.0,0.0,0.0,0.0,0.0,0.0,0.0,0.0,0.0,0.0,0.0,0.0,0.0,0.0,0.0,0.0,0.0,0.0,0.0,0.0,0.0,0.0,0.0,0.0,0.0,0.0,0.0,0.0,0.0,0.0,0.0,0.0,0.0,0.0,0.0,0.0,0.0,0.0,0.0,0.0,0.0,0.0,0.0,0.0,0.0,0.0,0.0,0.0,0.0,0.0,0.0,0.0,0.0,0.0,0.0,0.0,0.0,0.0,0.0,0.0,0.0,0.0,0.0,0.0,0.0,0.0,0.0,0.0,0.0,0.0,0.0,0.0,0.0,0.0,0.0,0.0,0.0,0.0,0.0,0.0,0.0,0.0,0.0,0.0,0.0,0.0,0.0,0.0,-3.8265,-4.0225,-4.1422,-4.1425,-4.0205,-3.8471,-3.6272,0.0,0.0,0.0,0.0,0.0,0.0,0.0,0.0,0.0,0.0,0.0,0.0,0.0,0.0,0.0,0.0,0.0,0.0,0.0,0.0,0.0,0.0,0.0,0.0,0.0,0.0,0.0,0.0,0.0,0.0,0.0,0.0,0.0,0.0,0.0,0.0,0.0,0.0,0.0,0.0,0.0,0.0,0.0,0.0,0.0,0.0,0.0,0.0,-2.4491,0.0,0.0,0.0,0.0,0.0,0.0,0.0,0.0,0.0,0.0,0.0,0.0,0.0,0.0,0.0,0.0,0.0,0.0,0.0,0.0,0.0,0.0,0.0,0.0,0.0,0.0,0.0,0.0,0.0,0.0,0.0,0.0,0.0,0.0,0.0,0.0,0.0,0.0,0.0,0.0,0.0,0.0,0.0,0.0,0.0,0.0,0.0,0.0,0.0,0.0,0.0,0.0,0.0,0.0,0.0,0.0,0.0,0.0,0.0,-3.9019,-4.0948,-4.1379,-4.1328,-4.08,-3.8501,-3.6097,0.0,0.0,0.0,0.0,0.0,0.0,0.0,0.0,0.0,0.0,0.0,0.0,0.0,0.0,0.0,0.0,0.0,0.0,0.0,0.0,0.0,0.0,0.0,0.0,0.0,0.0,0.0,0.0,0.0,0.0,0.0,0.0,0.0,0.0,0.0,0.0,0.0,0.0,0.0,0.0,0.0,0.0,0.0,0.0,0.0,0.0,0.0,0.0,0.0,0.0,0.0,0.0,0.0,0.0,0.0,0.0,0.0,0.0,0.0,0.0,0.0,0.0,0.0,0.0,0.0,0.0,0.0,0.0,0.0,0.0,0.0,0.0,0.0,0.0,0.0,0.0,0.0,0.0,0.0,0.0,0.0,0.0,0.0,0.0,0.0,0.0,0.0,0.0,0.0,0.0,0.0,0.0,0.0,0.0,0.0,0.0,0.0,0.0,0.0,0.0,0.0,0.0,0.0,0.0,0.0,0.0,0.0,-3.8065,-4.0036,-4.2241,-4.1621,-4.1389,-4.165,-3.8749,-3.5949,-3.3421,0.0,0.0,0.0,0.0,0.0,0.0,0.0,0.0,0.0,0.0,0.0,0.0,0.0,0.0,0.0,0.0,0.0,0.0,0.0,0.0,0.0,0.0,0.0,0.0,0.0,0.0,0.0,0.0,0.0,0.0,0.0,0.0,0.0,0.0,0.0,0.0,0.0,0.0,-2.453,-2.6093,0.0,0.0,0.0,0.0,0.0,0.0,0.0,0.0,-2.6277,0.0,0.0,0.0,0.0,0.0,0.0,0.0,0.0,0.0,0.0,0.0,0.0,0.0,0.0,0.0,0.0,0.0,0.0,0.0,0.0,0.0,0.0,0.0,0.0,0.0,0.0,0.0,0.0,0.0,0.0,0.0,0.0,0.0,0.0,0.0,0.0,0.0,0.0,0.0,0.0,0.0,0.0,0.0,0.0,0.0,0.0,0.0,0.0,0.0,0.0,0.0,0.0,0.0,0.0,0.0,0.0,-3.7272,-3.8872,-4.0855,-4.3223,-4.2993,-4.2194,-4.0905,-3.8898,-3.6312,-3.31,0.0,0.0,0.0,0.0,0.0,0.0,0.0,0.0,0.0,0.0,0.0,0.0,0.0,0.0,0.0,0.0,0.0,0.0,0.0,0.0,0.0,0.0,0.0,0.0,0.0,0.0,0.0,0.0,0.0,0.0,0.0,0.0,0.0,0.0,0.0,0.0,0.0,0.0,0.0,-2.8007,-2.8925,0.0,0.0,0.0,0.0,0.0,0.0,0.0,0.0,-2.6388,0.0,0.0,0.0,0.0,0.0,0.0,0.0,0.0,0.0,0.0,0.0,0.0,0.0,0.0,0.0,0.0,0.0,0.0,0.0,0.0,0.0,0.0,0.0,0.0,0.0,0.0,0.0,0.0,0.0,0.0,0.0,0.0,0.0,0.0,0.0,0.0,0.0,0.0,0.0,0.0,0.0,0.0,0.0,0.0,0.0,0.0,0.0,0.0,0.0,0.0,0.0,0.0,0.0,0.0,0.0,-3.7419,-3.9496,-4.1499,-4.3355,-4.3286,-4.2377,-4.0617,-3.8884,-3.6336,0.0,0.0,0.0,0.0,0.0,0.0,0.0,0.0,0.0,0.0,0.0,0.0,0.0,0.0,0.0,0.0,0.0,0.0,0.0,0.0,0.0,0.0,0.0,0.0,0.0,0.0,0.0,0.0,0.0,0.0,0.0,0.0,0.0,0.0,0.0,0.0,0.0,0.0,0.0,0.0,-2.9475,-3.0687,-3.1898,0.0,0.0,0.0,0.0,0.0,0.0,-2.9508,-2.935,0.0,0.0,0.0,0.0,0.0,0.0,0.0,0.0,0.0,0.0,0.0,0.0,0.0,0.0,0.0,0.0,0.0,0.0,0.0,0.0,0.0,0.0,0.0,0.0,0.0,0.0,0.0,0.0,0.0,0.0,0.0,0.0,0.0,0.0,0.0,0.0,0.0,0.0,0.0,0.0,0.0,0.0,0.0,0.0,0.0,0.0,0.0,0.0,0.0,0.0,0.0,0.0,0.0,0.0,0.0,-3.7713,-3.9921,-4.1815,-4.3321,-4.3251,-4.2305,-4.0528,-3.8814,-3.6268,0.0,0.0,0.0,0.0,0.0,0.0,0.0,0.0,0.0,0.0,0.0,0.0,0.0,0.0,0.0,0.0,0.0,0.0,0.0,0.0,0.0,0.0,0.0,0.0,0.0,0.0,0.0,0.0,0.0,0.0,0.0,0.0,0.0,0.0,0.0,0.0,0.0,0.0,0.0,0.0,0.0,-3.2265,-3.4027,-3.3036,0.0,0.0,0.0,0.0,-3.2118,-3.2522,0.0,0.0,0.0,0.0,0.0,0.0,0.0,0.0,0.0,0.0,0.0,0.0,0.0,0.0,0.0,0.0,0.0,0.0,0.0,0.0,0.0,0.0,0.0,0.0,0.0,0.0,0.0,0.0,0.0,0.0,0.0,0.0,0.0,0.0,0.0,0.0,0.0,0.0,0.0,0.0,0.0,0.0,0.0,0.0,0.0,0.0,0.0,0.0,0.0,0.0,0.0,0.0,0.0,0.0,0.0,0.0,-3.8505,-4.0113,-4.1728,-4.3284,-4.3215,-4.2232,-4.0456,-3.8779,-3.627,0.0,0.0,0.0,0.0,0.0,0.0,0.0,0.0,0.0,0.0,0.0,0.0,0.0,0.0,0.0,0.0,0.0,0.0,0.0,0.0,0.0,0.0,0.0,0.0,0.0,0.0,0.0,0.0,0.0,0.0,0.0,0.0,0.0,0.0,0.0,0.0,0.0,0.0,0.0,0.0,0.0,-3.333,-3.5679,-3.5202,-3.4601,0.0,0.0,-3.4601,-3.4601,-3.405,0.0,0.0,0.0,0.0,0.0,0.0,0.0,0.0,0.0,0.0,0.0,0.0,0.0,0.0,0.0,0.0,0.0,0.0,0.0,0.0,0.0,0.0,0.0,0.0,0.0,0.0,0.0,0.0,0.0,0.0,0.0,0.0,0.0,0.0,0.0,0.0,0.0,0.0,0.0,0.0,0.0,0.0,0.0,0.0,0.0,0.0,0.0,0.0,0.0,0.0,0.0,0.0,0.0,0.0,0.0,-3.5394,-3.8486,-4.0118,-4.1677,-4.3195,-4.3178,-4.2305,-4.06,-3.8832,-3.6106,0.0,0.0,0.0,0.0,0.0,0.0,0.0,0.0,0.0,0.0,0.0,0.0,0.0,0.0,0.0,0.0,0.0,0.0,0.0,0.0,0.0,0.0,0.0,0.0,0.0,0.0,0.0,0.0,0.0,0.0,0.0,0.0,0.0,0.0,0.0,0.0,0.0,0.0,0.0,0.0,0.0,0.0,-3.7331,-3.7734,0.0,0.0,0.0,-3.7771,-3.7771,0.0,0.0,0.0,0.0,0.0,0.0,0.0,0.0,0.0,0.0,0.0,0.0,0.0,0.0,0.0,0.0,0.0,0.0,0.0,0.0,0.0,0.0,0.0,0.0,0.0,0.0,0.0,0.0,0.0,0.0,0.0,0.0,0.0,0.0,0.0,0.0,0.0,0.0,0.0,0.0,0.0,0.0,0.0,0.0,0.0,0.0,0.0,0.0,0.0,0.0,0.0,0.0,0.0,0.0,0.0,0.0,0.0,-3.8407,-4.0035,-4.1608,-4.3105,-4.3104,-4.2286,-4.0654,-3.8814,0.0,0.0,0.0,0.0,0.0,0.0,0.0,0.0,0.0,0.0,0.0,0.0,0.0,0.0,0.0,0.0,0.0,0.0,0.0,0.0,0.0,0.0,0.0,0.0,0.0,0.0,0.0,-1.817,0.0,0.0,0.0,0.0,0.0,0.0,0.0,0.0,0.0,0.0,0.0,0.0,0.0,0.0,-3.6215,-3.8652,-3.968,-4.0194,0.0,0.0,-4.0487,-4.0503,-3.9643,-3.8432,0.0,0.0,0.0,0.0,0.0,0.0,0.0,0.0,0.0,0.0,0.0,0.0,0.0,0.0,0.0,0.0,0.0,0.0,0.0,0.0,0.0,0.0,0.0,0.0,0.0,0.0,0.0,0.0,0.0,0.0,0.0,0.0,0.0,0.0,0.0,0.0,0.0,0.0,0.0,0.0,0.0,0.0,0.0,0.0,0.0,0.0,0.0,0.0,0.0,0.0,0.0,0.0,0.0,0.0,0.0,-3.8344,-3.9938,-4.1487,-4.3032,-4.2975,-4.2102,-4.0346,-3.869,-3.5843,0.0,0.0,0.0,0.0,0.0,0.0,0.0,0.0,0.0,0.0,0.0,0.0,0.0,0.0,0.0,0.0,0.0,0.0,0.0,0.0,0.0,0.0,0.0,0.0,0.0,0.0,0.0,0.0,0.0,0.0,0.0,0.0,0.0,0.0,0.0,0.0,0.0,0.0,0.0,0.0,0.0,-3.7074,-3.9496,-4.0524,-4.1022,0.0,0.0,-4.2139,-4.2139,-4.0818,-3.9255,-3.7676,0.0,0.0,0.0,0.0,0.0,0.0,0.0,0.0,0.0,0.0,0.0,0.0,0.0,0.0,0.0,0.0,0.0,0.0,0.0,0.0,0.0,0.0,0.0,0.0,0.0,0.0,0.0,0.0,0.0,0.0,0.0,0.0,0.0,0.0,0.0,0.0,0.0,0.0,0.0,0.0,0.0,0.0,0.0,0.0,0.0,0.0,0.0,0.0,0.0,0.0,0.0,0.0,0.0,-3.5162,-3.83,-3.9904,-4.1451,-4.2921,-4.2901,-4.2102,-4.0401,-3.8708,-3.5645,0.0,0.0,0.0,0.0,0.0,0.0,0.0,0.0,0.0,0.0,0.0,0.0,0.0,0.0,0.0,0.0,0.0,0.0,0.0,0.0,0.0,0.0,0.0,0.0,0.0,0.0,0.0,0.0,-2.0776,-2.1437,-2.1776,0.0,0.0,0.0,0.0,0.0,0.0,0.0,0.0,0.0,0.0,-3.7896,-4.0304,-4.1772,0.0,0.0,-4.2854,-4.302,-4.3057,-4.1699,-4.0084,-3.8505,-3.5679,0.0,0.0,0.0,0.0,0.0,0.0,0.0,0.0,0.0,0.0,0.0,0.0,0.0,0.0,0.0,0.0,0.0,0.0,0.0,0.0,0.0,0.0,0.0,0.0,0.0,0.0,0.0,0.0,0.0,0.0,0.0,0.0,0.0,0.0,0.0,0.0,0.0,0.0,0.0,0.0,0.0,0.0,0.0,0.0,0.0,0.0,0.0,0.0,0.0,0.0,0.0,0.0,-3.5087,-3.8238,-3.9835,-4.1397,-4.2865,-4.2901,-4.2121,-4.0401,-3.8654,-3.554,0.0,0.0,0.0,0.0,0.0,0.0,0.0,0.0,0.0,0.0,0.0,0.0,0.0,0.0,0.0,0.0,0.0,0.0,0.0,0.0,0.0,0.0,0.0,0.0,0.0,0.0,0.0,0.0,-2.1996,-2.251,-2.251,0.0,0.0,0.0,0.0,0.0,0.0,0.0,0.0,0.0,0.0,-3.8924,-4.0838,-4.247,-4.3497,-4.3497,-4.3497,-4.3497,-4.3497,-4.2139,-4.0618,-3.9276,0.0,0.0,0.0,0.0,0.0,0.0,0.0,0.0,0.0,0.0,0.0,0.0,0.0,0.0,0.0,0.0,0.0,0.0,0.0,0.0,0.0,0.0,0.0,0.0,0.0,0.0,0.0,0.0,0.0,0.0,-2.7369,0.0,0.0,0.0,0.0,0.0,0.0,0.0,0.0,0.0,0.0,0.0,0.0,0.0,0.0,0.0,0.0,0.0,0.0,0.0,0.0,0.0,0.0,-3.4987,-3.8191,-3.9731,-4.1289,-4.2865,-4.2901,-4.2083,-4.0328,-3.8563,-3.5616,-3.146,0.0,0.0,0.0,0.0,0.0,0.0,0.0,0.0,0.0,0.0,0.0,0.0,0.0,0.0,0.0,0.0,0.0,0.0,0.0,0.0,0.0,0.0,0.0,0.0,0.0,0.0,-2.2859,-2.3676,-2.4116,0.0,0.0,0.0,0.0,0.0,0.0,0.0,0.0,0.0,0.0,-3.7808,-4.0157,-4.0985,-4.247,-4.3497,-4.3497,-4.3497,-4.3497,-4.3497,-4.2176,-4.0818,0.0,0.0,0.0,0.0,0.0,0.0,0.0,0.0,0.0,0.0,0.0,0.0,0.0,0.0,0.0,0.0,0.0,0.0,0.0,0.0,0.0,0.0,0.0,0.0,0.0,0.0,0.0,-3.1727,-3.1003,0.0,0.0,0.0,0.0,0.0,0.0,0.0,0.0,0.0,0.0,0.0,-3.6331,-3.6414,0.0,0.0,0.0,0.0,0.0,0.0,0.0,0.0,0.0,0.0,0.0,0.0,-3.4987,-3.8118,-3.9731,-4.1289,-4.2865,-4.2901,-4.2102,-4.0383,-3.9084,-3.5847,-3.0449,0.0,0.0,0.0,0.0,0.0,0.0,0.0,0.0,0.0,0.0,0.0,0.0,0.0,0.0,0.0,0.0,0.0,0.0,0.0,0.0,0.0,0.0,0.0,0.0,0.0,-2.2887,0.0,0.0,0.0,0.0,0.0,0.0,0.0,0.0,0.0,0.0,0.0,-3.2485,-3.5459,-3.8175,-4.0377,-4.1735,-4.28,-4.3497,0.0,0.0,0.0,0.0,0.0,0.0,0.0,0.0,0.0,0.0,0.0,0.0,0.0,0.0,-3.4761,-3.2596,-3.2192,-3.2192,-3.2192,0.0,0.0,0.0,0.0,0.0,0.0,0.0,0.0,0.0,0.0,0.0,0.0,0.0,0.0,-3.464,0.0,-3.3508,0.0,0.0,0.0,0.0,0.0,0.0,0.0,0.0,-3.7299,-3.8383,-3.9049,-3.9482,-3.968,0.0,-3.8159,-3.6492,0.0,0.0,0.0,0.0,0.0,0.0,0.0,0.0,-3.5675,-3.8536,-4.0112,-4.1578,-4.2829,-4.2901,-4.2084,-4.0438,-3.8223,-3.4748,-2.9914,-2.77,-2.5527,0.0,0.0,0.0,0.0,0.0,0.0,0.0,0.0,0.0,0.0,0.0,0.0,0.0,0.0,0.0,0.0,0.0,0.0,0.0,0.0,0.0,0.0,0.0,-2.4258,0.0,0.0,0.0,0.0,0.0,0.0,0.0,0.0,0.0,-2.9794,-3.1482,-3.377,-3.6743,-3.8982,-4.0802,-4.2089,0.0,0.0,0.0,0.0,0.0,0.0,0.0,-4.2139,-4.1625,-4.0855,-4.0341,-4.0377,-4.0157,-4.0047,-4.0304,0.0,0.0,-3.5642,-3.5092,-3.5092,-3.5105,-3.5105,-3.5179,-3.5459,-3.5495,-3.5495,0.0,0.0,0.0,0.0,0.0,0.0,0.0,0.0,-3.8336,-3.7865,0.0,-3.6158,0.0,0.0,0.0,0.0,0.0,-3.5121,0.0,0.0,-3.9698,-4.0815,-4.1547,-4.24,-4.2835,-4.2782,-4.1288,-4.0202,-3.9188,-3.4733,0.0,0.0,0.0,0.0,0.0,0.0,-3.6998,-3.9333,-4.089,-4.2085,-4.2865,-4.2846,-4.2048,-4.0275,-3.6149,-3.2664,-3.0048,-2.8241,-2.6452,-2.4698,-2.3289,0.0,0.0,0.0,0.0,0.0,0.0,0.0,0.0,0.0,0.0,0.0,0.0,0.0,0.0,0.0,0.0,0.0,0.0,0.0,0.0,-2.598,0.0,0.0,0.0,0.0,0.0,0.0,0.0,0.0,0.0,0.0,-3.1543,-3.361,-3.5944,-3.838,0.0,0.0,0.0,0.0,-4.3394,-4.3394,-4.3394,-4.3393,-4.3497,-4.2837,-4.2359,-4.2323,0.0,0.0,-4.3204,-4.2837,-4.2506,-4.3314,-4.2139,-4.0451,-3.8117,-3.7639,-3.7603,-3.7603,-3.7603,-3.7896,-3.8542,-3.8615,-3.8637,-4.7011,0.0,0.0,0.0,0.0,-4.0691,-4.1035,-4.156,-4.156,-4.0799,-3.9496,-3.9192,0.0,0.0,0.0,0.0,0.0,0.0,-3.8559,-4.0453,-4.1497,-4.2586,-4.3692,-4.413,-4.4376,-4.434,-4.3474,-4.2375,-4.0981,-3.9098,-3.6564,-3.361,0.0,0.0,0.0,0.0,-3.7575,-3.9369,-4.0908,-4.2085,-4.2901,-4.2339,-4.0926,-3.8528,-3.6148,-3.356,-3.0766,-2.9504,-2.7754,-2.5499,-2.5007,0.0,0.0,0.0,0.0,0.0,0.0,0.0,0.0,0.0,0.0,0.0,0.0,0.0,0.0,0.0,0.0,0.0,0.0,0.0,-2.6879,-2.7086,-2.6845,0.0,0.0,0.0,0.0,0.0,0.0,0.0,0.0,0.0,-3.5272,-3.6127,-3.7259,0.0,0.0,-4.2044,-4.2813,-4.3105,-4.3251,-4.3251,-4.3251,0.0,0.0,-4.3227,-4.3098,-4.3167,-4.2947,-4.2983,-4.3424,-4.3331,-4.324,-4.3478,-4.313,-4.2396,-4.1222,-4.0451,-4.0084,-4.0084,-4.0084,-4.012,-4.0341,-4.0398,-4.0398,-5.1683,-4.7047,-4.5309,-4.4348,-4.4058,-4.4058,-4.4348,-4.4802,-4.4802,-4.3896,-4.2393,-4.1935,-4.0437,-3.8166,-3.7808,0.0,0.0,0.0,-4.0926,-4.2488,-4.3568,-4.4474,-4.5222,-4.5752,-4.5981,-4.5966,-4.5337,-4.4222,-4.261,-4.1868,-3.9912,-3.6962,0.0,0.0,-3.6508,-3.7739,-3.9188,-4.0745,-4.1723,-4.2556,-4.3353,-4.1977,-4.0113,-3.7828,-3.586,-3.3645,-3.1217,-2.9814,-2.8165,-2.6295,-2.5873,-2.514,0.0,0.0,0.0,0.0,0.0,0.0,0.0,0.0,0.0,0.0,0.0,-2.1526,0.0,0.0,0.0,0.0,-2.7634,-2.888,-2.893,-2.8905,0.0,0.0,0.0,0.0,0.0,0.0,0.0,-3.1933,-3.3778,-3.5612,-3.7358,-3.8396,-3.9395,-4.0426,-4.1391,-4.2303,-4.3051,0.0,-4.316,-4.3142,-4.316,-4.3178,-4.3286,-4.3304,-4.334,-4.3445,-4.3737,-4.3975,-4.3975,-4.3975,-4.3975,-4.3938,-4.3735,-4.3368,-4.2837,-4.2359,-4.1919,-4.1625,-4.1572,-4.1645,-4.1992,-4.2029,-4.2066,-5.5341,-5.3639,-5.0705,-4.8931,-4.8098,-4.8098,-4.8061,-4.7989,-4.7989,-4.7083,-4.5506,-4.455,-4.2793,-4.0525,-3.9751,0.0,-4.0652,-4.2264,-4.3423,-4.4209,-4.5653,-4.6311,-4.6334,-4.7104,-4.7472,-4.7493,-4.6876,-4.578,-4.4186,-4.3445,-4.2266,-4.0691,-3.926,-3.8915,-3.9586,-4.0311,-4.147,-4.2937,-4.2991,-4.3244,-4.3751,-4.1542,-3.9462,-3.7646,-3.5266,-3.309,-3.1189,-2.9359,-2.7975,-2.7058,-2.6211,-2.5805,-2.5831,0.0,0.0,0.0,0.0,0.0,0.0,0.0,0.0,0.0,0.0,0.0,0.0,0.0,0.0,0.0,-3.0021,0.0,-3.1075,-3.1039,0.0,0.0,0.0,-3.0835,-3.0255,-3.1473,-3.2741,-3.3683,0.0,0.0,-3.8372,-4.0347,-4.1814,-4.2049,-4.2066,-4.2322,-4.2995,-4.3086,-4.3086,-4.3086,-4.3086,-4.3123,-4.3178,-4.3214,-4.3251,-4.3376,-4.4051,-4.4471,-4.4507,-4.4525,-4.4544,-4.4525,-4.3975,-4.3461,-4.3461,-4.3387,-4.3277,-4.2506,-4.2396,-4.2616,-4.3204,-4.3351,-4.3351,-5.7442,-5.5377,-5.4617,-5.3168,-5.1357,-5.1357,-5.0995,-5.0452,-5.0452,-4.9546,-4.8004,-4.703,-4.5251,-4.2936,-4.2239,-4.2385,-4.3143,-4.364,-4.4525,-4.5725,-4.6122,-4.6563,-4.7032,-4.7356,-4.7472,-4.7493,-4.7455,-4.6613,-4.5055,-4.4802,-4.3896,-4.2375,-4.194,-4.1578,-4.1198,-4.194,-4.281,-4.3807,-4.3843,-4.2991,-4.1379,-3.9623,-3.7636,-3.5287,-3.3888,-3.2007,-2.9574,-2.8786,-2.7975,-2.7042,-2.6672,-2.6249,-2.5771,-2.543,0.0,0.0,0.0,0.0,0.0,0.0,0.0,0.0,0.0,-2.3753,-2.4908,0.0,-2.7839,0.0,-2.9908,-3.1201,-3.1836,-3.1379,0.0,0.0,-3.1799,-3.2343,-3.3357,-3.3791,-3.4806,-3.685,-3.7575,-3.8645,-4.0619,-4.1343,-4.194,-4.2576,-4.2703,-4.2776,-4.292,-4.2956,-4.2956,-4.2956,-4.2956,-4.2994,-4.3087,-4.316,-4.3214,-4.3233,-4.3505,-4.3722,-4.3722,-4.3756,-4.3791,-4.3754,-4.3644,-4.3497,-4.3497,-4.3497,-4.3424,-4.324,-4.3221,-4.324,-4.3461,-4.3497,-4.3497,-5.8058,-5.6536,-5.6536,-5.5776,-5.4544,-5.3856,-5.3096,-5.2371,-5.2371,-5.1466,-4.985,-4.8208,-4.6534,-4.4844,-4.4169,-4.4281,-4.5023,-4.5104,-4.5775,-4.6907,-4.6943,-4.7139,-4.7472,-4.7572,-4.7593,-4.7593,-4.7657,-4.6866,-4.5381,-4.5309,-4.4476,-4.2937,-4.2901,-4.3027,-4.3298,-4.3389,-4.3969,-4.5164,-4.4476,-4.2918,-4.0546,-3.9007,-3.713,-3.4947,-3.3279,-3.1473,-2.9503,-2.8423,-2.758,-2.7024,-2.6825,-2.6555,-2.623,-2.6036,-2.5769,0.0,0.0,0.0,0.0,0.0,0.0,0.0,0.0,0.0,0.0,0.0,-2.9304,-2.9733,-3.1374,-3.2556,-3.3033,-3.3072,-3.3225,-3.3695,-3.3762,-3.4154,-3.5059,-3.5457,-3.6327,-3.8009,-3.879,-3.984,-4.1488,-4.1994,-4.2375,-4.2865,-4.2901,-4.2901,-4.2901,-4.2901,-4.2901,-4.2901,-4.2901,-4.2901,-4.303,-4.3087,-4.3178,-4.3178,-4.3233,-4.3341,-4.3394,-4.3447,-4.3463,-4.3497,-4.3497,-4.3497,-4.3497,-4.3497,-4.3497,-4.3497,-4.3497,-4.3497,-4.3497,-4.3497,-4.3497,-5.7949,-5.7188,-5.7188,-5.7188,-5.708,-5.5667,-5.4581,-5.3856,-5.3748,-5.2806,-5.114,-4.8952,-4.7457,-4.6542,-4.5941,-4.5962,-4.6504,-4.6587,-4.7047,-4.7699,-4.7699,-4.7699,-4.7699,-4.7699,-4.7699,-4.7699,-4.7591,-4.6757,-4.5309,-4.52,-4.4403,-4.2973,-4.2901,-4.3715,-4.52,-4.4584,-4.4947,-4.6287,-4.4657,-4.2701,-4.0419,-3.8753,-3.7022,-3.5218,-3.2957,-3.1244,-3.0104,-2.8391,-2.7427,-2.7281,-2.708,-2.703,-2.7148,-2.6551,-2.6275,0.0,-2.5906,0.0,0.0,0.0,0.0,0.0,0.0,0.0,0.0,-2.9662,-3.1009,-3.2054,-3.345,-3.4338,-3.4338,-3.511,-3.564,-3.5748,-3.5865,-3.5985,-3.6093,-3.6741,-3.7502,-3.8391,-3.9695,-4.0836,-4.1777,-4.2484,-4.2901,-4.2901,-4.2901,-4.2901,-4.2901,-4.2901,-4.2901,-4.2901,-4.2901,-4.2901,-4.2937,-4.2994,-4.305,-4.305,-4.3123,-4.3214,-4.3341,-4.3376,-4.3393,-4.3463,-4.3497,-4.3497,-4.3497,-4.3497,-4.3497,-4.3497,-4.3497,-4.3497,-4.3497,-4.3497,-4.3497,-5.7913,-5.7188,-5.7188,-5.7188,-5.7116,-5.6174,-5.5377,-5.4617,-5.4001,-5.2806,-5.1285,-5.0791,-4.9756,-4.8432,-4.8272,-4.791,-4.744,-4.7461,-4.7554,-4.7699,-4.7699,-4.7699,-4.7699,-4.7699,-4.7699,-4.7663,-4.7047,-4.625,-4.5309,-4.4657,-4.386,-4.2937,-4.2901,-4.3715,-4.52,0.0,0.0,0.0,-4.3298,-4.1361,-3.9623,-3.7413,-3.5347,-3.3542,-3.2322,0.0,-2.991,-2.9349,-2.8939,-2.873,-2.8623,0.0,0.0,0.0,0.0,0.0,0.0,0.0,0.0,0.0,0.0,0.0,-3.1321,-3.1289,-2.9747,-3.1102,-3.2733,-3.4267,-3.4814,-3.5022,-3.5089,-3.5398,-3.5892,-3.6506,-3.6676,-3.7031,-3.7647,-3.7901,-3.85,-3.9912,-4.0329,-4.1053,-4.2411,-4.281,-4.2901,-4.2901,-4.2901,-4.2901,-4.2901,-4.2901,-4.2901,-4.2901,-4.2901,-4.2901,-4.2901,-4.2956,-4.2956,-4.2975,-4.3031,-4.3123,-4.3178,-4.3305,-4.3394,-4.3393,-4.3445,-4.3497,-4.3497,-4.3497,-4.3497,-4.3497,-4.3497,-4.3497,-4.3497,-4.3497,-4.3497,-5.755,0.0,-5.7188,-5.6971,0.0,-5.5776,-5.5015,-5.4291,-5.3892,-5.3023,-5.1864,-5.1466,-5.0633,-4.9474,-4.9054,-4.8438,-4.7699,-4.7699,-4.7699,-4.7699,-4.7699,-4.7699,-4.7699,-4.7699,-4.7699,-4.7663,-4.6902,-4.6069,-4.5273,-4.4476,-4.3679,-4.2937,-4.2901,-4.3498,-4.4693,-4.4693,-4.491,-4.5309,-4.2899,-4.1126,-3.9912,-3.7232,-3.5295,-3.4207,-3.2572,0.0,0.0,0.0,0.0,0.0,0.0,0.0,0.0,0.0,0.0,-2.9064,-2.9156,-2.9535,-3.0252,-3.077,-3.1373,-3.2094,-3.3348,-3.3556,-3.2195,-3.2931,-3.3966,-3.5163,-3.5753,-3.6271,-3.6662,-3.6934,-3.7308,-3.7756,-3.7624,-3.7851,-3.8572,-3.8444,-3.8971,-4.0673,-4.0727,-4.1107,-4.2701,-4.2901,-4.2901,-4.2901,-4.2901,-4.2901,-4.2901,-4.2901,-4.2901,-4.2901,-4.2901,-4.2901,-4.2901,-4.2901,-4.2901,-4.2901,-4.2975,-4.3012,-4.3086,-4.3178,-4.3287,-4.3376,-4.341,-4.3445,-4.3497,-4.3497,-4.3497,-4.3497,-4.3497,-4.3497,-4.3497,-4.3497,-4.3497,-5.7188,-5.7188,-5.7188,-5.6717,-5.5957,-5.5233,-5.4363,-5.3494,0.0,0.0,0.0,-5.1792,-5.0959,-5.0075,-4.9401,-4.8583,-4.7735,-4.7699,-4.7699,-4.7699,-4.7699,-4.7699,-4.7699,-4.7699,-4.7699,-4.7663,-4.6757,-4.5961,-4.5273,-4.4331,-4.3534,-4.2973,-4.2901,-4.33,-4.4061,-4.4077,-4.4403,-4.4947,-4.2682,-4.1089,-4.0274,-3.7361,-3.5584,-3.5211,-3.3073,-3.1682,-3.1132,-3.0352,-2.9763,-2.951,-2.9419,-2.9382,-2.9382,-2.9517,-2.9585,-2.9585,-2.9776,-3.0391,-3.1599,-3.1896,-3.267,-3.4157,-3.5145,-3.5435,-3.4831,-3.4925,-3.5327,-3.6058,-3.6941,-3.7697,-3.833,-3.8683,-3.8952,-3.91,-3.8726,-3.8776,-3.9424,-3.8898,-3.9224,-4.0981,-4.0727,-4.0854,-4.2194,-4.2556,-4.2701,-4.2701,-4.2792,-4.281,-4.2737,-4.2774,-4.2901,-4.2901,-4.2901,-4.2901,-4.2901,-4.2901,-4.2901,-4.2901,-4.2901,-4.2956,-4.3049,-4.3086,-4.316,-4.3305,-4.3359,-4.3412,-4.3463,-4.348,-4.348,-4.3497,-4.3497,-4.3497,-4.3497,-4.3497,-4.3497,-5.7188,-5.7188,-5.7188,-5.6717,-5.5921,-5.5196,-5.4037,-5.2697,-5.2661,-5.2625,-5.248,-5.2371,-5.1502,-5.0112,-5.0003,-4.9112,-4.7735,-4.7699,-4.7699,-4.7699,-4.7699,-4.7699,-4.7699,-4.7699,-4.7699,-4.7591,-4.6178,-4.5417,-4.5164,-4.3807,-4.301,-4.2937,-4.2901,-4.33,-4.4005,-4.4077,-4.415,-4.4222,-4.1904,-4.0311,-3.9514,-3.7123,-3.5331,-3.4403,-3.3323,-3.2497,-3.1934,-3.1598,-3.1308,-3.1025,-3.0944,-3.0886,-3.0886,-3.1461,-3.1819,-3.1853,-3.2429,-3.2903,-3.3106,-3.3702,-3.4762,-3.631,-3.7172,-3.7204,-3.6326,-3.6983,-3.7784,-3.8503,-3.8866,-3.9191,-3.9378,-3.9578,-3.9792,-3.9982,-4.004,-4.0149,-4.0329,-3.9695,-3.9623,-4.0691,-4.0021,-3.9912,-4.089,-4.1488,-4.185,-4.1958,-4.2303,-4.2592,-4.2122,-4.2484,-4.2846,-4.2901,-4.2901,-4.2901,-4.2901,-4.2901,-4.2901,-4.2901,-4.2901,-4.2901,-4.2956,-4.3012,-4.3104,-4.3141,-4.3215,-4.3269,-4.3394,-4.3429,-4.341,-4.3463,-4.348,-4.348,-4.348,-4.348,-4.3497,-5.7188,-5.7188,-5.7188,-5.65,-5.5305,-5.411,-5.3168,-5.2516,-5.248,-5.248,-5.2444,-5.2045,-5.1176,-5.0112,-4.9619,-4.8822,-4.7699,-4.7699,-4.7699,-4.7699,-4.7699,-4.7699,-4.7699,-4.7699,-4.7699,-4.7627,-4.654,-4.5743,-4.5236,-4.4114,-4.3336,-4.2937,-4.2901,-4.3063,-4.3425,-4.3425,-4.3462,-4.3408,-4.1506,-4.0347,-3.9948,-3.7667,-3.6141,-3.5498,-3.4233,-3.331,-3.2843,-3.2209,-3.1916,-3.2022,-3.1939,-3.2063,-3.2374,-3.2713,-3.2882,-3.2882,-3.322,-3.3761,-3.4551,-3.569,-3.666,-3.7384,-3.8201,-3.8502,-3.8116,-3.82,-3.8686,-3.9447,-3.9769,-4.0116,-4.0609,-4.0521,-4.0495,-4.0714,-4.0505,-4.0527,-4.0963,-4.0438,-4.0492,-4.1433,-4.0709,-4.0311,-4.1053,-4.1089,-4.1053,-4.1089,-4.1433,-4.1433,-4.1126,-4.1361,-4.1759,-4.2158,-4.2592,-4.2901,-4.2901,-4.2901,-4.2901,-4.2901,-4.2901,-4.2901,-4.2901,-4.2975,-4.3012,-4.3086,-4.3141,-4.316,-4.3269,-4.3286,-4.3304,-4.3322,-4.3358,-4.3358,-4.334,-4.3393,-4.3445,-5.7188,-5.7188,-5.7188,-5.6283,-5.4762,-5.3168,-5.248,-5.248,-5.248,-5.2408,-5.2154,-5.1538,-5.0873,-5.0075,-4.9257,-4.8438,-4.7772,-4.7699,-4.7699,-4.7699,-4.7699,-4.7699,-4.7699,-4.7699,-4.7699,-4.7627,-4.6902,-4.6106,-4.5273,-4.4476,-4.3679,-4.301,-4.2901,-4.2901,-4.2901,-4.2901,-4.2901,-4.2829,-4.1506,-4.0691,-4.0438,-3.8391,-3.7077,-3.6587,-3.5161,-3.4195,-3.374,-3.2945,-3.2618,-3.2911,-3.2841,-3.2992,-3.3397,-3.358,-3.3728,-3.3863,-3.4066,-3.4742,-3.6039,-3.7381,-3.8159,-3.8159,-3.8933,-3.9462,-3.9597,-3.9467,-3.9537,-4.0111,-4.045,-4.095,-4.1468,-4.1358,-4.1176,-4.1403,-4.102,-4.1099,-4.1647,-4.1215,-4.118,-4.2248,-4.1379,-4.0691,-4.0981,-4.08,-4.0546,-4.0546,-4.0474,-4.0438,-4.0293,-4.0383,-4.0727,-4.118,-4.2013,-4.2556,-4.2629,-4.281,-4.2901,-4.2901,-4.2901,-4.2901,-4.2901,-4.2901,-4.2956,-4.3012,-4.3031,-4.3068,-4.3142,-4.3178,-4.3196,-4.3178,-4.305,-4.2831,-4.2576,-4.2592,-4.3009,-5.7188,-5.7188,-5.7188,-5.6319,-5.4725,-5.3168,-5.248,-5.248,-5.248,-5.2082,-5.1466,-5.1321,-5.0836,-5.0053,-4.9257,-4.846,-4.7735,-4.7699,-4.7699,-4.7699,-4.7699,-4.7699,-4.7699,-4.7699,-4.7699,-4.7627,-4.6902,-4.6178,-4.5381,-4.4476,-4.3679,-4.301,-4.2901,-4.2901,-4.2901,-4.2901,-4.2901,-4.2882,-4.2031,-4.1234,-4.0456,-3.8934,-3.767,-3.6811,-3.5799,-3.515,-3.4854,-3.4477,-3.4163,-3.3973,-3.3788,-3.3659,-3.3692,-3.413,-3.4709,-3.5363,-3.6062,-3.684,-3.7652,-3.8464,-3.8903,-3.8937,-3.9605,-4.0136,-4.0392,-4.1053,-4.1364,-4.1256,-4.1468,-4.1723,-4.1945,-4.1945,-4.1964,-4.2052,-4.2103,-4.2327,-4.2223,-4.184,-4.1557,-4.1665,-4.1125,-4.0293,-4.0093,-4.0238,-4.0438,-4.0274,-4.0238,-4.0057,-3.9623,-3.9912,-4.0057,-4.0021,-4.0854,-4.1741,-4.1922,-4.2484,-4.281,-4.2901,-4.2901,-4.2901,-4.2901,-4.2901,-4.2937,-4.2956,-4.292,-4.2994,-4.305,-4.3104,-4.3069,-4.2887,-4.2486,-4.1902,-4.1262,-4.1153,-4.1716,-5.7188,-5.7152,-5.6681,-5.5595,-5.411,-5.2987,-5.248,-5.248,-5.248,-5.2045,-5.1285,-5.0814,-5.0126,-4.9365,-4.8568,-4.7989,-4.7678,-4.7699,-4.7699,-4.7699,-4.7699,-4.7699,-4.7699,-4.7699,-4.7699,-4.7699,-4.7373,-4.6794,-4.5924,-4.4729,-4.3679,-4.301,-4.2901,-4.2901,-4.2901,-4.2901,-4.2901,-4.2882,-4.2592,-4.2013,-4.1144,-3.9695,-3.8466,-3.7549,-3.6638,-3.6056,-3.5758,-3.5118,-3.4772,-3.4959,-3.4772,-3.4939,-3.5637,-3.5834,-3.6231,-3.6941,-3.7686,-3.8227,-3.8531,-3.9208,-3.9842,-4.0257,-4.0561,-4.1002,-4.1597,-4.2091,-4.2302,-4.224,-4.2265,-4.2329,-4.2472,-4.2171,-4.1995,-4.2142,-4.2225,-4.2287,-4.2394,-4.2282,-4.2239,-4.226,-4.1649,-4.1126,-4.0745,-4.0202,-3.9695,-3.9297,-3.9152,-3.9043,-3.877,-3.8971,-3.8971,-3.8971,-4.0021,-4.1089,-4.1632,-4.2375,-4.281,-4.2901,-4.2901,-4.2901,-4.2901,-4.2901,-4.2901,-4.2901,-4.2846,-4.2865,-4.2939,-4.254,-4.225,-4.2123,-4.1687,-4.0997,-4.0688,-4.0704,-4.1157,-5.7043,-5.6717,-5.5776,-5.4725,-5.3639,-5.2842,-5.248,-5.248,-5.248,-5.1937,-5.0945,-5.0365,-4.951,-4.8583,-4.7932,-4.7699,-4.7699,-4.7699,-4.7699,-4.7699,-4.7699,-4.7699,-4.7699,-4.7699,-4.7699,-4.7699,-4.7699,-4.7135,-4.6142,-4.4802,-4.3715,-4.301,-4.2901,-4.2901,-4.2901,-4.2901,-4.2901,-4.2901,-4.2901,-4.252,-4.1669,-4.06,-3.9479,-3.845,-3.7535,-3.6983,-3.6809,-3.6007,-3.5682,-3.598,-3.5963,-3.6297,-3.7146,-3.7183,-3.7522,-3.8183,-3.887,-3.93,-3.9309,-3.9977,-4.0629,-4.1136,-4.1373,-4.1764,-4.2404,-4.2781,-4.3048,-4.322,-4.3099,-4.3032,-4.2963,-4.2444,-4.2154,-4.2228,-4.2115,-4.21,-4.2225,-4.243,-4.2554,-4.2635,-4.2281,-4.1922,-4.1487,-4.0348,-3.9227,-3.9064,-3.8538,-3.8302,-3.8427,-3.8444,-3.8299,-3.8536,-3.9695,-4.0619,-4.1343,-4.2266,-4.2737,-4.2901,-4.2901,-4.2901,-4.2901,-4.2901,-4.2901,-4.2901,-4.2774,-4.252,-4.2358,-4.1904,-4.1234,-4.0999,-4.06,-4.0093,-3.9712,-3.9946,-4.0107,-5.6754,-5.5848,-5.4436,-5.382,-5.3639,-5.2842,-5.248,-5.248,-5.248,-5.1647,-5.0329,-5.0126,-4.922,-4.7823,-4.7808,-4.7735,-4.7699,-4.7699,-4.7699,-4.7699,-4.7699,-4.7699,-4.7699,-4.7699,-4.7699,-4.7699,-4.7699,-4.6939,-4.5454,-4.4548,-4.3679,-4.2955,-4.2937,-4.2901,-4.2901,-4.2901,-4.2901,-4.2901,-4.2901,-4.252,-4.1813,-4.1632,-4.08,-3.946,-3.845,-3.7895,-3.7756,-3.7596,-3.7323,-3.7055,-3.737,-3.7602,-3.7594,-3.7877,-3.837,-3.8928,-3.9639,-4.0045,-4.0146,-4.0696,-4.1204,-4.1339,-4.1914,-4.2339,-4.2683,-4.328,-4.3727,-4.4018,-4.3941,-4.3811,-4.3513,-4.2975,-4.2601,-4.2473,-4.2128,-4.1907,-4.1845,-4.2225,-4.247,-4.2609,-4.2657,-4.2317,-4.1665,-4.0166,-3.9734,-3.9716,-3.8994,-3.8414,-3.9062,-3.8717,-3.8717,-3.9297,-3.9985,-4.0546,-4.0727,-4.194,-4.2774,-4.2901,-4.2901,-4.2901,-4.2901,-4.2901,-4.2901,-4.2701,-4.2266,-4.1922,-4.1669,-4.1126,-4.0383,-3.9948,-3.9695,-3.926,-3.8971,-3.8517,-3.8841,-5.5667,-5.4508,-5.3929,-5.3422,-5.2915,-5.2625,-5.248,-5.248,-5.248,-5.1611,-5.0293,-5.0112,-4.922,-4.7714,-4.8257,-4.8185,-4.7735,-4.7699,-4.7699,-4.7699,-4.7699,-4.7699,-4.7699,-4.7699,-4.7699,-4.7699,-4.7699,-4.7156,-4.6106,-4.5273,-4.444,-4.3679,-4.3136,-4.2901,-4.2901,-4.2901,-4.2901,-4.2901,-4.2901,-4.2737,-4.2411,-4.1958,-4.1415,-4.0872,-3.9588,-3.8595,-3.8003,-3.7775,-3.7809,-3.8157,-3.8068,-3.8356,-3.9059,-3.9408,-3.9559,-3.9731,-3.9943,-4.0316,-4.073,-4.1035,-4.1644,-4.2557,-4.2834,-4.3261,-4.3756,-4.4094,-4.4319,-4.4429,-4.4477,-4.4441,-4.4223,-4.3583,-4.2914,-4.2474,-4.2403,-4.2242,-4.2051,-4.2163,-4.2389,-4.2526,-4.2534,-4.2266,-4.1564,-4.0824,-4.0467,-4.0365,-3.986,-3.9734,-3.9913,-3.9804,-3.9731,-4.013,-4.0727,-4.127,-4.127,-4.2158,-4.2882,-4.2901,-4.2901,-4.2901,-4.2901,-4.2901,-4.2901,-4.2303,-4.1777,-4.127,-4.0981,-4.0274,-3.9514,-3.9007,-3.877,-3.8734,-3.8263,-3.8517,-3.8915,-5.487,-5.3748,-5.3422,-5.3023,-5.2516,-5.248,-5.248,-5.248,-5.248,-5.1719,-5.0633,-5.0474,-4.9727,-4.8713,-4.9039,-4.9039,-4.846,-4.8242,-4.7932,-4.7735,-4.7699,-4.7699,-4.7699,-4.7699,-4.7699,-4.7699,-4.7699,-4.728,-4.654,-4.5961,-4.5128,-4.4077,-4.3534,-4.3155,-4.2973,-4.2901,-4.2901,-4.2901,-4.2901,-4.2901,-4.2829,-4.2375,-4.1958,-4.1596,-4.0673,-3.9605,-3.8523,-3.8474,-3.8545,-3.8809,-3.8868,-3.9357,-4.0226,-4.0405,-4.0474,-4.0493,-4.0485,-4.0764,-4.1474,-4.1779,-4.2354,-4.3274,-4.3673,-4.4113,-4.4823,-4.4925,-4.506,-4.5252,-4.5411,-4.5433,-4.5279,-4.4719,-4.3888,-4.3128,-4.2951,-4.2787,-4.2331,-4.2463,-4.251,-4.242,-4.2348,-4.2063,-4.1689,-4.1348,-4.116,-4.1029,-4.0761,-4.0437,-4.08,-4.0655,-4.0619,-4.0872,-4.1307,-4.1741,-4.1977,-4.2592,-4.2882,-4.2882,-4.2901,-4.2901,-4.2901,-4.2901,-4.2592,-4.1922,-4.127,-4.0727,-4.013,-3.9405,-3.8862,-3.8319,-3.8372,-3.848,-3.8589,-3.9007,-3.9459,-5.4436,-5.3566,-5.2842,-5.2552,-5.248,-5.248,-5.248,-5.248,-5.248,-5.1973,-5.1199,-5.1212,-5.0691,-5.0112,-5.0017,-5.0075,-4.9764,-4.9293,-4.8605,-4.788,-4.7808,-4.7772,-4.7699,-4.7699,-4.7699,-4.7699,-4.7699,-4.7301,-4.6649,-4.6432,-4.5671,-4.444,-4.4114,-4.3643,-4.2973,-4.2973,-4.2901,-4.2901,-4.2901,-4.2901,-4.2901,-4.2829,-4.2484,-4.185,-4.1669,-4.0945,-3.955,-3.986,-3.9713,-3.9279,-3.9959,-4.0618,-4.0839,-4.0855,-4.0935,-4.1299,-4.1281,-4.1576,-4.2252,-4.2963,-4.3335,-4.3747,-4.4215,-4.4993,-4.5568,-4.5703,-4.594,-4.6443,-4.6578,-4.668,-4.654,-4.6192,-4.5439,-4.4492,-4.3836,-4.3371,-4.3009,-4.2953,-4.2888,-4.2362,-4.2142,-4.2163,-4.2047,-4.1614,-4.1446,-4.1845,-4.1332,-4.0758,-4.1449,-4.1142,-4.1017,-4.1451,-4.1756,-4.1989,-4.2481,-4.2882,-4.2863,-4.2899,-4.2882,-4.2901,-4.2901,-4.2901,-4.2339,-4.1632,-4.0438,-3.9876,-3.926,-3.8645,-3.8572,-3.8227,-3.8299,-3.85,-3.8988,-3.9441,-3.9985,-5.411,-5.2915,-5.2625,-5.248,-5.248,-5.248,-5.248,-5.248,-5.248,-5.2045,-5.1393,-5.1307,-5.0873,-5.0401,-5.0655,-5.0655,-5.0148,-5.0307,-4.9836,-4.8749,-4.8511,-4.8242,-4.7844,-4.7735,-4.7699,-4.7699,-4.7699,-4.7591,-4.7265,-4.6794,-4.6178,-4.5671,-4.4621,-4.4005,-4.3679,-4.3208,-4.2901,-4.2901,-4.2901,-4.2901,-4.2901,-4.2901,-4.2737,-4.2556,-4.252,-4.2013,-4.1017,-4.0582,-4.0436,-4.0539,-4.0744,-4.1094,-4.1591,-4.1591,-4.1688,-4.2074,-4.2027,-4.2286,-4.3031,-4.3809,-4.4485,-4.4993,-4.5669,-4.6143,-4.6413,-4.6447,-4.6549,-4.6819,-4.6786,-4.6786,-4.6781,-4.6758,-4.6203,-4.4997,-4.4549,-4.4174,-4.3582,-4.317,-4.2568,-4.189,-4.1736,-4.178,-4.1845,-4.1605,-4.1923,-4.2292,-4.1924,-4.1841,-4.1992,-4.1939,-4.1773,-4.2095,-4.2167,-4.2119,-4.241,-4.2593,-4.2593,-4.2688,-4.2746,-4.2768,-4.2787,-4.2734,-4.2155,-4.1252,-4.0004,-3.91,-3.8502,-3.8176,-3.8142,-3.8393,-3.861,-3.8972,-3.9405,-3.9949,-4.0528,-5.4146,-5.2951,-5.2625,-5.248,-5.248,-5.248,-5.248,-5.248,-5.248,-5.219,-5.1792,-5.1756,-5.1488,-5.1199,-5.1538,-5.1466,-5.109,-5.1561,-5.1031,-4.9872,-4.9438,-4.9039,-4.8568,-4.8221,-4.7932,-4.7735,-4.7699,-4.7699,-4.7663,-4.7171,-4.6794,-4.6323,-4.549,-4.4657,-4.415,-4.3607,-4.3208,-4.2973,-4.2901,-4.2901,-4.2901,-4.2901,-4.2901,-4.2901,-4.2901,-4.2629,-4.2139,-4.1811,-4.159,-4.1508,-4.1492,-4.1974,-4.2575,-4.2398,-4.2432,-4.2909,-4.3165,-4.3504,-4.4187,-4.5026,-4.5568,-4.6109,-4.6549,-4.6921,-4.7124,-4.7192,-4.7293,-4.7564,-4.7665,-4.7631,-4.7627,-4.7475,-4.7043,-4.6334,-4.5707,-4.5006,-4.4182,-4.3406,-4.2847,-4.2323,-4.2242,-4.2125,-4.2096,-4.2115,-4.2391,-4.2604,-4.2688,-4.2695,-4.2757,-4.2757,-4.2608,-4.2409,-4.2277,-4.2262,-4.2292,-4.2328,-4.2328,-4.2409,-4.253,-4.257,-4.2609,-4.2573,-4.2214,-4.108,-3.9875,-3.9085,-3.8474,-3.8079,-3.7935,-3.8365,-3.8977,-3.9373,-3.9822,-4.0524,-4.1133,-5.4436,-5.3639,-5.2842,-5.248,-5.248,-5.248,-5.248,-5.248,-5.248,-5.248,-5.2444,-5.2371,-5.2408,-5.2408,-5.2335,-5.2299,-5.2444,-5.2335,-5.2009,-5.1249,-5.0669,-5.0162,-4.98,-4.922,-4.8677,-4.8134,-4.8025,-4.7989,-4.8098,-4.8025,-4.7446,-4.6866,-4.6576,-4.5816,-4.4657,-4.4222,-4.3679,-4.3191,-4.2973,-4.2901,-4.2901,-4.2901,-4.2901,-4.2937,-4.301,-4.3046,-4.3027,-4.3362,-4.3064,-4.1936,-4.2512,-4.3033,-4.3378,-4.3182,-4.322,-4.3875,-4.4381,-4.4852,-4.5602,-4.6278,-4.6786,-4.6853,-4.7056,-4.7192,-4.7838,-4.797,-4.8173,-4.868,-4.8781,-4.8849,-4.8744,-4.8433,-4.8048,-4.7937,-4.6788,-4.5635,-4.444,-4.3664,-4.3162,-4.3133,-4.3217,-4.3107,-4.2684,-4.2706,-4.2911,-4.3147,-4.3235,-4.32,-4.303,-4.2888,-4.2818,-4.2491,-4.1973,-4.1931,-4.1801,-4.1766,-4.1766,-4.1788,-4.198,-4.2127,-4.2241,-4.221,-4.2051,-4.0958,-3.9968,-3.9199,-3.8737,-3.849,-3.8437,-3.8885,-3.9349,-3.9718,-4.0308,-4.103,-4.1531,-5.4436,-5.3639,-5.2842,-5.248,-5.248,-5.248,-5.248,-5.248,-5.248,-5.248,-5.248,-5.248,-5.248,-5.248,-5.248,-5.248,-5.248,-5.248,-5.2444,-5.219,-5.2009,-5.114,-5.0271,-4.9908,-4.9655,-4.9401,-4.9293,-4.9438,-4.9474,-4.9329,-4.8967,-4.8257,-4.7627,-4.6902,-4.5888,-4.4729,-4.4041,-4.3715,-4.3155,-4.2937,-4.2901,-4.2901,-4.2901,-4.2973,-4.3462,-4.3751,-4.3841,-4.4288,-4.4285,-4.3592,-4.3439,-4.3648,-4.3998,-4.3769,-4.3841,-4.445,-4.5072,-4.5466,-4.5872,-4.6921,-4.7564,-4.7699,-4.8037,-4.8511,-4.868,-4.8714,-4.8815,-4.9018,-4.9018,-4.9018,-4.8984,-4.8846,-4.8538,-4.7924,-4.6993,-4.5946,-4.5074,-4.4302,-4.3589,-4.3023,-4.3039,-4.3088,-4.3089,-4.3179,-4.3347,-4.3512,-4.3501,-4.3279,-4.3033,-4.2683,-4.2508,-4.1684,-4.1221,-4.1244,-4.1221,-4.1244,-4.1221,-4.114,-4.1323,-4.1613,-4.1683,-4.1782,-4.1538,-4.0951,-4.0177,-3.9388,-3.9475,-3.9449,-3.9517,-3.927,-3.9862,-4.0319,-4.0851,-4.1466,-4.1782,-5.4617,-5.411,-5.2987,-5.248,-5.248,-5.248,-5.248,-5.248,-5.248,-5.248,-5.248,-5.248,-5.248,-5.248,-5.248,-5.248,-5.248,-5.248,-5.248,-5.248,-5.2444,-5.1756,-5.085,-5.0597,-5.0416,-5.0112,-5.0148,-5.0075,-5.0075,-5.0112,-4.9836,-4.9293,-4.8605,-4.7808,-4.6939,-4.5816,-4.4729,-4.415,-4.357,-4.33,-4.2937,-4.2901,-4.3155,-4.3353,-4.3932,-4.4256,-4.4798,-4.5107,-4.5062,-4.4691,-4.4366,-4.4302,-4.4691,-4.4426,-4.4415,-4.4837,-4.562,-4.6143,-4.6413,-4.753,-4.8308,-4.8443,-4.8815,-4.8951,-4.8984,-4.9018,-4.9018,-4.9018,-4.9018,-4.9018,-4.9018,-4.9018,-4.8815,-4.8338,-4.7257,-4.6243,-4.5493,-4.477,-4.4156,-4.372,-4.3636,-4.3631,-4.3546,-4.3655,-4.3746,-4.3846,-4.387,-4.3429,-4.2944,-4.2541,-4.2029,-4.1316,-4.0858,-4.0942,-4.0989,-4.0989,-4.0965,-4.0894,-4.0894,-4.114,-4.1228,-4.1329,-4.1216,-4.0856,-4.0215,-3.9828,-3.9911,-3.9841,-3.9442,-3.9462,-4.0229,-4.068,-4.1075,-4.1343,-4.1732,-5.4907,-5.4762,-5.3168,-5.248,-5.248,-5.248,-5.248,-5.248,-5.248,-5.248,-5.248,-5.248,-5.248,-5.248,-5.248,-5.248,-5.248,-5.248,-5.248,-5.248,-5.2444,-5.2045,-5.1502,-5.143,-5.1104,-5.0691,-5.0401,-5.051,-5.0655,-5.0546,-5.0365,-5.0126,-4.951,-4.8692,-4.7844,-4.6975,-4.5816,-4.4765,-4.4331,-4.3969,-4.3553,-4.3481,-4.3715,-4.415,-4.4512,-4.5111,-4.5781,-4.5994,-4.5792,-4.5435,-4.4956,-4.4905,-4.5233,-4.4934,-4.4769,-4.4952,-4.5789,-4.6515,-4.6921,-4.7936,-4.8849,-4.8883,-4.8951,-4.9018,-4.9018,-4.9018,-4.9018,-4.9018,-4.9018,-4.9018,-4.9018,-4.9018,-4.8883,-4.8511,-4.7492,-4.6549,-4.5771,-4.5026,-4.4637,-4.4748,-4.4742,-4.4511,-4.4297,-4.4102,-4.4155,-4.4337,-4.4242,-4.3847,-4.3262,-4.2748,-4.2071,-4.1204,-4.0886,-4.0752,-4.0776,-4.0776,-4.0752,-4.0704,-4.0655,-4.0741,-4.0823,-4.0862,-4.0943,-4.0701,-4.0443,-4.02,-4.0087,-3.9823,-3.9491,-3.9697,-4.0431,-4.0608,-4.0747,-4.0977,-4.1312,-5.4907,-5.4762,-5.3168,-5.248,-5.248,-5.248,-5.248,-5.2516,-5.2516,-5.248,-5.248,-5.248,-5.248,-5.248,-5.248,-5.248,-5.248,-5.248,-5.248,-5.248,-5.248,-5.2444,-5.2263,-5.2299,-5.2154,-5.1864,-5.1937,-5.1937,-5.19,-5.1719,-5.1611,-5.1031,-5.0669,-5.0053,-4.8728,-4.7932,-4.7011,-4.6033,-4.5381,-4.4983,-4.4729,-4.4621,-4.4765,-4.5091,-4.5599,-4.6245,-4.6743,-4.6816,-4.6412,-4.5824,-4.5423,-4.5156,-4.4954,-4.4776,-4.4637,-4.484,-4.5427,-4.621,-4.6819,-4.7665,-4.8413,-4.8951,-4.9018,-4.9018,-4.9018,-4.9018,-4.9018,-4.9018,-4.9018,-4.9018,-4.9018,-4.9018,-4.8748,-4.8206,-4.7394,-4.6515,-4.5771,-4.506,-4.4677,-4.4643,-4.4671,-4.4625,-4.462,-4.4545,-4.4633,-4.4776,-4.4578,-4.4292,-4.3685,-4.2977,-4.2117,-4.1187,-4.0641,-4.0485,-4.0485,-4.0485,-4.0485,-4.0485,-4.0461,-4.0436,-4.0485,-4.0583,-4.068,-4.0799,-4.0838,-4.0571,-4.0223,-4.0363,-4.018,-4.041,-4.0513,-4.0569,-4.0648,-4.0799,-4.0776,-5.5414,-5.5233,-5.3711,-5.3277,-5.3458,-5.2842,-5.2733,-5.2915,-5.2625,-5.248,-5.248,-5.248,-5.248,-5.248,-5.248,-5.248,-5.248,-5.2516,-5.2697,-5.2987,-5.3096,-5.3277,-5.3603,-5.3494,-5.3349,-5.2697,-5.248,-5.248,-5.248,-5.248,-5.2226,-5.1828,-5.1502,-5.0886,-5.0053,-4.9184,-4.8206,-4.7228,-4.6649,-4.6142,-4.5417,-4.5309,-4.5562,-4.5924,-4.6592,-4.7132,-4.7151,-4.7066,-4.6566,-4.5945,-4.5589,-4.5283,-4.4886,-4.4699,-4.4615,-4.4716,-4.5297,-4.6007,-4.6752,-4.7496,-4.824,-4.8951,-4.9018,-4.9018,-4.9018,-4.9018,-4.9018,-4.9018,-4.9018,-4.9018,-4.9018,-4.9018,-4.8646,-4.8003,-4.7225,-4.6481,-4.5771,-4.5026,-4.4581,-4.4581,-4.4581,-4.4643,-4.4665,-4.4692,-4.472,-4.4667,-4.4667,-4.4374,-4.36,-4.286,-4.2121,-4.1273,-4.057,-4.0197,-4.0163,-4.0188,-4.0213,-4.0213,-4.0238,-4.0238,-4.0238,-4.0362,-4.0485,-4.0524,-4.0573,-4.0476,-4.0241,-4.05,-4.0558,-4.0383,-4.0324,-4.0476,-4.0534,-4.0485,-4.0436,-5.5993,-5.5884,-5.4472,-5.4291,-5.4617,-5.3494,-5.3313,-5.3711,-5.3023,-5.277,-5.2625,-5.2589,-5.248,-5.248,-5.248,-5.248,-5.2516,-5.277,-5.3096,-5.353,-5.382,-5.4146,-5.4544,-5.4544,-5.4146,-5.2915,-5.3023,-5.2987,-5.2806,-5.2661,-5.2661,-5.2408,-5.1864,-5.1357,-5.1104,-5.0619,-4.9546,-4.8351,-4.8098,-4.7482,-4.6395,-4.6142,-4.6432,-4.6685,-4.7171,-4.7421,-4.7245,-4.7043,-4.6661,-4.5895,-4.5692,-4.5389,-4.4995,-4.4726,-4.4615,-4.4649,-4.5297,-4.6041,-4.6752,-4.7496,-4.8206,-4.8917,-4.9018,-4.9018,-4.9018,-4.9018,-4.9018,-4.9018,-4.9018,-4.9018,-4.9018,-4.8815,-4.8409,-4.7767,-4.7056,-4.6346,-4.5635,-4.4959,-4.4682,-4.4581,-4.4581,-4.4581,-4.4581,-4.4609,-4.4581,-4.4581,-4.4581,-4.4384,-4.3639,-4.2828,-4.2117,-4.1441,-4.0756,-4.0214,-4.0113,-4.0146,-4.0146,-4.0146,-4.0113,-4.0146,-4.0113,-4.0188,-4.0288,-4.0213,-4.0213,-4.0188,-4.0179,-4.0263,-4.0238,-4.0113,-4.0163,-4.0288,-4.0238,-4.0138,-4.0163,-5.5993,-5.5921,-5.5051,-5.4798,-5.487,-5.4581,-5.4544,-5.4544,-5.382,-5.3494,-5.3385,-5.2806,-5.248,-5.248,-5.248,-5.2516,-5.2697,-5.3168,-5.3639,-5.4001,-5.4399,-5.4907,-5.5088,-5.5196,-5.4834,-5.4617,-5.4472,-5.4182,-5.3639,-5.3494,-5.3096,-5.2625,-5.2335,-5.1973,-5.1466,-5.1126,-5.0655,-4.9691,-4.9546,-4.9003,-4.8315,-4.8061,-4.788,-4.7699,-4.788,-4.7746,-4.7433,-4.7228,-4.6778,-4.608,-4.5945,-4.5684,-4.5402,-4.5077,-4.4884,-4.488,-4.5427,-4.6206,-4.6887,-4.753,-4.824,-4.8781,-4.9018,-4.9018,-4.9018,-4.9018,-4.9018,-4.9018,-4.9018,-4.9018,-4.8984,-4.8578,-4.78,-4.709,-4.6413,-4.5669,-4.5026,-4.4716,-4.4581,-4.4581,-4.4581,-4.4581,-4.4581,-4.4581,-4.4581,-4.4581,-4.4581,-4.4581,-4.4215,-4.3234,-4.2286,-4.161,-4.0959,-4.0485,-4.0113,-4.018,-4.0214,-4.018,-4.018,-4.018,-4.018,-4.0113,-4.0113,-4.0113,-4.0113,-4.0138,-4.0138,-4.0113,-4.0113,-4.0113,-4.0113,-4.0113,-4.0113,-4.0113,-4.0113,-5.6609,-5.6536,-5.5776,-5.5703,-5.5884,-5.5196,-5.5124,-5.5269,-5.4255,-5.3711,-5.3458,-5.2878,-5.248,-5.248,-5.248,-5.2697,-5.3241,-5.3965,-5.4508,-5.4907,-5.5305,-5.574,-5.5993,-5.6066,-5.6102,-5.6102,-5.6029,-5.5414,-5.4363,-5.3856,-5.353,-5.3132,-5.2733,-5.2263,-5.2009,-5.19,-5.1488,-5.0886,-5.0669,-5.0307,-4.9582,-4.951,-4.922,-4.9039,-4.8894,-4.8822,-4.8668,-4.8533,-4.8222,-4.7769,-4.7597,-4.7245,-4.6794,-4.6411,-4.6035,-4.5592,-4.5987,-4.6641,-4.7225,-4.777,-4.821,-4.8883,-4.9018,-4.9018,-4.9018,-4.9018,-4.9018,-4.9018,-4.9018,-4.9018,-4.8984,-4.8342,-4.7631,-4.6853,-4.6143,-4.5399,-4.4852,-4.4649,-4.4581,-4.4581,-4.4581,-4.4581,-4.4581,-4.4581,-4.4581,-4.4581,-4.4581,-4.4581,-4.4581,-4.3572,-4.2455,-4.188,-4.1264,-4.079,-4.0519,-4.0654,-4.0587,-4.0485,-4.0485,-4.046,-4.0282,-4.0282,-4.018,-4.0113,-4.0113,-4.0113,-4.0113,-4.0113,-4.0113,-4.0113,-4.0113,-4.0113,-4.0113,-4.0113,-4.018,-5.7188,-5.7152,-5.65,-5.6609,-5.6935,-5.5921,-5.5703,-5.5848,-5.4617,-5.4001,-5.382,-5.2951,-5.248,-5.2552,-5.277,-5.3168,-5.3965,-5.4762,-5.5377,-5.5776,-5.6138,-5.6609,-5.7007,-5.7188,-5.7043,-5.6899,-5.6971,-5.6464,-5.5269,-5.4617,-5.4182,-5.3856,-5.3241,-5.2987,-5.3023,-5.2878,-5.2335,-5.1973,-5.1538,-5.1126,-5.0524,-5.0184,-5.0112,-5.0112,-5.0112,-4.9937,-4.9694,-4.9568,-4.9339,-4.9031,-4.8908,-4.8695,-4.8312,-4.8213,-4.7686,-4.6777,-4.7009,-4.7441,-4.7729,-4.8108,-4.8477,-4.8951,-4.9018,-4.9018,-4.9018,-4.9018,-4.9018,-4.9018,-4.9018,-4.9018,-4.8917,-4.8342,-4.7733,-4.709,-4.6278,-4.55,-4.506,-4.4784,-4.4615,-4.4581,-4.4615,-4.4615,-4.4649,-4.4581,-4.4581,-4.4581,-4.4581,-4.4581,-4.4479,-4.3572,-4.2658,-4.2151,-4.1602,-4.1094,-4.0993,-4.1305,-4.1238,-4.1136,-4.117,-4.1204,-4.0798,-4.0451,-4.0383,-4.0316,-4.0113,-4.0113,-4.0113,-4.0113,-4.0113,-4.0113,-4.0113,-4.0113,-4.0113,-4.035,-4.0561,-5.7188,-5.7188,-5.708,-5.7116,-5.7152,-5.6935,-5.6935,-5.679,-5.5377,-5.4762,-5.4581,-5.3241,-5.2552,-5.2733,-5.3313,-5.4001,-5.4798,-5.5522,-5.5957,-5.621,-5.6681,-5.6971,-5.7188,-5.7188,-5.7188,-5.7188,-5.7188,-5.6717,-5.5957,-5.5667,-5.5305,-5.4798,-5.4544,-5.4544,-5.4218,-5.3784,-5.353,-5.3277,-5.2661,-5.1937,-5.1212,-5.0583,-5.0329,-5.0257,-5.0271,-5.0285,-5.0268,-5.02,-4.9968,-4.9567,-4.9424,-4.9086,-4.8739,-4.9065,-4.8938,-4.8426,-4.8114,-4.795,-4.8067,-4.8443,-4.8748,-4.8984,-4.9018,-4.9018,-4.9018,-4.9018,-4.9018,-4.9018,-4.9018,-4.9018,-4.8883,-4.8342,-4.7936,-4.7361,-4.6583,-4.5974,-4.5534,-4.506,-4.4857,-4.4818,-4.4891,-4.4756,-4.475,-4.4649,-4.4581,-4.4581,-4.4581,-4.4615,-4.435,-4.3538,-4.2794,-4.2252,-4.2049,-4.1602,-4.1602,-4.188,-4.188,-4.1779,-4.1914,-4.1914,-4.1441,-4.1001,-4.073,-4.0629,-4.0451,-4.0417,-4.0553,-4.0519,-4.0248,-4.0113,-4.0113,-4.0113,-4.0113,-4.0426,-4.0933,-5.7188,-5.7188,-5.7188,-5.7188,-5.7188,-5.7188,-5.7188,-5.6971,-5.6029,-5.5305,-5.4762,-5.3748,-5.3168,-5.3385,-5.4037,-5.4798,-5.5558,-5.6283,-5.6645,-5.6645,-5.7007,-5.7188,-5.7188,-5.7188,-5.7188,-5.7188,-5.7188,-5.7116,-5.6609,-5.6174,-5.5776,-5.5558,-5.5124,-5.4834,-5.5051,-5.4581,-5.411,-5.3603,-5.2915,-5.2335,-5.1973,-5.1647,-5.143,-5.1488,-5.1452,-5.1407,-5.1384,-5.1361,-5.1223,-5.0964,-5.0844,-5.0549,-5.0162,-5.0064,-4.9882,-4.9286,-4.9022,-4.8783,-4.8643,-4.8883,-4.8951,-4.9018,-4.9018,-4.9018,-4.9018,-4.9018,-4.9018,-4.9018,-4.9018,-4.9018,-4.8883,-4.8342,-4.8041,-4.7567,-4.6959,-4.665,-4.6177,-4.5602,-4.5263,-4.5229,-4.5196,-4.5196,-4.5128,-4.4987,-4.4953,-4.4886,-4.4784,-4.4682,-4.4384,-4.3775,-4.3031,-4.2354,-4.2252,-4.2151,-4.2286,-4.2489,-4.2455,-4.2455,-4.2726,-4.2625,-4.2117,-4.1711,-4.1474,-4.1441,-4.1508,-4.1407,-4.123,-4.0823,-4.0417,-4.0248,-4.0113,-4.0383,-4.0654,-4.0832,-4.1305,-5.7188,-5.7188,-5.7188,-5.7188,-5.7188,-5.7188,-5.7188,-5.708,-5.6319,-5.5667,-5.5088,-5.4399,-5.4074,-5.4363,-5.4943,-5.5595,-5.6319,-5.6935,-5.7152,-5.7188,-5.7188,-5.7188,-5.7188,-5.7188,-5.7188,-5.7188,-5.7188,-5.7152,-5.6971,-5.6681,-5.6355,-5.6283,-5.5921,-5.5631,-5.5486,-5.5233,-5.4834,-5.411,-5.3566,-5.3241,-5.3132,-5.3132,-5.3096,-5.3096,-5.3096,-5.3096,-5.3096,-5.3049,-5.287,-5.2628,-5.2405,-5.2048,-5.1606,-5.1221,-5.0859,-5.0395,-5.0123,-4.994,-4.9585,-4.939,-4.9086,-4.9018,-4.9018,-4.9018,-4.9018,-4.9018,-4.9018,-4.9018,-4.9018,-4.9018,-4.8917,-4.8477,-4.8345,-4.8041,-4.7534,-4.7293,-4.6955,-4.6346,-4.5974,-4.5974,-4.5974,-4.5974,-4.5838,-4.5466,-4.5326,-4.5196,-4.5055,-4.4852,-4.4485,-4.4113,-4.3741,-4.3193,-4.3159,-4.3132,-4.32,-4.3267,-4.3166,-4.3132,-4.3403,-4.3335,-4.2794,-4.2523,-4.232,-4.2388,-4.2455,-4.2151,-4.1745,-4.1162,-4.0654,-4.0925,-4.1128,-4.1136,-4.1305,-4.1508,-4.1982,-5.7188,-5.7188,-5.7188,-5.7188,-5.7188,-5.7188,-5.7188,-5.7152,-5.6391,-5.5993,-5.5703,-5.516,-5.5088,-5.5595,-5.574,-5.6247,-5.708,-5.7188,-5.7188,-5.7188,-5.7188,-5.7188,-5.7188,-5.7188,-5.7188,-5.7188,-5.7188,-5.7188,-5.7188,-5.708,-5.7007,-5.7043,-5.6717,-5.6899,-5.6645,-5.5993,-5.5486,-5.487,-5.4508,-5.4472,-5.4472,-5.4508,-5.4508,-5.4581,-5.4653,-5.4725,-5.4725,-5.4351,-5.4071,-5.3785,-5.3502,-5.3077,-5.2474,-5.2109,-5.1662,-5.1302,-5.1086,-5.0898,-5.0572,-4.9864,-4.9221,-4.9052,-4.9154,-4.9323,-4.9424,-4.912,-4.9018,-4.9086,-4.912,-4.9018,-4.8984,-4.8951,-4.8748,-4.8545,-4.8173,-4.797,-4.7631,-4.709,-4.6786,-4.6718,-4.6718,-4.6752,-4.6887,-4.6616,-4.6143,-4.6041,-4.5771,-4.5568,-4.5156,-4.4756,-4.4621,-4.4378,-4.431,-4.431,-4.4344,-4.4242,-4.391,-4.3876,-4.4045,-4.3876,-4.347,-4.3301,-4.32,-4.2963,-4.2895,-4.2591,-4.2422,-4.2279,-4.2178,-4.2151,-4.2117,-4.1914,-4.2219,-4.2591,-4.32,-5.7188,-5.7188,-5.7188,-5.7188,-5.7188,-5.7188,-5.7188,-5.7152,-5.6862,-5.6428,-5.5957,-5.5269,-5.5305,-5.5848,-5.6029,-5.6428,-5.7116,-5.7188,-5.7188,-5.7188,-5.7188,-5.7188,-5.7188,-5.7188,-5.7188,-5.7188,-5.7188,-5.7188,-5.7188,-5.7188,-5.7188,-5.7188,-5.7188,-5.7188,-5.6899,-5.65,-5.5921,-5.5595,-5.5196,-5.4943,-5.4907,-5.4907,-5.4907,-5.4907,-5.4907,-5.4907,-5.4846,-5.4688,-5.4428,-5.422,-5.3913,-5.3429,-5.2986,-5.2567,-5.2173,-5.1799,-5.1675,-5.1513,-5.1317,-5.071,-5.0405,-5.0371,-5.0371,-5.0304,-5.0168,-4.9965,-4.9729,-4.956,-4.9289,-4.912,-4.9052,-4.9018,-4.8951,-4.8917,-4.8849,-4.8714,-4.8376,-4.7902,-4.7564,-4.7496,-4.7496,-4.7496,-4.7699,-4.7902,-4.7361,-4.6887,-4.6583,-4.6244,-4.5805,-4.5466,-4.5331,-4.5224,-4.5122,-4.4953,-4.4919,-4.4784,-4.4649,-4.4716,-4.475,-4.4485,-4.4248,-4.4147,-4.4039,-4.3768,-4.3538,-4.3538,-4.3599,-4.3701,-4.3464,-4.2895,-4.2625,-4.2455,-4.2929,-4.3572,-4.4012,-5.7188,-5.7188,-5.7188,-5.7188,-5.7188,-5.7188,-5.7188,-5.7188,-5.7188,-5.6899,-5.6319,-5.5812,-5.5848,-5.6247,-5.6391,-5.6609,-5.708,-5.7188,-5.7188,-5.7188,-5.7188,-5.7188,-5.7188,-5.7188,-5.7188,-5.7188,-5.7188,-5.7188,-5.7188,-5.7188,-5.7188,-5.7188,-5.7188,-5.7188,-5.708,-5.6681,-5.6355,-5.621,-5.5921,-5.5595,-5.5631,-5.5667,-5.5667,-5.5703,-5.574,-5.569,-5.5652,-5.5501,-5.5147,-5.4768,-5.4358,-5.3777,-5.3271,-5.2846,-5.2504,-5.225,-5.2089,-5.2024,-5.1859,-5.1354,-5.1219,-5.1048,-5.1082,-5.1116,-5.1082,-5.0744,-5.0439,-5.0371,-4.983,-4.939,-4.9458,-4.9627,-4.9729,-4.983,-4.9965,-4.983,-4.9357,-4.8917,-4.8545,-4.8308,-4.8274,-4.824,-4.8308,-4.8443,-4.8037,-4.7564,-4.7293,-4.6921,-4.6447,-4.6177,-4.6075,-4.5906,-4.5766,-4.5563,-4.5297,-4.5466,-4.5602,-4.5669,-4.5635,-4.5297,-4.5094,-4.4987,-4.4682,-4.4276,-4.4242,-4.4513,-4.4445,-4.4209,-4.3802,-4.3295,-4.32,-4.3267,-4.3538,-4.4113,-4.4248,-5.7188,-5.7188,-5.7188,-5.7188,-5.7188,-5.7188,-5.7188,-5.7188,-5.7188,-5.7152,-5.7043,-5.6935,-5.6935,-5.708,-5.6971,-5.708,-5.7116,-5.7188,-5.7188,-5.7188,-5.7188,-5.7188,-5.7188,-5.7188,-5.7188,-5.7188,-5.7188,-5.7188,-5.7188,-5.7188,-5.7188,-5.7188,-5.7188,-5.7188,-5.7188,-5.7188,-5.7152,-5.7116,-5.7007,-5.6935,-5.6862,-5.679,-5.679,-5.6754,-5.6754,-5.6631,-5.6505,-5.6273,-5.5946,-5.5545,-5.501,-5.4474,-5.3949,-5.3635,-5.3377,-5.3246,-5.328,-5.3315,-5.3315,-5.1996,-5.1557,-5.1589,-5.1758,-5.1657,-5.1386,-5.1217,-5.1183,-5.1116,-5.0541,-5.0439,-5.0541,-5.0574,-5.0574,-5.0642,-5.071,-5.0642,-5.0168,-4.9932,-4.9593,-4.912,-4.9018,-4.8984,-4.8951,-4.8883,-4.8511,-4.8206,-4.7973,-4.7631,-4.7192,-4.6921,-4.6786,-4.6616,-4.6413,-4.6177,-4.6075,-4.6413,-4.6583,-4.665,-4.6447,-4.6041,-4.5737,-4.5534,-4.5196,-4.4818,-4.4581,-4.4581,-4.4581,-4.4547,-4.4175,-4.387,-4.4175,-4.431,-4.4513,-4.4547,-4.4581,-5.7188,-5.7188,-5.7087,-5.7061,-5.7061,-5.7163,-5.7188,-5.7188,-5.7188,-5.7188,-5.7188,-5.7188,-5.7188,-5.7188,-5.7188,-5.7188,-5.7188,-5.7188,-5.7188,-5.7188,-5.7188,-5.7188,-5.7188,-5.7188,-5.7188,-5.7188,-5.7188,-5.7188,-5.7188,-5.7188,-5.7188,-5.7188,-5.7188,-5.7188,-5.7188,-5.7188,-5.7188,-5.7188,-5.7152,-5.7152,-5.7188,-5.7188,-5.7188,-5.7188,-5.7188,-5.7149,-5.7031,-5.6841,-5.6427,-5.595,-5.5399,-5.478,-5.4237,-5.3848,-5.3617,-5.3517,-5.3518,-5.3518,-5.3484,-5.2909,-5.2773,-5.2672,-5.2604,-5.257,-5.2706,-5.2198,-5.2029,-5.1792,-5.1251,-5.115,-5.0982,-5.1014,-5.1014,-5.1014,-5.105,-5.1016,-5.0811,-5.0811,-5.0574,-5.0033,-4.9729,-4.939,-4.9221,-4.9052,-4.8748,-4.8748,-4.8578,-4.8545,-4.824,-4.78,-4.75,-4.7293,-4.709,-4.6853,-4.6819,-4.7158,-4.7192,-4.7124,-4.6921,-4.6583,-4.6312,-4.6177,-4.5805,-4.5432,-4.4959,-4.4615,-4.4852,-4.4987,-4.4682,-4.4547,-4.4852,-4.4784,-4.4581,-4.4581,-4.4581,-5.6935,-5.7163,-5.7036,-5.6959,-5.6933,-5.701,-5.7061,-5.7112,-5.7112,-5.7138,-5.7188,-5.7188,-5.7188,-5.7188,-5.7188,-5.7188,-5.7188,-5.7188,-5.7188,-5.7188,-5.7188,-5.7188,-5.7188,-5.7188,-5.7188,-5.7188,-5.7188,-5.7188,-5.7188,-5.7188,-5.7188,-5.7188,-5.7188,-5.7188,-5.7188,-5.7188,-5.7188,-5.7188,-5.7188,-5.7188,-5.7188,-5.7188,-5.7188,-5.7188,-5.7199,-5.7257,-5.7241,-5.7048,-5.6629,-5.6117,-5.5518,-5.4859,-5.431,-5.3849,-5.3618,-5.3517,-5.3518,-5.3518,-5.3484,-5.345,-5.3315,-5.3348,-5.3518,-5.3518,-5.3484,-5.2976,-5.2807,-5.2503,-5.1961,-5.1928,-5.1894,-5.186,-5.1691,-5.1691,-5.1928,-5.1928,-5.1623,-5.1589,-5.1352,-5.0777,-5.0371,-4.9965,-4.9526,-4.9187,-4.8917,-4.9052,-4.9187,-4.9187,-4.912,-4.868,-4.821,-4.8003,-4.7936,-4.7834,-4.7733,-4.7834,-4.7834,-4.7597,-4.7462,-4.7327,-4.7124,-4.6993,-4.6549,-4.6143,-4.5838,-4.563,-4.5529,-4.5461,-4.5432,-4.5432,-4.563,-4.5326,-4.475,-4.4716,-4.4818,-5.6428,-5.7091,-5.7036,-5.6845,-5.675,-5.6697,-5.6776,-5.6959,-5.6959,-5.7072,-5.7138,-5.7112,-5.7087,-5.7138,-5.7163,-5.7163,-5.7188,-5.7188,-5.7188,-5.7188,-5.7188,-5.7188,-5.7188,-5.7188,-5.7188,-5.7188,-5.7188,-5.7188,-5.7188,-5.7188,-5.7188,-5.7188,-5.7188,-5.7188,-5.7188,-5.7188,-5.7188,-5.7188,-5.7188,-5.7188,-5.7188,-5.7188,-5.7188,-5.7188,-5.7199,-5.7325,-5.7414,-5.7405,-5.7036,-5.6515,-5.5907,-5.5086,-5.4355,-5.3719,-5.3551,-5.3518,-5.3518,-5.3518,-5.3518,-5.3518,-5.3518,-5.3518,-5.3518,-5.3518,-5.3484,-5.3348,-5.3281,-5.3112,-5.2739,-5.2976,-5.3112,-5.2841,-5.2604,-5.2841,-5.3145,-5.2942,-5.2469,-5.2232,-5.1928,-5.1522,-5.1183,-5.0744,-5.0236,-4.9796,-4.9593,-4.9763,-4.9864,-4.9661,-4.956,-4.9323,-4.8951,-4.8714,-4.8714,-4.8815,-4.8748,-4.8477,-4.8443,-4.824,-4.8409,-4.8342,-4.8105,-4.7703,-4.7293,-4.6921,-4.6786,-4.6583,-4.621,-4.6278,-4.6481,-4.6481,-4.6244,-4.6007,-4.5495,-4.5258,-4.5326,-5.5582,-5.6169,-5.5949,-5.6036,-5.6257,-5.5986,-5.6098,-5.6546,-5.6573,-5.66,-5.6626,-5.6733,-5.6776,-5.6786,-5.6959,-5.701,-5.7087,-5.7138,-5.7188,-5.7188,-5.7188,-5.7188,-5.7188,-5.7188,-5.7188,-5.7188,-5.7188,-5.7188,-5.7188,-5.7188,-5.7188,-5.7188,-5.7188,-5.7188,-5.7188,-5.7188,-5.7188,-5.7188,-5.7188,-5.7188,-5.7188,-5.7188,-5.7188,-5.7188,-5.7188,-5.7325,-5.7316,-5.7556,-5.722,-5.6661,-5.598,-5.54,-5.562,-5.433,-5.3518,-5.3518,-5.3518,-5.3518,-5.3518,-5.3518,-5.3518,-5.3518,-5.3518,-5.3518,-5.3518,-5.3518,-5.3518,-5.3348,-5.3247,-5.3348,-5.3416,-5.3247,-5.3112,-5.3281,-5.3518,-5.3315,-5.2942,-5.2875,-5.257,-5.2164,-5.1826,-5.1352,-5.0845,-5.0642,-5.0473,-5.0608,-5.0541,-5.0236,-4.9965,-4.9695,-4.9357,-4.9086,-4.9018,-4.9018,-4.9018,-4.8815,-4.8883,-4.8951,-4.8984,-4.8951,-4.8646,-4.8274,-4.7902,-4.7665,-4.7462,-4.709,-4.6718,-4.6921,-4.7259,-4.6921,-4.665,-4.6481,-4.6278,-4.607,-4.5974,-5.4797,-5.5299,-5.5056,-5.5089,-5.5235,-5.5208,-5.5378,-5.5706,-5.6049,-5.6245,-5.6383,-5.6492,-5.6519,-5.6573,-5.6724,-5.6829,-5.6865,-5.701,-5.7087,-5.7112,-5.7163,-5.7188,-5.7188,-5.7188,-5.7188,-5.7188,-5.7188,-5.7188,-5.7188,-5.7188,-5.7188,-5.7188,-5.7188,-5.7188,-5.7188,-5.7188,-5.7188,-5.7188,-5.7188,-5.7188,-5.7188,-5.7188,-5.7188,-5.7188,-5.7188,-5.718,-5.728,-5.7664,-5.7539,-5.7188,-5.6571,-5.6329,-5.6269,-5.5009,-5.416,-5.4126,-5.3991,-5.3788,-5.3619,-5.3518,-5.3518,-5.3518,-5.3518,-5.3518,-5.3518,-5.3518,-5.3518,-5.345,-5.3484,-5.3518,-5.3518,-5.3518,-5.3484,-5.3518,-5.3518,-5.3518,-5.3484,-5.3484,-5.3179,-5.2773,-5.2334,-5.1894,-5.1555,-5.142,-5.1217,-5.1048,-5.0845,-5.0574,-5.027,-4.9965,-4.9526,-4.912,-4.9052,-4.9018,-4.9018,-4.9018,-4.9018,-4.9018,-4.9018,-4.8951,-4.8883,-4.8781,-4.8443,-4.824,-4.8037,-4.7767,-4.7597,-4.7733,-4.7902,-4.7564,-4.7496,-4.7597,-4.7361,-4.6853,-4.6887,-5.3954,-5.4528,-5.4225,-5.4095,-5.4121,-5.4387,-5.4516,-5.4589,-5.5378,-5.5936,-5.6134,-5.6245,-5.6189,-5.6126,-5.6347,-5.6483,-5.6591,-5.6776,-5.6933,-5.6959,-5.7123,-5.7138,-5.7188,-5.7188,-5.7188,-5.7188,-5.7188,-5.7188,-5.7188,-5.7188,-5.7188,-5.7188,-5.7188,-5.7188,-5.7188,-5.7188,-5.7188,-5.7188,-5.7188,-5.7188,-5.7188,-5.7188,-5.7188,-5.7188,-5.721,-5.7325,-5.7756,-5.808,-5.8284,-5.7864,-5.7508,-5.7018,-5.6304,-5.5925,-5.5345,-5.4938,-5.4702,-5.4465,-5.4093,-5.389,-5.3754,-5.3653,-5.3518,-5.3518,-5.3518,-5.3518,-5.3518,-5.3518,-5.3518,-5.3518,-5.3518,-5.3518,-5.3518,-5.3518,-5.3518,-5.3518,-5.3518,-5.3518,-5.3382,-5.3078,-5.2875,-5.2469,-5.2401,-5.2232,-5.2131,-5.1725,-5.1555,-5.1319,-5.0845,-5.0541,-4.9864,-4.9289,-4.9086,-4.9018,-4.9018,-4.9018,-4.9018,-4.9018,-4.9018,-4.9018,-4.8951,-4.8984,-4.9018,-4.8748,-4.8477,-4.8714,-4.868,-4.8612,-4.8511,-4.8545,-4.8545,-4.8815,-4.8477,-4.7767,-4.7699,-5.2832,-5.331,-5.3125,-5.3288,-5.3658,-5.3438,-5.3724,-5.4301,-5.4457,-5.4738,-5.4957,-5.5234,-5.5383,-5.5437,-5.5872,-5.6042,-5.6154,-5.6456,-5.6697,-5.6829,-5.6933,-5.7072,-5.7163,-5.7112,-5.7163,-5.7188,-5.7188,-5.7188,-5.7188,-5.7188,-5.7188,-5.7188,-5.7188,-5.7188,-5.7188,-5.7188,-5.7188,-5.7188,-5.7188,-5.7188,-5.7163,-5.7188,-5.7188,-5.7163,-5.7159,-5.6979,-5.7236,-5.7277,-5.704,-5.6644,-5.6764,-5.6405,-5.5856,-5.6259,-5.6122,-5.5615,-5.5446,-5.5243,-5.4972,-5.4566,-5.4363,-5.4126,-5.3957,-5.3653,-5.3518,-5.3518,-5.3518,-5.3551,-5.3518,-5.3518,-5.3518,-5.3518,-5.3518,-5.3518,-5.3518,-5.3518,-5.3518,-5.3518,-5.3518,-5.3416,-5.3281,-5.3179,-5.3112,-5.3044,-5.301,-5.2976,-5.301,-5.2739,-5.2029,-5.1488,-5.0439,-4.9796,-4.9187,-4.9052,-4.9018,-4.9018,-4.9018,-4.9018,-4.9018,-4.9018,-4.9018,-4.8987,-4.8956,-4.9018,-4.8951,-4.9018,-4.9018,-4.8951,-4.8951,-4.9018,-4.9018,-4.9018,-4.9018,-4.8443,-4.8545,-5.2058,-5.2232,-5.1899,-5.1836,-5.1998,-5.2255,-5.2753,-5.3335,-5.3744,-5.3948,-5.4145,-5.4526,-5.4776,-5.4838,-5.5289,-5.5555,-5.5671,-5.607,-5.6292,-5.6519,-5.6644,-5.6812,-5.6891,-5.6933,-5.701,-5.7061,-5.7163,-5.7188,-5.7163,-5.7188,-5.7188,-5.7188,-5.7188,-5.7163,-5.7188,-5.7188,-5.7188,-5.7188,-5.7163,-5.7138,-5.7112,-5.7138,-5.7138,-5.7087,-5.6959,-5.675,-5.6715,-5.6752,-5.658,-5.6457,-5.6604,-5.6645,-5.6533,-5.6934,-5.6833,-5.6427,-5.6156,-5.6055,-5.575,-5.5412,-5.5108,-5.4905,-5.4803,-5.4634,-5.4633,-5.4634,-5.4093,-5.4025,-5.3585,-5.3518,-5.3518,-5.3518,-5.3518,-5.3518,-5.3518,-5.3518,-5.3518,-5.3518,-5.3518,-5.3484,-5.3382,-5.3382,-5.3315,-5.3315,-5.3247,-5.3145,-5.3348,-5.3078,-5.2536,-5.23,-5.1251,-5.0473,-4.9932,-4.9255,-4.9018,-4.9018,-4.9018,-4.9018,-4.9055,-4.899,-4.8993,-4.8925,-4.8925,-4.9027,-4.9058,-4.9018,-4.9018,-4.9159,-4.9086,-4.9018,-4.9018,-4.9018,-4.9018,-4.9021,-4.892,-5.1556,-5.135,-5.0706,-5.0209,-5.009,-5.1032,-5.1777,-5.2298,-5.3112,-5.3518,-5.3584,-5.4145,-5.4335,-5.4494,-5.4745,-5.4926,-5.5199,-5.5555,-5.585,-5.6134,-5.6273,-5.6492,-5.6573,-5.6626,-5.676,-5.6907,-5.701,-5.7061,-5.7087,-5.7087,-5.7087,-5.7138,-5.7138,-5.7138,-5.7138,-5.7138,-5.7087,-5.7061,-5.7036,-5.701,-5.7036,-5.7087,-5.7036,-5.6969,-5.6812,-5.66,-5.6486,-5.6345,-5.6295,-5.616,-5.6164,-5.6472,-5.6769,-5.7137,-5.7239,-5.6968,-5.6934,-5.6664,-5.6292,-5.6021,-5.5886,-5.5818,-5.5818,-5.5681,-5.5647,-5.5378,-5.4837,-5.4499,-5.4059,-5.3856,-5.389,-5.3856,-5.3856,-5.3856,-5.3856,-5.3856,-5.3856,-5.3822,-5.3822,-5.3788,-5.3721,-5.3721,-5.3551,-5.3551,-5.345,-5.3348,-5.3112,-5.2739,-5.2469,-5.2469,-5.1995,-5.142,-5.0947,-5.0236,-4.9424,-4.912,-4.9123,-4.9263,-4.9333,-4.9133,-4.9036,-4.9375,-4.9377,-4.9106,-4.9104,-4.9403,-4.9436,-4.9573,-4.94,-4.9297,-4.9167,-4.9236,-4.9102,-4.9102,-4.8928,-5.1114,-5.0848,-4.9756,-4.9435,-4.9777,-5.0366,-5.0869,-5.1589,-5.2909,-5.3518,-5.3551,-5.3551,-5.3751,-5.3882,-5.4205,-5.446,-5.4714,-5.5053,-5.5443,-5.5764,-5.5822,-5.6106,-5.6328,-5.6328,-5.6519,-5.668,-5.6776,-5.6891,-5.6855,-5.6891,-5.6891,-5.6891,-5.6855,-5.6803,-5.676,-5.675,-5.6829,-5.6839,-5.6839,-5.6776,-5.675,-5.6776,-5.6865,-5.6733,-5.6546,-5.6217,-5.5921,-5.5489,-5.5073,-5.4815,-5.5007,-5.5755,-5.6327,-5.6833,-5.707,-5.734,-5.734,-5.7374,-5.7002,-5.6765,-5.663,-5.6562,-5.6393,-5.6021,-5.5987,-5.5953,-5.5615,-5.5615,-5.531,-5.5209,-5.5175,-5.5074,-5.5074,-5.5074,-5.5074,-5.5074,-5.504,-5.4972,-5.4905,-5.4668,-5.4397,-5.4093,-5.3653,-5.3619,-5.3585,-5.3484,-5.3416,-5.3112,-5.3044,-5.2909,-5.2639,-5.23,-5.186,-5.1048,-5.0168,-4.9494,-4.9396,-4.9538,-4.9645,-4.9549,-4.9686,-5.0123,-5.0089,-4.962,-4.9854,-5.0256,-5.0255,-5.0018,-5.0153,-5.0052,-4.9652,-4.9486,-4.9382,-4.9213,-4.9074]},{"header":{"parameterUnit":"m.s-1","parameterCategory":1,"la1":31.0,"la2":29.5877,"lo1":-88.7671,"lo2":-86.6584,"dy":0.0162,"dx":0.0185,"nx":115,"ny":88,"refTime":"2024-04-06T06:00:00:Z","depth":0,"parameterNumber":3,"parameterNumberName":"V-component_of_WINDS"},"data":[0.0,0.0,0.0,0.0,0.0,0.0,0.0,0.0,0.0,0.0,0.0,0.0,0.0,0.0,0.0,0.0,0.0,0.0,0.0,0.0,0.0,0.0,0.0,0.0,0.0,0.0,0.0,0.0,0.0,0.0,0.0,0.0,0.0,0.0,0.0,0.0,0.0,0.0,0.0,0.0,0.0,0.0,0.0,0.0,0.0,0.0,0.0,0.0,0.0,0.0,0.0,0.0,0.0,0.0,0.0,0.0,0.0,0.0,0.0,0.0,0.0,0.0,0.0,0.0,0.0,0.0,0.0,0.0,0.0,0.0,0.0,0.0,0.0,0.0,0.0,0.0,0.0,0.0,0.0,0.0,0.0,0.0,0.0,0.0,0.0,0.0,0.0,0.0,0.0,0.0,0.0,0.0,0.0,0.0,0.0,0.0,0.0,0.0,0.0,0.0,0.0,0.0,0.0,0.0,0.0,0.0,0.0,0.0,0.0,0.0,0.0,0.0,0.0,0.0,0.0,0.0,0.0,0.0,0.0,0.0,0.0,0.0,0.0,0.0,0.0,0.0,0.0,0.0,0.0,0.0,0.0,0.0,0.0,0.0,0.0,0.0,0.0,0.0,0.0,0.0,0.0,0.0,0.0,0.0,0.0,0.0,0.0,0.0,0.0,0.0,0.0,0.0,0.0,0.0,0.0,0.0,0.0,0.0,0.0,0.0,0.0,0.0,0.0,0.0,0.0,0.0,0.0,0.0,0.0,0.0,0.0,0.0,0.0,0.0,0.0,0.0,0.0,0.0,0.0,0.0,0.0,0.0,0.0,0.0,0.0,0.0,0.0,0.0,0.0,0.0,0.0,0.0,0.0,0.0,0.0,0.0,0.0,0.0,0.0,0.0,0.0,0.0,0.0,0.0,0.0,0.0,0.0,0.0,0.0,0.0,0.0,0.0,0.0,0.0,0.0,0.0,0.0,0.0,0.0,0.0,0.0,0.0,0.0,0.0,0.0,0.0,0.0,0.0,0.0,0.0,0.0,0.0,0.0,0.0,0.0,0.0,0.0,0.0,0.0,0.0,0.0,0.0,0.0,0.0,0.0,0.0,0.0,0.0,0.0,0.0,0.0,0.0,0.0,0.0,0.0,0.0,0.0,0.0,0.0,0.0,0.0,0.0,0.0,0.0,0.0,0.0,0.0,0.0,0.0,0.0,0.0,0.0,0.0,0.0,0.0,0.0,0.0,0.0,0.0,0.0,0.0,0.0,0.0,0.0,0.0,0.0,0.0,0.0,0.0,0.0,0.0,0.0,0.0,0.0,0.0,0.0,0.0,0.0,0.0,0.0,0.0,0.0,0.0,0.0,0.0,0.0,0.0,0.0,0.0,0.0,0.0,0.0,0.0,0.0,0.0,0.0,0.0,0.0,0.0,0.0,0.0,0.0,0.0,0.0,0.0,0.0,0.0,0.0,0.0,0.0,0.0,0.0,0.0,0.0,0.0,0.0,0.0,0.0,0.0,0.0,0.0,0.0,0.0,0.0,0.0,0.0,0.0,0.0,0.0,0.0,0.0,0.0,0.0,0.0,0.0,0.0,0.0,0.0,0.0,0.0,0.0,0.0,0.0,0.0,0.0,0.0,0.0,0.0,0.0,0.0,0.0,0.0,0.0,0.0,0.0,0.0,0.0,0.0,0.0,0.0,0.0,0.0,0.0,0.0,0.0,0.0,0.0,0.0,0.0,0.0,0.0,0.0,0.0,0.0,0.0,0.0,0.0,0.0,0.0,0.0,0.0,0.0,0.0,0.0,0.0,0.0,0.0,0.0,0.0,0.0,0.0,0.0,0.0,0.0,0.0,0.0,0.0,0.0,0.0,0.0,0.0,0.0,0.0,0.0,0.0,0.0,0.0,0.0,0.0,0.0,0.0,0.0,0.0,0.0,0.0,0.0,0.0,0.0,0.0,0.0,0.0,0.0,0.0,0.0,0.0,0.0,0.0,0.0,0.0,0.0,0.0,0.0,0.0,0.0,0.0,0.0,0.0,0.0,0.0,0.0,0.0,0.0,0.0,0.0,0.0,0.0,0.0,0.0,0.0,0.0,0.0,0.0,0.0,0.0,0.0,0.0,0.0,0.0,0.0,0.0,0.0,0.0,0.0,0.0,0.0,0.0,0.0,0.0,0.0,0.0,0.0,0.0,0.0,0.0,0.0,0.0,0.0,0.0,0.0,0.0,0.0,0.0,0.0,0.0,0.0,0.0,0.0,0.0,0.0,0.0,0.0,0.0,0.0,0.0,0.0,0.0,0.0,0.0,0.0,0.0,0.0,0.0,0.0,0.0,0.0,0.0,0.0,0.0,0.0,0.0,0.0,0.0,0.0,0.0,0.0,0.0,0.0,0.0,0.0,0.0,0.0,0.0,0.0,0.0,0.0,0.0,0.0,0.0,0.0,0.0,0.0,0.0,0.0,0.0,0.0,0.0,0.0,0.0,0.0,0.0,0.0,0.0,0.0,0.0,0.0,0.0,0.0,0.0,0.0,0.0,0.0,0.0,0.0,0.0,0.0,0.0,0.0,0.0,0.0,0.0,0.0,0.0,0.0,0.0,0.0,0.0,0.0,0.0,0.0,0.0,0.0,0.0,0.0,0.0,0.0,0.0,0.0,0.0,0.0,0.0,0.0,0.0,0.0,0.0,0.0,0.0,0.0,0.0,0.0,0.0,0.0,0.0,0.0,0.0,0.0,0.0,0.0,0.0,0.0,0.0,0.0,0.0,0.0,0.0,0.0,0.0,0.0,0.0,0.0,0.0,0.0,0.0,0.0,0.0,0.0,0.0,0.0,0.0,0.0,0.0,0.0,0.0,0.0,0.0,0.0,0.0,0.0,0.0,0.0,0.0,0.0,0.0,0.0,0.0,0.0,0.0,0.0,0.0,0.0,0.0,0.0,0.0,0.0,0.0,0.0,0.0,0.0,0.0,0.0,0.0,0.0,0.0,0.0,0.0,0.0,0.0,0.0,0.0,0.0,0.0,0.0,0.0,0.0,0.0,0.0,0.0,0.0,0.0,0.0,0.0,0.0,0.0,0.0,0.0,0.0,0.0,0.0,0.0,0.0,0.0,0.0,0.0,0.0,0.0,0.0,0.0,0.0,0.0,0.0,0.0,0.0,0.0,0.0,0.0,0.0,0.0,0.0,0.0,0.0,0.0,0.0,0.0,0.0,0.0,0.0,0.0,0.0,0.0,0.0,0.0,0.0,0.0,0.0,0.0,0.0,0.0,0.0,0.0,0.0,0.0,0.0,0.0,0.0,0.0,0.0,0.0,0.0,0.0,0.0,0.0,0.0,0.0,0.0,0.0,0.0,0.0,0.0,0.0,0.0,0.0,0.0,0.0,0.0,0.0,0.0,0.0,0.0,0.0,0.0,0.0,0.0,0.0,0.0,0.0,0.0,0.0,0.0,0.0,0.0,0.0,0.0,0.0,0.0,0.0,0.0,0.0,0.0,0.0,0.0,0.0,0.0,0.0,0.0,0.0,0.0,0.0,0.0,0.0,0.0,0.0,0.0,0.0,0.0,0.0,0.0,0.0,0.0,0.0,0.0,0.0,0.0,0.0,0.0,0.0,0.0,0.0,0.0,0.0,0.0,0.0,0.0,0.0,0.0,0.0,0.0,0.0,0.0,0.0,0.0,0.0,0.0,0.0,0.0,0.0,0.0,0.0,0.0,0.0,0.0,0.0,0.0,0.0,0.0,0.0,0.0,0.0,0.0,0.0,0.0,0.0,0.0,0.0,0.0,0.0,0.0,0.0,0.0,0.0,0.0,0.0,0.0,0.0,0.0,0.0,0.0,0.0,0.0,0.0,0.0,0.0,0.0,0.0,0.0,0.0,0.0,0.0,0.0,0.0,0.0,0.0,0.0,0.0,0.0,0.0,0.0,0.0,0.0,0.0,0.0,0.0,0.0,0.0,0.0,0.0,0.0,0.0,0.0,0.0,0.0,0.0,0.0,0.0,0.0,0.0,0.0,0.0,0.0,0.0,0.0,0.0,0.0,0.0,0.0,0.0,0.0,0.0,0.0,0.0,0.0,0.0,0.0,0.0,0.0,0.0,0.0,0.0,0.0,0.0,0.0,0.0,0.0,0.0,0.0,0.0,0.0,0.0,0.0,0.0,0.0,0.0,0.0,0.0,0.0,0.0,0.0,0.0,0.0,0.0,0.0,0.0,0.0,0.0,0.0,0.0,0.0,0.0,0.0,0.0,0.0,0.0,0.0,0.0,0.0,0.0,0.0,0.0,0.7423,0.0,0.0,0.0,0.0,0.0,0.0,0.0,0.0,0.0,0.0,0.0,0.0,0.0,0.0,0.0,0.0,0.0,0.0,0.0,0.0,0.0,0.0,0.0,0.0,0.0,0.0,0.0,0.0,0.0,0.0,0.0,0.0,0.0,0.0,0.0,0.0,0.0,0.0,0.0,0.0,0.0,0.0,0.0,0.0,0.0,0.0,0.0,0.0,0.0,0.0,0.0,0.0,0.0,0.0,0.0,0.0,0.0,0.0,0.0,0.0,0.0,0.0,0.0,0.0,0.0,0.0,0.0,0.0,0.0,0.0,0.0,0.0,0.0,0.0,0.0,0.0,0.0,0.0,0.0,0.0,0.0,0.0,0.0,0.0,0.0,0.0,0.0,0.0,0.0,0.0,0.0,0.0,0.0,0.0,0.0,0.0,0.0,0.0,0.0,0.0,0.0,0.0,0.0,0.0,0.0,0.0,0.0,0.0,0.0,0.0,0.7987,0.7736,0.7629,0.7596,0.7619,0.0,0.0,0.0,0.0,0.0,0.0,0.0,0.0,0.0,0.0,0.0,0.0,0.0,0.0,0.0,0.0,0.0,0.0,0.0,0.0,0.0,0.0,0.0,0.0,0.0,0.0,0.0,0.0,0.0,0.0,0.0,0.0,0.0,0.0,0.0,0.0,0.0,0.0,0.0,0.0,0.0,0.0,0.0,0.0,0.0,0.0,0.0,0.0,0.0,0.0,0.0,0.0,0.0,0.0,0.0,0.0,0.0,0.0,0.0,0.0,0.0,0.0,0.0,0.0,0.0,0.0,0.0,0.0,0.0,0.0,0.0,0.0,0.0,0.0,0.0,0.0,0.0,0.0,0.0,0.0,0.0,0.0,0.0,0.0,0.0,0.0,0.0,0.0,0.0,0.0,0.0,0.0,0.0,0.0,0.0,0.0,0.0,0.0,0.0,0.0,0.0,0.0,0.0,0.0,0.0,0.0,0.0,0.0,0.0,0.0,0.0,0.0,0.794,0.79,0.7814,0.0,0.0,0.0,0.0,0.0,0.0,0.0,0.0,0.0,0.0,0.0,0.0,0.0,0.0,0.0,0.0,0.0,0.0,0.0,0.0,0.0,0.0,0.0,0.0,0.0,0.0,0.0,0.0,0.0,0.0,0.0,0.0,0.0,0.0,0.0,0.0,0.0,0.0,0.0,0.0,0.0,0.0,0.0,0.0,0.0,0.0,0.0,0.0,0.0,0.0,0.0,0.0,0.0,0.0,0.0,0.0,0.0,0.0,0.0,0.0,0.0,0.0,0.0,0.0,0.0,0.0,0.0,0.0,0.0,0.0,0.0,0.0,0.0,0.0,0.0,0.0,0.0,0.0,0.0,0.0,0.0,0.0,0.0,0.0,0.0,0.0,0.0,0.0,0.0,0.0,0.0,0.0,0.0,0.0,0.0,0.0,0.0,0.0,0.0,0.0,0.0,0.0,0.0,0.0,0.0,0.0,0.0,0.0,0.0,0.0,0.8664,0.8863,0.8698,0.0,0.816,0.0,0.0,0.0,0.0,0.0,0.0,0.0,0.0,0.0,0.0,0.0,0.0,0.0,0.0,0.0,0.0,0.0,0.0,0.0,0.0,0.0,0.0,0.0,0.0,0.0,0.0,0.0,0.0,0.0,0.0,0.0,0.0,0.0,0.0,0.0,0.0,0.0,0.0,0.0,0.0,0.0,0.0,0.0,0.0,0.0,0.0,0.0,0.0,0.0,0.0,0.0,0.0,0.0,0.0,0.0,0.0,0.0,0.0,0.0,0.0,0.0,0.0,0.0,0.0,0.0,0.0,0.0,0.0,0.0,0.0,0.0,0.0,0.0,0.0,0.0,0.0,0.0,0.0,0.0,0.0,0.0,0.0,0.0,0.0,0.0,0.0,0.0,0.0,0.0,0.0,0.0,0.0,0.0,0.0,0.0,0.0,0.0,0.0,0.0,0.0,0.0,0.0,0.0,0.0,0.0,0.0,0.0,0.0,0.0,0.0,0.8935,0.9006,0.8936,0.862,0.0,0.0,0.0,0.0,0.0,0.0,0.0,0.0,0.0,0.0,0.0,0.0,0.0,0.0,0.0,0.0,0.0,0.0,0.0,0.0,0.0,0.0,0.0,0.0,0.0,0.0,0.0,0.0,0.0,0.0,0.0,0.0,0.0,0.0,0.0,0.0,0.0,0.0,0.0,0.0,0.0,0.0,0.0,0.0,0.0,0.0,0.0,0.0,0.0,0.0,0.0,0.0,0.0,0.0,0.0,0.0,0.0,0.0,0.0,0.0,0.0,0.0,0.0,0.0,0.0,0.0,0.0,0.0,0.0,0.0,0.0,0.0,0.0,0.0,0.0,0.0,0.0,0.0,0.0,0.0,0.0,0.0,0.0,0.0,0.0,0.0,0.0,0.0,0.0,0.0,0.0,0.0,0.0,0.0,0.0,0.0,0.0,0.0,0.0,0.0,0.0,0.0,0.0,0.0,0.0,0.0,0.0,0.0,0.0,0.0,0.9388,0.9372,0.9317,0.9267,0.8872,0.8091,0.0,0.0,0.0,0.0,0.0,0.0,0.0,0.0,0.0,0.0,0.0,0.0,0.0,0.0,0.0,0.0,0.0,0.0,0.0,0.0,0.0,0.0,0.0,0.0,0.0,0.0,0.0,0.0,0.0,0.0,0.0,0.0,0.0,0.0,0.0,0.0,0.0,0.0,0.0,0.0,0.0,0.0,0.0,0.0,0.0,0.0,0.0,0.0,0.0,0.0,0.0,0.0,0.0,0.0,0.0,0.0,0.0,0.0,0.0,0.0,0.0,0.0,0.0,0.0,0.0,0.0,0.0,0.0,0.0,0.0,0.0,0.0,0.0,0.0,0.0,0.0,0.0,0.0,0.0,0.0,0.0,0.0,0.0,0.0,0.0,0.0,0.0,0.0,0.0,0.0,0.0,0.0,0.0,0.0,0.0,0.0,0.0,0.0,0.0,0.0,0.0,0.0,0.0,0.0,0.0,0.0,0.0,0.0,0.9962,1.0064,1.0123,1.0125,0.9959,0.9418,0.0,0.0,0.0,0.0,0.0,0.0,0.0,0.0,0.0,0.0,0.0,0.0,0.0,0.0,0.0,0.0,0.0,0.0,0.0,0.0,0.0,0.0,0.0,0.0,0.0,0.0,0.0,0.0,0.0,0.0,0.0,0.0,0.0,0.0,0.0,0.0,0.0,0.0,0.0,0.0,0.0,0.0,0.0,0.0,0.0,0.0,0.0,0.0,0.0,0.0,0.0,0.0,0.0,0.0,0.0,0.0,0.0,0.0,0.0,0.0,0.0,0.0,0.0,0.0,0.0,0.0,0.0,0.0,0.0,0.0,0.0,0.0,0.0,0.0,0.0,0.0,0.0,0.0,0.0,0.0,0.0,0.0,0.0,0.0,0.0,0.0,0.0,0.0,0.0,0.0,0.0,0.0,0.0,0.0,0.0,0.0,0.0,0.0,0.0,0.0,0.0,0.0,0.0,0.0,0.0,0.0,0.0,0.0,0.0,1.002,1.0248,1.039,1.0395,0.9991,0.9476,0.0,0.0,0.0,0.0,0.0,0.0,0.0,0.0,0.0,0.0,0.0,0.0,0.0,0.0,0.0,0.0,0.0,0.0,0.0,0.0,0.0,0.0,0.0,0.0,0.0,0.0,0.0,0.0,0.0,0.0,0.0,0.0,0.0,0.0,0.0,0.0,0.0,0.0,0.0,0.0,0.0,0.0,0.0,0.0,0.0,0.0,0.0,0.0,0.0,0.0,0.0,0.0,0.0,0.0,0.0,0.0,0.0,0.0,0.0,0.0,0.0,0.0,0.0,0.0,0.0,0.0,0.0,0.0,0.0,0.0,0.0,0.0,0.0,0.0,0.0,0.0,0.0,0.0,0.0,0.0,0.0,0.0,0.0,0.0,0.0,0.0,0.0,0.0,0.0,0.0,0.0,0.0,0.0,0.0,0.0,0.0,0.0,0.0,0.0,0.0,0.0,0.0,0.0,0.0,0.0,0.0,0.0,0.0,0.0,1.0455,0.0,1.0686,1.0582,1.0187,0.9627,0.0,0.0,0.0,0.0,0.0,0.0,0.0,0.0,0.0,0.0,0.0,0.0,0.0,0.0,0.0,0.0,0.0,0.0,0.0,0.0,0.0,0.0,0.0,0.0,0.0,0.0,0.0,0.0,0.0,0.0,0.0,0.0,0.0,0.0,0.0,0.0,0.0,0.0,0.0,0.0,0.0,0.0,0.0,0.0,0.0,0.0,0.0,0.0,0.0,0.0,0.0,0.0,0.0,0.0,0.0,0.0,0.0,0.0,0.0,0.0,0.0,0.0,0.0,0.0,0.0,0.0,0.0,0.0,0.0,0.0,0.0,0.0,0.0,0.0,0.0,0.0,0.0,0.0,0.0,0.0,0.0,0.0,0.0,0.0,0.0,0.0,0.0,0.0,0.0,0.0,0.0,0.0,0.0,0.0,0.0,0.0,0.0,0.0,0.0,0.0,0.0,0.0,0.0,0.0,0.0,0.0,0.0,0.0,1.0683,1.1441,1.1283,1.1112,1.0842,1.0608,0.9913,0.0,0.0,0.0,0.0,0.0,0.0,0.0,0.0,0.0,0.0,0.0,0.0,0.0,0.0,0.0,0.0,0.0,0.0,0.0,0.0,0.0,0.0,0.0,0.0,0.0,0.0,0.0,0.0,0.0,0.0,0.0,0.0,0.0,0.0,0.0,0.0,0.0,0.0,0.0,0.0,0.0,0.0,0.0,0.0,0.0,0.0,0.0,0.0,0.0,0.0,0.0,0.0,0.0,0.0,0.0,0.0,0.0,0.0,0.0,0.0,0.0,0.0,0.0,0.0,0.0,0.0,0.0,0.0,0.0,0.0,0.0,0.0,0.0,0.0,0.0,0.0,0.0,0.0,0.0,0.0,0.0,0.0,0.0,0.0,0.0,0.0,0.0,0.0,0.0,0.0,0.0,0.0,0.0,0.0,0.0,0.0,0.0,0.0,0.0,0.0,0.0,0.0,0.0,0.0,0.0,0.0,0.0,0.0,0.0,1.1477,1.163,1.1639,1.1543,1.0942,1.0266,0.0,0.0,0.0,0.0,0.0,0.0,0.0,0.0,0.0,0.0,0.0,0.0,0.0,0.0,0.0,0.0,0.0,0.0,0.0,0.0,0.0,0.0,0.0,0.0,0.0,0.0,0.0,0.0,0.0,0.0,0.0,0.0,0.0,0.0,0.0,0.0,0.0,0.0,0.0,0.0,0.0,0.0,0.0,0.0,0.0,0.0,0.0,0.0,0.0,0.0,0.0,0.0,0.0,0.0,0.0,0.0,0.0,0.0,0.0,0.0,0.0,0.0,0.0,0.0,0.0,0.0,0.0,0.0,0.0,0.0,0.0,0.0,0.0,0.0,0.0,0.0,0.0,0.0,0.0,0.0,0.0,0.0,0.0,0.0,0.0,0.0,0.0,0.0,0.0,0.0,0.0,0.0,0.0,0.0,0.0,0.0,0.0,0.0,0.0,0.0,0.0,0.0,0.0,0.0,0.0,0.0,0.0,0.0,0.0,1.1962,1.2131,1.2168,1.2071,1.1357,1.0599,0.9781,0.0,0.0,0.0,0.0,0.0,0.0,0.0,0.0,0.0,0.0,0.0,0.0,0.0,0.0,0.0,0.0,0.0,0.0,0.0,0.0,0.0,0.0,0.0,0.0,0.0,0.0,0.0,0.0,0.0,0.0,0.0,0.0,0.0,0.0,0.0,0.0,0.0,0.0,0.0,0.0,0.0,0.0,0.0,0.0,0.0,0.0,0.0,0.0,0.0,0.0,0.0,0.0,0.0,0.0,0.0,0.0,0.0,0.0,0.0,0.0,0.0,0.0,0.0,0.0,0.0,0.0,0.0,0.0,0.0,0.0,0.0,0.0,0.0,0.0,0.0,0.0,0.0,0.0,0.0,0.0,0.0,0.0,0.0,0.0,0.0,0.0,0.0,0.0,0.0,0.0,0.0,0.0,0.0,0.0,0.0,0.0,0.0,0.0,0.0,0.0,0.0,0.0,0.0,0.0,0.0,0.0,0.0,0.0,1.2699,1.2778,1.2656,1.2337,1.1842,1.0912,0.0,0.0,0.0,0.0,0.0,0.0,0.0,0.0,0.0,0.0,0.0,0.0,0.0,0.0,0.0,0.0,0.0,0.0,0.0,0.0,0.0,0.0,0.0,0.0,0.0,0.0,0.0,0.0,0.0,0.0,0.0,0.0,0.0,0.0,0.0,0.0,0.0,0.0,0.0,0.0,0.0,0.0,0.0,0.0,0.0,0.0,0.0,0.0,0.0,0.0,0.0,0.0,0.0,0.0,0.0,0.0,0.0,0.0,0.0,0.0,0.0,0.0,0.0,0.0,0.0,0.0,0.0,0.0,0.0,0.0,0.0,0.0,0.0,0.0,0.0,0.0,0.0,0.0,0.0,0.0,0.0,0.0,0.0,0.0,0.0,0.0,0.0,0.0,0.0,0.0,0.0,0.0,0.0,0.0,0.0,0.0,0.0,0.0,0.0,0.0,0.0,0.0,0.0,0.0,0.0,0.0,0.0,0.0,0.0,1.2942,1.3523,1.3423,1.2614,1.24,1.1672,0.0,0.0,0.0,0.0,0.0,0.0,0.0,0.0,0.0,0.0,0.0,0.0,0.0,0.0,0.0,0.0,0.0,0.0,0.0,0.0,0.0,0.0,0.0,0.0,0.0,0.0,0.0,0.0,0.0,0.0,0.0,0.0,0.0,0.0,0.0,0.0,0.0,0.0,0.0,0.0,0.0,0.0,0.0,0.0,0.0,0.0,0.0,0.0,0.0,0.0,0.0,0.0,0.0,0.0,0.0,0.0,0.0,0.0,0.0,0.0,0.0,0.0,0.0,0.0,0.0,0.0,0.0,0.0,0.0,0.0,0.0,0.0,0.0,0.0,0.0,0.0,0.0,0.0,0.0,0.0,0.0,0.0,0.0,0.0,0.0,0.0,0.0,0.0,0.0,0.0,0.0,0.0,0.0,0.0,0.0,0.0,0.0,0.0,0.0,0.0,0.0,0.0,0.0,0.0,0.0,0.0,0.0,0.0,1.2905,1.3505,1.3964,1.3944,1.3399,1.2987,1.2217,0.0,0.0,0.0,0.0,0.0,0.0,0.0,0.0,0.0,0.0,0.0,0.0,0.0,0.0,0.0,0.0,0.0,0.0,0.0,0.0,0.0,0.0,0.0,0.0,0.0,0.0,0.0,0.0,0.0,0.0,0.0,0.0,0.0,0.0,0.0,0.0,0.0,0.0,0.0,0.0,0.0,0.0,0.0,0.0,0.0,0.0,0.0,0.0,0.0,0.0,0.0,0.0,0.0,0.0,0.0,0.0,0.0,0.0,0.0,0.0,0.0,0.0,0.0,0.0,0.0,0.0,0.0,0.0,0.0,0.0,0.0,0.0,0.0,0.0,0.0,0.0,0.0,0.0,0.0,0.0,0.0,0.0,0.0,0.0,0.0,0.0,0.0,0.0,0.0,0.0,0.0,0.0,0.0,0.0,0.0,0.0,0.0,0.0,0.0,0.0,0.0,0.0,0.0,0.0,0.0,0.0,0.0,0.0,1.3208,1.4142,1.4301,1.4347,1.4302,1.3489,1.2621,0.0,0.0,0.0,0.0,0.0,0.0,0.0,0.0,0.0,0.0,0.0,0.0,0.0,0.0,0.0,0.0,0.0,0.0,0.0,0.0,0.0,0.0,0.0,0.0,0.0,0.0,0.0,0.0,0.0,0.0,0.0,0.0,0.0,0.0,0.0,0.0,0.0,0.0,0.0,0.0,0.0,0.0,0.0,0.0,0.0,0.0,0.0,0.0,0.0,0.0,0.0,0.0,0.0,0.0,0.0,0.0,0.0,0.0,0.0,0.0,0.0,0.0,0.0,0.0,0.0,0.0,0.0,0.0,0.0,0.0,0.0,0.0,0.0,0.0,0.0,0.0,0.0,0.0,0.0,0.0,0.0,0.0,0.0,0.0,0.0,0.0,0.0,0.0,0.0,0.0,0.0,0.0,0.0,0.0,0.0,0.0,0.0,0.0,0.0,0.0,0.0,0.0,0.0,0.0,0.0,0.0,0.0,0.0,1.3644,1.4195,1.5025,1.5129,1.4484,1.3765,1.3068,0.0,0.0,0.0,0.0,0.0,0.0,0.0,0.0,0.0,0.0,0.0,0.0,0.0,0.0,0.0,0.0,0.0,0.0,0.0,0.0,0.0,0.0,0.0,0.0,0.0,0.0,0.0,0.0,0.0,0.0,0.0,0.0,0.0,0.0,0.0,0.0,0.0,0.0,0.0,0.0,0.0,0.0,0.0,0.0,0.0,0.0,0.0,0.0,0.7928,0.0,0.0,0.0,0.0,0.0,0.0,0.0,0.0,0.0,0.0,0.0,0.0,0.0,0.0,0.0,0.0,0.0,0.0,0.0,0.0,0.0,0.0,0.0,0.0,0.0,0.0,0.0,0.0,0.0,0.0,0.0,0.0,0.0,0.0,0.0,0.0,0.0,0.0,0.0,0.0,0.0,0.0,0.0,0.0,0.0,0.0,0.0,0.0,0.0,0.0,0.0,0.0,0.0,0.0,0.0,0.0,0.0,0.0,0.0,1.4202,1.4955,1.5368,1.5503,1.5356,1.4587,1.3766,0.0,0.0,0.0,0.0,0.0,0.0,0.0,0.0,0.0,0.0,0.0,0.0,0.0,0.0,0.0,0.0,0.0,0.0,0.0,0.0,0.0,0.0,0.0,0.0,0.0,0.0,0.0,0.0,0.0,0.0,0.0,0.0,0.0,0.0,0.0,0.0,0.0,0.0,0.0,0.0,0.0,0.0,0.0,0.0,0.0,0.0,0.0,0.0,0.0,0.0,0.0,0.0,0.0,0.0,0.0,0.0,0.0,0.0,0.0,0.0,0.0,0.0,0.0,0.0,0.0,0.0,0.0,0.0,0.0,0.0,0.0,0.0,0.0,0.0,0.0,0.0,0.0,0.0,0.0,0.0,0.0,0.0,0.0,0.0,0.0,0.0,0.0,0.0,0.0,0.0,0.0,0.0,0.0,0.0,0.0,0.0,0.0,0.0,0.0,0.0,0.0,0.0,0.0,0.0,0.0,0.0,0.0,1.3854,1.472,1.5741,1.5613,1.5784,1.6301,1.5459,1.457,1.363,0.0,0.0,0.0,0.0,0.0,0.0,0.0,0.0,0.0,0.0,0.0,0.0,0.0,0.0,0.0,0.0,0.0,0.0,0.0,0.0,0.0,0.0,0.0,0.0,0.0,0.0,0.0,0.0,0.0,0.0,0.0,0.0,0.0,0.0,0.0,0.0,0.0,0.0,0.8898,0.94,0.0,0.0,0.0,0.0,0.0,0.0,0.0,0.0,0.9112,0.0,0.0,0.0,0.0,0.0,0.0,0.0,0.0,0.0,0.0,0.0,0.0,0.0,0.0,0.0,0.0,0.0,0.0,0.0,0.0,0.0,0.0,0.0,0.0,0.0,0.0,0.0,0.0,0.0,0.0,0.0,0.0,0.0,0.0,0.0,0.0,0.0,0.0,0.0,0.0,0.0,0.0,0.0,0.0,0.0,0.0,0.0,0.0,0.0,0.0,0.0,0.0,0.0,0.0,0.0,0.0,1.352,1.4148,1.487,1.5785,1.6181,1.6303,1.6061,1.5716,1.5227,1.4392,0.0,0.0,0.0,0.0,0.0,0.0,0.0,0.0,0.0,0.0,0.0,0.0,0.0,0.0,0.0,0.0,0.0,0.0,0.0,0.0,0.0,0.0,0.0,0.0,0.0,0.0,0.0,0.0,0.0,0.0,0.0,0.0,0.0,0.0,0.0,0.0,0.0,0.0,0.0,1.0194,1.0528,0.0,0.0,0.0,0.0,0.0,0.0,0.0,0.0,0.9151,0.0,0.0,0.0,0.0,0.0,0.0,0.0,0.0,0.0,0.0,0.0,0.0,0.0,0.0,0.0,0.0,0.0,0.0,0.0,0.0,0.0,0.0,0.0,0.0,0.0,0.0,0.0,0.0,0.0,0.0,0.0,0.0,0.0,0.0,0.0,0.0,0.0,0.0,0.0,0.0,0.0,0.0,0.0,0.0,0.0,0.0,0.0,0.0,0.0,0.0,0.0,0.0,0.0,0.0,0.0,1.3573,1.4376,1.5156,1.5994,1.64,1.648,1.6153,1.5957,1.547,0.0,0.0,0.0,0.0,0.0,0.0,0.0,0.0,0.0,0.0,0.0,0.0,0.0,0.0,0.0,0.0,0.0,0.0,0.0,0.0,0.0,0.0,0.0,0.0,0.0,0.0,0.0,0.0,0.0,0.0,0.0,0.0,0.0,0.0,0.0,0.0,0.0,0.0,0.0,0.0,1.0728,1.1169,1.161,0.0,0.0,0.0,0.0,0.0,0.0,1.0522,1.0501,0.0,0.0,0.0,0.0,0.0,0.0,0.0,0.0,0.0,0.0,0.0,0.0,0.0,0.0,0.0,0.0,0.0,0.0,0.0,0.0,0.0,0.0,0.0,0.0,0.0,0.0,0.0,0.0,0.0,0.0,0.0,0.0,0.0,0.0,0.0,0.0,0.0,0.0,0.0,0.0,0.0,0.0,0.0,0.0,0.0,0.0,0.0,0.0,0.0,0.0,0.0,0.0,0.0,0.0,0.0,1.368,1.4579,1.5427,1.6197,1.6494,1.6558,1.6374,1.6127,1.5629,0.0,0.0,0.0,0.0,0.0,0.0,0.0,0.0,0.0,0.0,0.0,0.0,0.0,0.0,0.0,0.0,0.0,0.0,0.0,0.0,0.0,0.0,0.0,0.0,0.0,0.0,0.0,0.0,0.0,0.0,0.0,0.0,0.0,0.0,0.0,0.0,0.0,0.0,0.0,0.0,0.0,1.1744,1.2385,1.2024,0.0,0.0,0.0,0.0,1.169,1.1837,0.0,0.0,0.0,0.0,0.0,0.0,0.0,0.0,0.0,0.0,0.0,0.0,0.0,0.0,0.0,0.0,0.0,0.0,0.0,0.0,0.0,0.0,0.0,0.0,0.0,0.0,0.0,0.0,0.0,0.0,0.0,0.0,0.0,0.0,0.0,0.0,0.0,0.0,0.0,0.0,0.0,0.0,0.0,0.0,0.0,0.0,0.0,0.0,0.0,0.0,0.0,0.0,0.0,0.0,0.0,0.0,1.4015,1.4848,1.555,1.6183,1.6697,1.6849,1.6654,1.6212,1.5723,0.0,0.0,0.0,0.0,0.0,0.0,0.0,0.0,0.0,0.0,0.0,0.0,0.0,0.0,0.0,0.0,0.0,0.0,0.0,0.0,0.0,0.0,0.0,0.0,0.0,0.0,0.0,0.0,0.0,0.0,0.0,0.0,0.0,0.0,0.0,0.0,0.0,0.0,0.0,0.0,0.0,1.2131,1.2986,1.2812,1.2636,0.0,0.0,1.2636,1.2636,1.2435,0.0,0.0,0.0,0.0,0.0,0.0,0.0,0.0,0.0,0.0,0.0,0.0,0.0,0.0,0.0,0.0,0.0,0.0,0.0,0.0,0.0,0.0,0.0,0.0,0.0,0.0,0.0,0.0,0.0,0.0,0.0,0.0,0.0,0.0,0.0,0.0,0.0,0.0,0.0,0.0,0.0,0.0,0.0,0.0,0.0,0.0,0.0,0.0,0.0,0.0,0.0,0.0,0.0,0.0,0.0,1.297,1.4294,1.4949,1.5686,1.6419,1.6791,1.6771,1.63,1.6085,1.5512,0.0,0.0,0.0,0.0,0.0,0.0,0.0,0.0,0.0,0.0,0.0,0.0,0.0,0.0,0.0,0.0,0.0,0.0,0.0,0.0,0.0,0.0,0.0,0.0,0.0,0.0,0.0,0.0,0.0,0.0,0.0,0.0,0.0,0.0,0.0,0.0,0.0,0.0,0.0,0.0,0.0,0.0,1.3587,1.3734,0.0,0.0,0.0,1.3748,1.3748,0.0,0.0,0.0,0.0,0.0,0.0,0.0,0.0,0.0,0.0,0.0,0.0,0.0,0.0,0.0,0.0,0.0,0.0,0.0,0.0,0.0,0.0,0.0,0.0,0.0,0.0,0.0,0.0,0.0,0.0,0.0,0.0,0.0,0.0,0.0,0.0,0.0,0.0,0.0,0.0,0.0,0.0,0.0,0.0,0.0,0.0,0.0,0.0,0.0,0.0,0.0,0.0,0.0,0.0,0.0,0.0,0.0,1.4503,1.5168,1.5868,1.6655,1.6979,1.6817,1.6271,1.6127,0.0,0.0,0.0,0.0,0.0,0.0,0.0,0.0,0.0,0.0,0.0,0.0,0.0,0.0,0.0,0.0,0.0,0.0,0.0,0.0,0.0,0.0,0.0,0.0,0.0,0.0,0.0,0.6613,0.0,0.0,0.0,0.0,0.0,0.0,0.0,0.0,0.0,0.0,0.0,0.0,0.0,0.0,1.3226,1.4068,1.4442,1.4629,0.0,0.0,1.4736,1.4692,1.4429,1.3988,0.0,0.0,0.0,0.0,0.0,0.0,0.0,0.0,0.0,0.0,0.0,0.0,0.0,0.0,0.0,0.0,0.0,0.0,0.0,0.0,0.0,0.0,0.0,0.0,0.0,0.0,0.0,0.0,0.0,0.0,0.0,0.0,0.0,0.0,0.0,0.0,0.0,0.0,0.0,0.0,0.0,0.0,0.0,0.0,0.0,0.0,0.0,0.0,0.0,0.0,0.0,0.0,0.0,0.0,0.0,1.4671,1.5531,1.629,1.6951,1.72,1.7171,1.6919,1.6523,1.5725,0.0,0.0,0.0,0.0,0.0,0.0,0.0,0.0,0.0,0.0,0.0,0.0,0.0,0.0,0.0,0.0,0.0,0.0,0.0,0.0,0.0,0.0,0.0,0.0,0.0,0.0,0.0,0.0,0.0,0.0,0.0,0.0,0.0,0.0,0.0,0.0,0.0,0.0,0.0,0.0,0.0,1.3494,1.4376,1.475,1.4981,0.0,0.0,1.5337,1.5337,1.4856,1.4239,1.3666,0.0,0.0,0.0,0.0,0.0,0.0,0.0,0.0,0.0,0.0,0.0,0.0,0.0,0.0,0.0,0.0,0.0,0.0,0.0,0.0,0.0,0.0,0.0,0.0,0.0,0.0,0.0,0.0,0.0,0.0,0.0,0.0,0.0,0.0,0.0,0.0,0.0,0.0,0.0,0.0,0.0,0.0,0.0,0.0,0.0,0.0,0.0,0.0,0.0,0.0,0.0,0.0,0.0,1.3586,1.4894,1.5618,1.638,1.7124,1.7279,1.7171,1.6786,1.648,1.5592,0.0,0.0,0.0,0.0,0.0,0.0,0.0,0.0,0.0,0.0,0.0,0.0,0.0,0.0,0.0,0.0,0.0,0.0,0.0,0.0,0.0,0.0,0.0,0.0,0.0,0.0,0.0,0.0,0.7562,0.7802,0.7899,0.0,0.0,0.0,0.0,0.0,0.0,0.0,0.0,0.0,0.0,1.3746,1.4669,1.5204,0.0,0.0,1.5545,1.5658,1.5671,1.5177,1.4589,1.4015,1.2986,0.0,0.0,0.0,0.0,0.0,0.0,0.0,0.0,0.0,0.0,0.0,0.0,0.0,0.0,0.0,0.0,0.0,0.0,0.0,0.0,0.0,0.0,0.0,0.0,0.0,0.0,0.0,0.0,0.0,0.0,0.0,0.0,0.0,0.0,0.0,0.0,0.0,0.0,0.0,0.0,0.0,0.0,0.0,0.0,0.0,0.0,0.0,0.0,0.0,0.0,0.0,0.0,1.3777,1.5159,1.5792,1.6516,1.7264,1.7279,1.7125,1.6786,1.6507,1.5638,0.0,0.0,0.0,0.0,0.0,0.0,0.0,0.0,0.0,0.0,0.0,0.0,0.0,0.0,0.0,0.0,0.0,0.0,0.0,0.0,0.0,0.0,0.0,0.0,0.0,0.0,0.0,0.0,0.7979,0.8165,0.8165,0.0,0.0,0.0,0.0,0.0,0.0,0.0,0.0,0.0,0.0,1.4119,1.4914,1.5458,1.5832,1.5832,1.5832,1.5832,1.5832,1.5337,1.4834,1.4295,0.0,0.0,0.0,0.0,0.0,0.0,0.0,0.0,0.0,0.0,0.0,0.0,0.0,0.0,0.0,0.0,0.0,0.0,0.0,0.0,0.0,0.0,0.0,0.0,0.0,0.0,0.0,0.0,0.0,0.0,1.1092,0.0,0.0,0.0,0.0,0.0,0.0,0.0,0.0,0.0,0.0,0.0,0.0,0.0,0.0,0.0,0.0,0.0,0.0,0.0,0.0,0.0,0.0,1.4136,1.5382,1.6052,1.6682,1.7264,1.7279,1.7217,1.6963,1.6718,1.6044,1.4796,0.0,0.0,0.0,0.0,0.0,0.0,0.0,0.0,0.0,0.0,0.0,0.0,0.0,0.0,0.0,0.0,0.0,0.0,0.0,0.0,0.0,0.0,0.0,0.0,0.0,0.0,0.8348,0.8617,0.8778,0.0,0.0,0.0,0.0,0.0,0.0,0.0,0.0,0.0,0.0,1.3761,1.4616,1.4968,1.5458,1.5832,1.5832,1.5832,1.5832,1.5832,1.5351,1.4856,0.0,0.0,0.0,0.0,0.0,0.0,0.0,0.0,0.0,0.0,0.0,0.0,0.0,0.0,0.0,0.0,0.0,0.0,0.0,0.0,0.0,0.0,0.0,0.0,0.0,0.0,0.0,1.2819,1.2526,0.0,0.0,0.0,0.0,0.0,0.0,0.0,0.0,0.0,0.0,0.0,1.5281,1.5083,0.0,0.0,0.0,0.0,0.0,0.0,0.0,0.0,0.0,0.0,0.0,0.0,1.4136,1.5352,1.6052,1.6682,1.7264,1.7279,1.7171,1.6831,1.6893,1.6384,1.5181,0.0,0.0,0.0,0.0,0.0,0.0,0.0,0.0,0.0,0.0,0.0,0.0,0.0,0.0,0.0,0.0,0.0,0.0,0.0,0.0,0.0,0.0,0.0,0.0,0.0,0.8387,0.0,0.0,0.0,0.0,0.0,0.0,0.0,0.0,0.0,0.0,0.0,1.1824,1.2906,1.3895,1.4696,1.519,1.5578,1.5832,0.0,0.0,0.0,0.0,0.0,0.0,0.0,0.0,0.0,0.0,0.0,0.0,0.0,0.0,1.2652,1.1864,1.1717,1.1717,1.1717,0.0,0.0,0.0,0.0,0.0,0.0,0.0,0.0,0.0,0.0,0.0,0.0,0.0,0.0,1.3951,0.0,1.3623,0.0,0.0,0.0,0.0,0.0,0.0,0.0,0.0,1.5497,1.6145,1.6676,1.6556,1.6487,0.0,1.5563,1.479,0.0,0.0,0.0,0.0,0.0,0.0,0.0,0.0,1.4414,1.557,1.6257,1.6799,1.725,1.7279,1.711,1.6698,1.662,1.6157,1.5201,1.4381,1.3645,0.0,0.0,0.0,0.0,0.0,0.0,0.0,0.0,0.0,0.0,0.0,0.0,0.0,0.0,0.0,0.0,0.0,0.0,0.0,0.0,0.0,0.0,0.0,0.907,0.0,0.0,0.0,0.0,0.0,0.0,0.0,0.0,0.0,1.0881,1.1497,1.2291,1.3373,1.4188,1.4901,1.5475,0.0,0.0,0.0,0.0,0.0,0.0,0.0,1.5337,1.515,1.487,1.4683,1.4696,1.4616,1.4576,1.4669,0.0,0.0,1.2973,1.2772,1.2772,1.2734,1.2734,1.2761,1.2906,1.2919,1.2919,0.0,0.0,0.0,0.0,0.0,0.0,0.0,0.0,1.544,1.525,0.0,1.4885,0.0,0.0,0.0,0.0,0.0,1.4324,0.0,0.0,1.6545,1.7115,1.7689,1.778,1.7852,1.7776,1.6891,1.6243,1.5833,1.4033,0.0,0.0,0.0,0.0,0.0,0.0,1.4995,1.5891,1.6521,1.7004,1.7264,1.7311,1.7095,1.6683,1.6,1.5449,1.5022,1.478,1.44,1.3938,1.3176,0.0,0.0,0.0,0.0,0.0,0.0,0.0,0.0,0.0,0.0,0.0,0.0,0.0,0.0,0.0,0.0,0.0,0.0,0.0,0.0,1.0038,0.0,0.0,0.0,0.0,0.0,0.0,0.0,0.0,0.0,0.0,1.1559,1.2275,1.3171,1.4017,0.0,0.0,0.0,0.0,1.6224,1.6224,1.6224,1.6116,1.5832,1.5591,1.5418,1.5404,0.0,0.0,1.5725,1.5591,1.5471,1.5765,1.5337,1.4723,1.3826,1.3653,1.364,1.364,1.364,1.3746,1.4028,1.4055,1.411,1.8994,0.0,0.0,0.0,0.0,1.6492,1.6579,1.6739,1.6739,1.6432,1.6008,1.6134,0.0,0.0,0.0,0.0,0.0,0.0,1.5824,1.7067,1.7508,1.8241,1.9225,1.8903,1.8722,1.8707,1.7841,1.7121,1.6609,1.5846,1.4819,1.3579,0.0,0.0,0.0,0.0,1.5133,1.5906,1.658,1.7004,1.7279,1.7106,1.6847,1.6503,1.5905,1.556,1.5507,1.54,1.503,1.4426,1.4184,0.0,0.0,0.0,0.0,0.0,0.0,0.0,0.0,0.0,0.0,0.0,0.0,0.0,0.0,0.0,0.0,0.0,0.0,0.0,1.0419,1.0533,1.0507,0.0,0.0,0.0,0.0,0.0,0.0,0.0,0.0,0.0,1.3407,1.3687,1.4116,0.0,0.0,1.5929,1.6327,1.6438,1.6494,1.6494,1.6494,0.0,0.0,1.6001,1.59,1.5712,1.5631,1.5645,1.5805,1.5718,1.5738,1.5771,1.5698,1.5431,1.5003,1.4723,1.4589,1.4589,1.4589,1.4603,1.4683,1.4754,1.4754,2.0881,1.9008,1.8306,1.7974,1.7856,1.7856,1.7974,1.8101,1.8101,1.7735,1.7182,1.737,1.6905,1.5955,1.6,0.0,0.0,0.0,1.6743,1.7871,1.8326,1.8993,1.9722,1.948,1.934,1.9275,1.8548,1.7867,1.727,1.6916,1.6126,1.4981,0.0,0.0,1.475,1.5248,1.5833,1.6462,1.6857,1.7194,1.7516,1.696,1.6564,1.6252,1.5686,1.5377,1.5479,1.5396,1.5173,1.4764,1.4638,1.4187,0.0,0.0,0.0,0.0,0.0,0.0,0.0,0.0,0.0,0.0,0.0,0.9753,0.0,0.0,0.0,0.0,1.1165,1.1522,1.1396,1.1459,0.0,0.0,0.0,0.0,0.0,0.0,0.0,1.2619,1.3263,1.3938,1.4621,1.5076,1.5419,1.5569,1.5889,1.6239,1.6687,0.0,1.673,1.6777,1.673,1.6683,1.64,1.6353,1.6258,1.5974,1.5973,1.6005,1.6005,1.6005,1.6005,1.5992,1.5864,1.5731,1.5591,1.5418,1.5257,1.515,1.5182,1.5209,1.5284,1.5297,1.5311,2.2359,2.1672,2.0486,1.9769,1.9433,1.9433,1.9418,1.9389,1.9389,1.9023,1.8443,1.851,1.8054,1.7098,1.6822,0.0,1.7099,1.7291,1.7654,1.8312,1.891,1.9361,1.9608,1.9692,1.9724,1.9672,1.9118,1.8496,1.7852,1.7498,1.7077,1.6492,1.5862,1.5673,1.5994,1.6287,1.6755,1.7293,1.7369,1.7472,1.7677,1.6784,1.6195,1.5883,1.5288,1.4993,1.5002,1.4999,1.5032,1.4999,1.4754,1.46,1.4392,0.0,0.0,0.0,0.0,0.0,0.0,0.0,0.0,0.0,0.0,0.0,0.0,0.0,0.0,0.0,1.2244,0.0,1.2555,1.2541,0.0,0.0,0.0,1.2419,1.2186,1.2716,1.3228,1.3609,0.0,0.0,1.5455,1.6301,1.6735,1.6352,1.62,1.6405,1.6936,1.7026,1.7026,1.7026,1.7026,1.6932,1.6683,1.6588,1.6494,1.6272,1.6251,1.6241,1.6254,1.6206,1.6268,1.6206,1.6005,1.5818,1.5818,1.5792,1.5752,1.5471,1.5431,1.5511,1.5725,1.5778,1.5778,2.3208,2.2374,2.2067,2.1481,2.075,2.075,2.0603,2.0384,2.0384,2.0018,1.9456,1.936,1.8859,1.8115,1.7658,1.7611,1.7926,1.7743,1.8159,1.894,1.9104,1.9466,1.9964,1.9797,1.9724,1.9672,1.9354,1.8833,1.8203,1.8101,1.7735,1.7121,1.6945,1.6799,1.6697,1.6945,1.7296,1.7644,1.7658,1.7369,1.6771,1.6009,1.5397,1.4842,1.4735,1.4544,1.4304,1.4747,1.5032,1.5028,1.5129,1.5003,1.458,1.3988,0.0,0.0,0.0,0.0,0.0,0.0,0.0,0.0,0.0,1.1266,1.1747,0.0,1.2286,0.0,1.2618,1.2765,1.2862,1.2638,0.0,0.0,1.2848,1.3067,1.3477,1.3653,1.4062,1.4842,1.5133,1.5613,1.6463,1.6756,1.6945,1.704,1.7037,1.7066,1.7232,1.7246,1.7246,1.7246,1.7246,1.7153,1.6918,1.673,1.6588,1.6541,1.6374,1.6239,1.6239,1.6034,1.5939,1.5925,1.5885,1.5832,1.5832,1.5832,1.5805,1.5738,1.5678,1.5738,1.5818,1.5832,1.5832,2.3457,2.2842,2.2842,2.2535,2.2037,2.1759,2.1452,2.1159,2.1159,2.0794,2.0204,1.9784,1.9334,1.892,1.8408,1.8342,1.8592,1.8395,1.8611,1.925,1.9265,1.9405,1.9724,1.9583,1.9532,1.9532,1.9376,1.8935,1.8335,1.8306,1.7969,1.7293,1.7279,1.7384,1.7548,1.753,1.7765,1.8247,1.7969,1.734,1.6433,1.576,1.519,1.4744,1.447,1.4302,1.427,1.4599,1.4858,1.498,1.5254,1.5255,1.4878,1.4506,1.4101,0.0,0.0,0.0,0.0,0.0,0.0,0.0,0.0,0.0,0.0,0.0,1.3316,1.3316,1.3561,1.3777,1.3852,1.3657,1.3593,1.3785,1.3726,1.3799,1.4165,1.4326,1.4677,1.5309,1.5672,1.6096,1.6815,1.702,1.7121,1.7264,1.7279,1.7279,1.7279,1.7279,1.7279,1.7279,1.7279,1.7279,1.7167,1.6918,1.6791,1.6791,1.6541,1.6366,1.6224,1.6082,1.5927,1.5832,1.5832,1.5832,1.5832,1.5832,1.5832,1.5832,1.5832,1.5832,1.5832,1.5832,1.5832,2.3413,2.3106,2.3106,2.3106,2.3062,2.2491,2.2052,2.1759,2.1715,2.1335,2.0662,2.0027,1.9657,1.9517,1.9029,1.8979,1.9203,1.9,1.9008,1.9272,1.9272,1.9272,1.9272,1.9272,1.9272,1.9272,1.9228,1.8891,1.8306,1.8262,1.794,1.7308,1.7279,1.7662,1.8262,1.8013,1.816,1.8701,1.8043,1.7252,1.633,1.5657,1.5146,1.4904,1.433,1.4239,1.4642,1.4661,1.4814,1.5161,1.5438,1.5527,1.5399,1.4946,1.4639,0.0,1.3847,0.0,0.0,0.0,0.0,0.0,0.0,0.0,0.0,1.4029,1.4377,1.4439,1.4762,1.4975,1.4975,1.4858,1.4808,1.4853,1.4673,1.4585,1.4629,1.4798,1.5104,1.5511,1.6038,1.6551,1.6932,1.7165,1.7279,1.7279,1.7279,1.7279,1.7279,1.7279,1.7279,1.7279,1.7279,1.7279,1.7293,1.7153,1.7012,1.7012,1.6824,1.6588,1.6366,1.6272,1.6116,1.5927,1.5832,1.5832,1.5832,1.5832,1.5832,1.5832,1.5832,1.5832,1.5832,1.5832,1.5832,2.3398,2.3106,2.3106,2.3106,2.3076,2.2696,2.2374,2.2067,2.1818,2.1335,2.072,2.0586,2.0229,1.9752,1.9626,1.9479,1.9287,1.9236,1.9213,1.9272,1.9272,1.9272,1.9272,1.9272,1.9272,1.9257,1.9008,1.8686,1.8306,1.8043,1.7721,1.7293,1.7279,1.7662,1.8262,0.0,0.0,0.0,1.7548,1.6711,1.6009,1.5116,1.4596,1.4454,1.4222,0.0,1.5035,1.5359,1.5713,1.6172,1.636,0.0,0.0,0.0,0.0,0.0,0.0,0.0,0.0,0.0,0.0,0.0,1.6392,1.6029,1.475,1.5002,1.5394,1.5707,1.5637,1.5456,1.5303,1.498,1.4913,1.5168,1.4958,1.4915,1.5163,1.5265,1.5555,1.6126,1.6345,1.6639,1.7135,1.7296,1.7279,1.7279,1.7279,1.7279,1.7279,1.7279,1.7279,1.7279,1.7279,1.7279,1.7279,1.7246,1.7246,1.72,1.7059,1.6932,1.6791,1.6461,1.6224,1.6116,1.5974,1.5832,1.5832,1.5832,1.5832,1.5832,1.5832,1.5832,1.5832,1.5832,1.5832,2.3252,0.0,2.3106,2.3018,0.0,2.2535,2.2228,2.1935,2.1774,2.1423,2.0955,2.0794,2.0457,1.9989,1.9881,1.9632,1.9272,1.9272,1.9272,1.9272,1.9272,1.9272,1.9272,1.9272,1.9272,1.9257,1.895,1.8613,1.8291,1.7969,1.7647,1.7293,1.7279,1.7574,1.8057,1.8057,1.8145,1.8306,1.7387,1.6668,1.6126,1.5043,1.462,1.4785,1.4332,0.0,0.0,0.0,0.0,0.0,0.0,0.0,0.0,0.0,0.0,1.6612,1.637,1.6413,1.6812,1.6925,1.7123,1.7516,1.7825,1.7514,1.6316,1.6419,1.6704,1.7103,1.6957,1.6865,1.695,1.6444,1.6077,1.6124,1.5632,1.5389,1.5584,1.5484,1.5745,1.6433,1.6507,1.6608,1.7252,1.7279,1.7279,1.7279,1.7279,1.7279,1.7279,1.7279,1.7279,1.7279,1.7279,1.7279,1.7279,1.7279,1.7279,1.7279,1.72,1.7106,1.7026,1.6791,1.6508,1.6272,1.6069,1.5974,1.5832,1.5832,1.5832,1.5832,1.5832,1.5832,1.5832,1.5832,1.5832,2.3106,2.3106,2.3106,2.2915,2.2608,2.2315,2.1964,2.1613,0.0,0.0,0.0,2.0925,2.0589,2.0168,1.9959,1.9691,1.9286,1.9272,1.9272,1.9272,1.9272,1.9272,1.9272,1.9272,1.9272,1.9257,1.8891,1.8569,1.8291,1.7911,1.7589,1.7308,1.7279,1.7439,1.7746,1.7808,1.794,1.816,1.7299,1.6653,1.6272,1.5142,1.4739,1.5219,1.4552,1.469,1.5735,1.5885,1.616,1.6696,1.6857,1.6921,1.6921,1.6999,1.7038,1.7038,1.7019,1.7282,1.7923,1.7954,1.8249,1.9031,1.9182,1.8891,1.7939,1.7843,1.8,1.8372,1.8267,1.8233,1.854,1.7884,1.7291,1.7052,1.6338,1.5913,1.5978,1.5716,1.5848,1.6609,1.6507,1.6506,1.7047,1.7194,1.7252,1.7252,1.7235,1.7296,1.7267,1.7282,1.7279,1.7279,1.7279,1.7279,1.7279,1.7279,1.7279,1.7279,1.7279,1.7246,1.712,1.7026,1.6838,1.6461,1.6319,1.6177,1.5927,1.5879,1.5879,1.5832,1.5832,1.5832,1.5832,1.5832,1.5832,2.3106,2.3106,2.3106,2.2915,2.2593,2.2301,2.1832,2.1291,2.1276,2.1262,2.1203,2.1159,2.0808,2.0183,2.0139,1.9842,1.9286,1.9272,1.9272,1.9272,1.9272,1.9272,1.9272,1.9272,1.9272,1.9228,1.8657,1.835,1.8247,1.7644,1.7323,1.7293,1.7279,1.7439,1.7779,1.7808,1.7838,1.7867,1.693,1.6287,1.5965,1.4999,1.4635,1.4825,1.4662,1.5067,1.614,1.6537,1.6999,1.7509,1.7731,1.7832,1.7832,1.8164,1.8325,1.8344,1.8676,1.8948,1.9065,1.936,1.9868,2.0543,2.0924,2.0464,1.896,1.8793,1.8941,1.9249,1.8956,1.8641,1.8519,1.8089,1.7613,1.7177,1.6841,1.6579,1.6345,1.6038,1.6009,1.6492,1.617,1.6126,1.6521,1.6815,1.6961,1.7005,1.7091,1.7208,1.7018,1.7165,1.7311,1.7279,1.7279,1.7279,1.7279,1.7279,1.7279,1.7279,1.7279,1.7279,1.7246,1.7106,1.6979,1.6885,1.6697,1.6447,1.6224,1.613,1.6069,1.5927,1.5879,1.5879,1.5879,1.5879,1.5832,2.3106,2.3106,2.3106,2.2828,2.2345,2.1862,2.1481,2.1218,2.1203,2.1203,2.1189,2.1028,2.0676,2.0183,2.0047,1.9725,1.9272,1.9272,1.9272,1.9272,1.9272,1.9272,1.9272,1.9272,1.9272,1.9242,1.8803,1.8482,1.8277,1.7823,1.7454,1.7293,1.7279,1.7399,1.7545,1.7545,1.756,1.7483,1.6769,1.6301,1.614,1.5218,1.4924,1.5343,1.5018,1.5356,1.642,1.6633,1.7105,1.7888,1.8116,1.8372,1.8691,1.8887,1.8984,1.8984,1.918,1.9492,1.9999,2.0605,2.1112,2.1421,2.1723,2.1507,2.0588,2.0098,1.9925,2.0153,1.9774,1.9512,1.9478,1.8842,1.8242,1.765,1.7245,1.6891,1.6654,1.6389,1.636,1.674,1.6448,1.6287,1.6639,1.6653,1.6639,1.6653,1.674,1.674,1.6668,1.6711,1.6872,1.7033,1.7208,1.7279,1.7279,1.7279,1.7279,1.7279,1.7279,1.7279,1.7279,1.72,1.7106,1.7026,1.6885,1.673,1.6447,1.64,1.6353,1.6305,1.6211,1.6211,1.6258,1.6116,1.5974,2.3106,2.3106,2.3106,2.274,2.2125,2.1481,2.1203,2.1203,2.1203,2.1174,2.1072,2.0823,2.0489,2.0168,1.9901,1.9632,1.9301,1.9272,1.9272,1.9272,1.9272,1.9272,1.9272,1.9272,1.9272,1.9242,1.895,1.8628,1.8291,1.7969,1.7647,1.7323,1.7279,1.7279,1.7279,1.7279,1.7279,1.725,1.6769,1.6492,1.6389,1.5511,1.5216,1.5578,1.5334,1.5583,1.6456,1.6651,1.7116,1.8056,1.8345,1.8713,1.9185,1.9338,1.9473,1.9551,1.9668,2.0059,2.086,2.1582,2.2031,2.2031,2.2252,2.227,2.1949,2.1373,2.0912,2.0825,2.0333,2.0028,1.9946,1.945,1.8819,1.8218,1.773,1.7445,1.7251,1.6862,1.6742,1.7123,1.6771,1.6492,1.6609,1.6536,1.6433,1.6433,1.6404,1.6389,1.6331,1.6316,1.6507,1.6638,1.6974,1.7194,1.7223,1.7296,1.7279,1.7279,1.7279,1.7279,1.7279,1.7279,1.7246,1.7106,1.7059,1.6965,1.6777,1.6683,1.6636,1.6574,1.6472,1.6388,1.629,1.6137,1.6027,2.3106,2.3106,2.3106,2.2754,2.2111,2.1481,2.1203,2.1203,2.1203,2.1042,2.0794,2.0735,2.0475,2.0223,1.9901,1.9579,1.9286,1.9272,1.9272,1.9272,1.9272,1.9272,1.9272,1.9272,1.9272,1.9242,1.895,1.8657,1.8335,1.7969,1.7647,1.7323,1.7279,1.7279,1.7279,1.7279,1.7279,1.7326,1.7035,1.6712,1.6345,1.5731,1.5315,1.5248,1.5334,1.565,1.6299,1.6816,1.736,1.8064,1.8489,1.8802,1.9062,1.9556,2.0039,2.0468,2.082,2.1269,2.1738,2.2207,2.2461,2.248,2.2808,2.2824,2.2448,2.2464,2.2052,2.1248,2.0393,1.9957,1.9671,1.9392,1.9069,1.8778,1.8471,1.8349,1.8195,1.7599,1.716,1.7205,1.6772,1.6331,1.6199,1.6257,1.6389,1.6272,1.6257,1.6184,1.6009,1.6126,1.6184,1.617,1.6506,1.6917,1.6991,1.7165,1.7296,1.7279,1.7279,1.7279,1.7279,1.7279,1.7293,1.7246,1.7232,1.7153,1.7012,1.6979,1.6857,1.6678,1.6415,1.6085,1.5788,1.5746,1.5805,2.3106,2.3091,2.2901,2.2462,2.1862,2.1408,2.1203,2.1203,2.1203,2.1028,2.072,2.053,2.0252,1.9945,1.9623,1.9389,1.9324,1.9272,1.9272,1.9272,1.9272,1.9272,1.9272,1.9272,1.9272,1.9272,1.914,1.8906,1.8555,1.8072,1.7647,1.7323,1.7279,1.7279,1.7279,1.7279,1.7279,1.7326,1.7208,1.6974,1.6623,1.6038,1.5639,1.5506,1.5458,1.5724,1.6202,1.6563,1.7101,1.7861,1.8391,1.9069,1.9907,2.0274,2.076,2.1328,2.1758,2.207,2.2246,2.2637,2.2945,2.3242,2.3418,2.3435,2.3415,2.3331,2.3028,2.24,2.1419,2.0588,2.0201,1.9833,1.9471,1.915,1.8966,1.8827,1.8488,1.8057,1.7658,1.7505,1.7039,1.6668,1.6462,1.6243,1.6038,1.5877,1.5818,1.5774,1.5615,1.5745,1.5745,1.5745,1.617,1.6653,1.6873,1.7121,1.7296,1.7279,1.7279,1.7279,1.7279,1.7279,1.7279,1.7279,1.7311,1.7264,1.7185,1.7025,1.6909,1.6699,1.6526,1.6253,1.6079,1.5931,1.5953,2.3047,2.2915,2.2535,2.2111,2.1672,2.135,2.1203,2.1203,2.1203,2.0984,2.0518,2.0285,2.0003,1.9691,1.9426,1.9272,1.9272,1.9272,1.9272,1.9272,1.9272,1.9272,1.9272,1.9272,1.9272,1.9272,1.9272,1.9104,1.8642,1.8101,1.7662,1.7323,1.7279,1.7279,1.7279,1.7279,1.7279,1.7279,1.7279,1.7179,1.6888,1.6404,1.6051,1.578,1.5643,1.5746,1.6148,1.641,1.6924,1.7743,1.8472,1.935,2.0326,2.0824,2.1337,2.199,2.2441,2.2633,2.2695,2.3023,2.3457,2.375,2.3887,2.3991,2.4052,2.402,2.3862,2.3466,2.2615,2.1808,2.107,2.053,2.005,1.9803,1.9583,1.9242,1.8966,1.8504,1.8118,1.7824,1.7352,1.6991,1.692,1.6507,1.6048,1.5932,1.5668,1.5524,1.5526,1.5484,1.5425,1.557,1.6038,1.6463,1.6756,1.7077,1.7267,1.7279,1.7279,1.7279,1.7279,1.7279,1.7279,1.7279,1.7282,1.7179,1.706,1.693,1.6712,1.6565,1.6404,1.6199,1.5994,1.5937,1.5849,2.293,2.2564,2.1993,2.1745,2.1672,2.135,2.1203,2.1203,2.1203,2.0867,2.027,2.0252,1.9886,1.9382,1.9316,1.9286,1.9272,1.9272,1.9272,1.9272,1.9272,1.9272,1.9272,1.9272,1.9272,1.9272,1.9272,1.8964,1.8364,1.7999,1.7647,1.7355,1.7293,1.7279,1.7279,1.7279,1.7279,1.7279,1.7279,1.7179,1.6947,1.6873,1.6536,1.5993,1.578,1.5794,1.6124,1.6494,1.7009,1.7674,1.8632,1.947,1.9989,2.0942,2.182,2.2418,2.2828,2.3062,2.312,2.3496,2.3789,2.3867,2.4199,2.4322,2.4272,2.4486,2.4488,2.3962,2.3858,2.3356,2.2411,2.1485,2.1009,2.1003,2.0377,1.9933,1.9791,1.8966,1.8411,1.8087,1.7669,1.7366,1.7205,1.6843,1.6662,1.6502,1.6102,1.5765,1.5832,1.5643,1.5643,1.5877,1.6155,1.6433,1.6507,1.6945,1.7282,1.7279,1.7279,1.7279,1.7279,1.7279,1.7279,1.7252,1.7077,1.6991,1.6888,1.6668,1.6316,1.614,1.6038,1.5862,1.5745,1.5513,1.5545,2.2491,2.2023,2.1789,2.1584,2.1379,2.1262,2.1203,2.1203,2.1203,2.0852,2.0256,2.0183,1.9886,1.9338,1.9558,1.9529,1.9286,1.9272,1.9272,1.9272,1.9272,1.9272,1.9272,1.9272,1.9272,1.9272,1.9272,1.9052,1.8628,1.8291,1.7955,1.7647,1.7428,1.7279,1.7279,1.7279,1.7279,1.7279,1.7279,1.7267,1.7135,1.7005,1.6785,1.6565,1.6095,1.5839,1.5839,1.6278,1.6784,1.7439,1.8362,1.9281,2.0225,2.1564,2.2495,2.2823,2.3003,2.3218,2.3516,2.3691,2.4043,2.457,2.4793,2.4914,2.5072,2.5266,2.5266,2.5073,2.4908,2.4571,2.4074,2.2869,2.1866,2.1525,2.0969,2.0319,1.972,1.9104,1.8596,1.8381,1.8164,1.7995,1.775,1.7592,1.7334,1.6875,1.6562,1.6357,1.6227,1.6082,1.6052,1.6213,1.6507,1.6727,1.6727,1.7033,1.7326,1.7279,1.7279,1.7279,1.7279,1.7279,1.7279,1.7091,1.6932,1.6727,1.6609,1.6272,1.5965,1.576,1.5615,1.56,1.5411,1.5513,1.5673,2.2169,2.1715,2.1584,2.1423,2.1218,2.1203,2.1203,2.1203,2.1203,2.0896,2.0457,2.0329,2.0091,1.9681,1.9813,1.9813,1.9579,1.9491,1.9426,1.9286,1.9272,1.9272,1.9272,1.9272,1.9272,1.9272,1.9272,1.9162,1.8803,1.8569,1.8233,1.7808,1.7589,1.7381,1.7308,1.7279,1.7279,1.7279,1.7279,1.7279,1.725,1.7121,1.7005,1.6859,1.6433,1.6052,1.5809,1.6331,1.676,1.7228,1.8228,1.9462,2.0773,2.1938,2.2782,2.3144,2.3315,2.3535,2.3945,2.4121,2.4453,2.5047,2.5215,2.5469,2.5879,2.5937,2.6016,2.5995,2.5954,2.5836,2.5553,2.447,2.3213,2.2391,2.1708,2.0984,2.0134,1.9576,1.9094,1.872,1.8689,1.8563,1.8344,1.8247,1.7897,1.731,1.704,1.6801,1.664,1.6477,1.6463,1.6565,1.6741,1.6917,1.696,1.7208,1.7326,1.7326,1.7279,1.7279,1.7279,1.7279,1.7208,1.6991,1.6727,1.6507,1.6213,1.5921,1.5701,1.5482,1.5455,1.5498,1.5542,1.576,1.5892,2.1993,2.1642,2.135,2.1233,2.1203,2.1203,2.1203,2.1203,2.1203,2.0998,2.0621,2.0691,2.0416,2.0183,2.0208,2.0168,2.0106,1.9916,1.9638,1.9345,1.9316,1.9301,1.9272,1.9272,1.9272,1.9272,1.9272,1.9111,1.8847,1.876,1.8452,1.7955,1.7823,1.7633,1.7308,1.7308,1.7279,1.7279,1.7279,1.7279,1.7279,1.725,1.7165,1.6961,1.6888,1.6595,1.5979,1.6664,1.7011,1.713,1.8474,2.0085,2.1373,2.201,2.2516,2.3307,2.3654,2.4004,2.4394,2.4805,2.5019,2.5321,2.5527,2.5977,2.6309,2.6387,2.6523,2.6746,2.6824,2.6883,2.6734,2.6002,2.4864,2.3657,2.2637,2.1742,2.0977,2.0372,1.9772,1.9138,1.915,1.9104,1.8886,1.88,1.8507,1.8086,1.7597,1.7248,1.7116,1.6937,1.6728,1.6905,1.7189,1.7446,1.7379,1.7326,1.7372,1.7387,1.7326,1.7279,1.7279,1.7279,1.7106,1.6873,1.6389,1.6111,1.5862,1.5613,1.5584,1.5396,1.5425,1.5555,1.5703,1.5935,1.6155,2.1862,2.1379,2.1262,2.1203,2.1203,2.1203,2.1203,2.1203,2.1203,2.1028,2.0764,2.0664,2.0489,2.03,2.0402,2.0402,2.0197,2.0325,2.0135,1.9696,1.9661,1.9491,1.933,1.9286,1.9272,1.9272,1.9272,1.9228,1.9096,1.8906,1.8657,1.8452,1.8028,1.7779,1.7647,1.7457,1.7279,1.7279,1.7279,1.7279,1.7279,1.7279,1.7267,1.7194,1.7179,1.6974,1.6624,1.6758,1.7008,1.7365,1.8354,1.9822,2.1536,2.2289,2.293,2.3683,2.4081,2.4414,2.4844,2.5293,2.5684,2.5977,2.6367,2.6641,2.6797,2.6816,2.6875,2.7031,2.7012,2.7012,2.6941,2.6589,2.5743,2.4368,2.3129,2.2145,2.1492,2.0823,2.0361,2.0149,2.0019,1.9928,1.9791,1.9567,1.916,1.8719,1.8392,1.8193,1.8041,1.7964,1.8055,1.8195,1.8226,1.8041,1.8056,1.8025,1.8025,1.79,1.7761,1.7606,1.7559,1.7483,1.7246,1.6876,1.6315,1.5946,1.5654,1.5521,1.5604,1.5609,1.5698,1.5845,1.5921,1.6242,1.6684,2.1876,2.1393,2.1262,2.1203,2.1203,2.1203,2.1203,2.1203,2.1203,2.1086,2.0925,2.0911,2.0737,2.0621,2.0823,2.0794,2.0577,2.0767,2.0618,2.015,1.9974,1.9813,1.9623,1.9544,1.9426,1.9286,1.9272,1.9272,1.9257,1.9118,1.8906,1.8716,1.8379,1.8043,1.7838,1.7618,1.7457,1.7308,1.7279,1.7279,1.7279,1.7279,1.7279,1.7279,1.7279,1.7223,1.7079,1.7159,1.7387,1.778,1.8691,2.0246,2.1928,2.2603,2.3279,2.403,2.4609,2.5117,2.5575,2.5996,2.6309,2.6621,2.6875,2.709,2.7207,2.7246,2.7305,2.7461,2.7519,2.75,2.7428,2.7066,2.6481,2.5749,2.4367,2.318,2.239,2.176,2.148,2.1391,2.1292,2.1003,2.0531,2.0314,1.9823,1.936,1.9174,1.9065,1.8925,1.8925,1.897,1.8937,1.8657,1.8596,1.8719,1.8735,1.8735,1.855,1.8272,1.8179,1.8087,1.8071,1.7919,1.749,1.7029,1.6691,1.6431,1.6163,1.6102,1.6088,1.6244,1.6612,1.6955,1.7201,1.7566,2.1993,2.1672,2.135,2.1203,2.1203,2.1203,2.1203,2.1203,2.1203,2.1203,2.1189,2.1159,2.1174,2.1174,2.1145,2.113,2.1189,2.1145,2.1013,2.0706,2.0472,2.0267,2.012,1.9886,1.9667,1.9447,1.9403,1.9389,1.9433,1.9403,1.9169,1.8935,1.8818,1.8511,1.8043,1.7867,1.7647,1.7395,1.7308,1.7279,1.7279,1.7279,1.7279,1.7293,1.7323,1.7337,1.7384,1.7906,1.8114,1.8071,1.9655,2.1105,2.2162,2.296,2.3711,2.4383,2.5237,2.583,2.6328,2.6719,2.7012,2.7051,2.7168,2.7246,2.7689,2.7695,2.7812,2.8105,2.8164,2.8203,2.8072,2.7752,2.7323,2.7122,2.5735,2.4585,2.3754,2.3217,2.2829,2.2633,2.2557,2.2261,2.1281,2.106,2.064,2.0235,2.0046,2.003,1.9837,1.9772,1.9457,1.942,1.9517,1.9608,1.9882,1.9866,1.9866,1.982,1.9409,1.9088,1.8642,1.8518,1.8394,1.7969,1.7795,1.7504,1.7196,1.6886,1.6813,1.6958,1.7263,1.7683,1.7894,1.8,1.822,2.1993,2.1672,2.135,2.1203,2.1203,2.1203,2.1203,2.1203,2.1203,2.1203,2.1203,2.1203,2.1203,2.1203,2.1203,2.1203,2.1203,2.1203,2.1189,2.1086,2.1013,2.0662,2.0311,2.0164,2.0062,1.9959,1.9916,1.9974,1.9989,1.993,1.9784,1.9558,1.9242,1.895,1.854,1.8072,1.7794,1.7662,1.7381,1.7293,1.7279,1.7279,1.7279,1.7308,1.756,1.7677,1.7768,1.8629,1.9428,1.9924,2.0894,2.206,2.3087,2.3765,2.4364,2.4957,2.5761,2.625,2.6484,2.709,2.7461,2.7539,2.7734,2.8008,2.8105,2.8125,2.8184,2.8301,2.8301,2.8301,2.8281,2.813,2.7882,2.746,2.625,2.5077,2.4473,2.3929,2.3605,2.342,2.3308,2.297,2.255,2.212,2.1789,2.1458,2.1393,2.1401,2.1105,2.1107,2.102,2.101,2.106,2.1015,2.106,2.1015,2.106,2.1132,2.0772,2.0184,1.9492,1.8712,1.8494,1.8179,1.8469,1.8314,1.7938,1.7615,1.7749,1.8104,1.8219,1.8534,1.8402,1.8462,1.8712,2.2067,2.1862,2.1408,2.1203,2.1203,2.1203,2.1203,2.1203,2.1203,2.1203,2.1203,2.1203,2.1203,2.1203,2.1203,2.1203,2.1203,2.1203,2.1203,2.1203,2.1189,2.0911,2.0545,2.0442,2.0369,2.0183,2.0197,2.0168,2.0168,2.0183,2.0135,1.9916,1.9638,1.9316,1.8964,1.8511,1.8072,1.7838,1.7604,1.7439,1.7293,1.7279,1.7381,1.7516,1.775,1.7993,1.8728,1.9496,2.0181,2.0899,2.1758,2.2756,2.37,2.4436,2.4938,2.5303,2.614,2.6641,2.6797,2.7441,2.7891,2.7969,2.8184,2.8262,2.8281,2.8301,2.8301,2.8301,2.8301,2.8301,2.8301,2.8301,2.8184,2.7838,2.6737,2.5831,2.5412,2.4944,2.4602,2.4422,2.425,2.3937,2.3521,2.3151,2.2894,2.2703,2.2655,2.2488,2.2236,2.2501,2.2465,2.2142,2.1839,2.1597,2.1508,2.1508,2.1553,2.1687,2.1687,2.1132,2.0612,1.9602,1.9659,1.9597,1.9397,1.9211,1.9037,1.9003,1.929,1.9514,1.9458,1.9512,1.9592,1.9389,1.9571,2.2184,2.2125,2.1481,2.1203,2.1203,2.1203,2.1203,2.1203,2.1203,2.1203,2.1203,2.1203,2.1203,2.1203,2.1203,2.1203,2.1203,2.1203,2.1203,2.1203,2.1189,2.1028,2.0808,2.0779,2.0647,2.0416,2.03,2.0343,2.0402,2.0358,2.0285,2.0252,2.0003,1.9735,1.933,1.8979,1.8511,1.8086,1.7911,1.7765,1.7541,1.7512,1.7662,1.7838,1.7984,1.8686,1.961,2.0298,2.0748,2.1428,2.2414,2.3376,2.4177,2.4971,2.5265,2.5497,2.6237,2.6855,2.709,2.7676,2.8203,2.8223,2.8262,2.8301,2.8301,2.8301,2.8301,2.8301,2.8301,2.8301,2.8301,2.8301,2.8223,2.8008,2.735,2.6875,2.6426,2.5996,2.5577,2.5382,2.5314,2.4927,2.4428,2.4133,2.4037,2.3699,2.371,2.3621,2.3306,2.3271,2.2962,2.243,2.2199,2.1954,2.1909,2.1909,2.1954,2.2043,2.2132,2.1891,2.182,2.1328,2.1427,2.13,2.0607,2.0483,2.0702,2.0786,2.0832,2.0775,2.0545,2.0971,2.1381,2.0935,2.088,2.2184,2.2125,2.1481,2.1203,2.1203,2.1203,2.1203,2.1218,2.1218,2.1203,2.1203,2.1203,2.1203,2.1203,2.1203,2.1203,2.1203,2.1203,2.1203,2.1203,2.1203,2.1189,2.1115,2.113,2.1072,2.0955,2.0984,2.0984,2.0969,2.0896,2.0852,2.0618,2.0472,2.0223,1.9749,1.9426,1.8994,1.8599,1.8335,1.8174,1.8072,1.8028,1.8086,1.8218,1.8423,1.9214,2.0143,2.066,2.1458,2.2598,2.3394,2.4073,2.4854,2.5333,2.5577,2.5693,2.6161,2.668,2.7031,2.7519,2.8022,2.8262,2.8301,2.8301,2.8301,2.8301,2.8301,2.8301,2.8301,2.8301,2.8301,2.8301,2.8144,2.7832,2.7363,2.6855,2.6426,2.6016,2.5664,2.5645,2.5596,2.5441,2.5052,2.4946,2.4868,2.4692,2.4646,2.4678,2.4402,2.4068,2.3526,2.2948,2.2644,2.2441,2.2441,2.2441,2.2441,2.2441,2.2485,2.253,2.2441,2.2264,2.2087,2.1865,2.1543,2.1629,2.1782,2.1688,2.1533,2.1599,2.1655,2.1799,2.1898,2.1865,2.1909,2.2389,2.2315,2.1701,2.1525,2.1598,2.135,2.1306,2.1379,2.1262,2.1203,2.1203,2.1203,2.1203,2.1203,2.1203,2.1203,2.1203,2.1218,2.1291,2.1408,2.1452,2.1525,2.1657,2.1613,2.1554,2.1291,2.1203,2.1203,2.1203,2.1203,2.1101,2.094,2.0808,2.0559,2.0223,1.9872,1.9477,1.9081,1.8847,1.8642,1.835,1.8306,1.8408,1.8555,1.8884,1.9523,2.038,2.0771,2.1776,2.297,2.3669,2.4332,2.5137,2.5547,2.5693,2.5752,2.6152,2.6562,2.6992,2.7422,2.7851,2.8262,2.8301,2.8301,2.8301,2.8301,2.8301,2.8301,2.8301,2.8301,2.8301,2.8301,2.8086,2.7715,2.7266,2.6836,2.6426,2.5996,2.5674,2.5674,2.5674,2.5645,2.5528,2.5479,2.543,2.5207,2.5207,2.517,2.4793,2.4435,2.4074,2.359,2.3246,2.3033,2.3013,2.2969,2.2925,2.2925,2.2882,2.2882,2.2882,2.2662,2.2441,2.229,2.2201,2.2378,2.2478,2.2334,2.2309,2.2385,2.241,2.2378,2.2353,2.2441,2.253,2.2623,2.2579,2.2008,2.1935,2.2067,2.1613,2.154,2.1701,2.1423,2.132,2.1262,2.1247,2.1203,2.1203,2.1203,2.1203,2.1218,2.132,2.1452,2.1628,2.1745,2.1876,2.2037,2.2037,2.1876,2.1379,2.1423,2.1408,2.1335,2.1276,2.1276,2.1174,2.0955,2.075,2.0647,2.0387,2.0018,1.9535,1.9433,1.9184,1.8745,1.8642,1.876,1.8862,1.9118,1.9642,2.0359,2.0822,2.1573,2.307,2.347,2.4134,2.4941,2.5499,2.5693,2.5713,2.6152,2.6582,2.6992,2.7422,2.7832,2.8242,2.8301,2.8301,2.8301,2.8301,2.8301,2.8301,2.8301,2.8301,2.8301,2.8184,2.7949,2.7578,2.7168,2.6758,2.6348,2.5957,2.5732,2.5674,2.5674,2.5674,2.5674,2.5625,2.5674,2.5674,2.5674,2.5625,2.5195,2.4727,2.4316,2.3926,2.3471,2.3159,2.3101,2.312,2.312,2.312,2.3101,2.312,2.3101,2.2969,2.2794,2.2925,2.2925,2.2969,2.2906,2.2838,2.2882,2.3101,2.3013,2.2794,2.2882,2.3057,2.3013,2.2623,2.2593,2.2242,2.214,2.2169,2.2052,2.2037,2.2037,2.1745,2.1613,2.1569,2.1335,2.1203,2.1203,2.1203,2.1218,2.1291,2.1481,2.1672,2.1818,2.1979,2.2184,2.2257,2.2301,2.2154,2.2067,2.2008,2.1891,2.1672,2.1613,2.1452,2.1262,2.1145,2.0998,2.0794,2.0591,2.0402,2.0077,2.0018,1.9798,1.952,1.9418,1.9345,1.9272,1.9345,1.9777,2.0318,2.0596,2.1318,2.2787,2.297,2.3655,2.4523,2.5115,2.5459,2.5781,2.6161,2.661,2.707,2.7441,2.7851,2.8164,2.8301,2.8301,2.8301,2.8301,2.8301,2.8301,2.8301,2.8301,2.8281,2.8047,2.7598,2.7187,2.6797,2.6367,2.5996,2.5752,2.5674,2.5674,2.5674,2.5674,2.5674,2.5674,2.5674,2.5674,2.5674,2.5674,2.5527,2.4961,2.4414,2.4023,2.3588,2.3315,2.3101,2.314,2.3159,2.314,2.314,2.314,2.314,2.3101,2.3101,2.3101,2.3101,2.3057,2.3057,2.3101,2.3101,2.3101,2.3101,2.3101,2.3101,2.3101,2.3101,2.2871,2.2842,2.2535,2.2506,2.2579,2.2301,2.2271,2.233,2.192,2.1701,2.1598,2.1364,2.1203,2.1203,2.1203,2.1291,2.1511,2.1803,2.2023,2.2184,2.2345,2.252,2.2623,2.2652,2.2667,2.2667,2.2637,2.2389,2.1964,2.1759,2.1628,2.1467,2.1306,2.1115,2.1013,2.0969,2.0737,2.0559,2.0472,2.0325,2.0033,2.0003,1.9886,1.9813,1.9755,2.0036,2.0408,2.0726,2.1344,2.2339,2.2703,2.3427,2.423,2.4873,2.5321,2.5794,2.6284,2.6793,2.7266,2.765,2.7904,2.8223,2.8301,2.8301,2.8301,2.8301,2.8301,2.8301,2.8301,2.8301,2.8281,2.791,2.75,2.7051,2.6641,2.6211,2.583,2.5713,2.5674,2.5674,2.5674,2.5674,2.5674,2.5674,2.5674,2.5674,2.5674,2.5674,2.5674,2.5156,2.4512,2.418,2.3764,2.3491,2.3335,2.3413,2.3374,2.3315,2.3315,2.3359,2.3198,2.3198,2.314,2.3101,2.3101,2.3101,2.3101,2.3101,2.3101,2.3101,2.3101,2.3101,2.3101,2.3101,2.314,2.3106,2.3091,2.2828,2.2871,2.3003,2.2593,2.2506,2.2564,2.2067,2.1818,2.1745,2.1393,2.1203,2.1233,2.132,2.1481,2.1803,2.2125,2.2374,2.2535,2.2681,2.2871,2.3032,2.3106,2.3047,2.2988,2.3018,2.2813,2.233,2.2067,2.1891,2.1759,2.1511,2.1408,2.1423,2.1364,2.1145,2.0998,2.0823,2.0591,2.0413,2.0212,2.0183,2.0183,2.0183,2.0303,2.0584,2.0786,2.1325,2.2023,2.2482,2.3031,2.4088,2.4632,2.5222,2.5996,2.6461,2.7046,2.7487,2.7845,2.7988,2.8262,2.8301,2.8301,2.8301,2.8301,2.8301,2.8301,2.8301,2.8301,2.8242,2.791,2.7559,2.7187,2.6719,2.6269,2.6016,2.5791,2.5693,2.5674,2.5693,2.5693,2.5713,2.5674,2.5674,2.5674,2.5674,2.5674,2.5615,2.5156,2.4629,2.4336,2.3958,2.3666,2.3608,2.3848,2.3809,2.375,2.3769,2.3789,2.3555,2.3296,2.3257,2.3218,2.3101,2.3101,2.3101,2.3101,2.3101,2.3101,2.3101,2.3101,2.3101,2.3237,2.3418,2.3106,2.3106,2.3062,2.3076,2.3091,2.3003,2.3003,2.2945,2.2374,2.2125,2.2052,2.1511,2.1233,2.1306,2.154,2.1818,2.214,2.2432,2.2608,2.271,2.2901,2.3018,2.3106,2.3106,2.3106,2.3106,2.3106,2.2915,2.2608,2.2491,2.2345,2.214,2.2037,2.2037,2.1906,2.173,2.1628,2.1525,2.1276,2.0984,2.0691,2.0373,2.027,2.0241,2.0311,2.038,2.0629,2.0793,2.1146,2.1875,2.2005,2.2564,2.3574,2.4329,2.5272,2.6157,2.6807,2.7336,2.7682,2.7969,2.8144,2.8281,2.8301,2.8301,2.8301,2.8301,2.8301,2.8301,2.8301,2.8301,2.8223,2.791,2.7676,2.7344,2.6894,2.6543,2.6289,2.6016,2.5898,2.581,2.5918,2.584,2.5771,2.5713,2.5674,2.5674,2.5674,2.5693,2.5605,2.5137,2.4707,2.4394,2.4277,2.3958,2.3958,2.418,2.418,2.4121,2.4199,2.4199,2.3926,2.3672,2.3516,2.3457,2.3296,2.3276,2.3354,2.3335,2.3179,2.3101,2.3101,2.3101,2.3101,2.334,2.3633,2.3106,2.3106,2.3106,2.3106,2.3106,2.3106,2.3106,2.3018,2.2637,2.2345,2.2125,2.1715,2.1481,2.1569,2.1832,2.214,2.2447,2.274,2.2886,2.2886,2.3032,2.3106,2.3106,2.3106,2.3106,2.3106,2.3106,2.3076,2.2871,2.2696,2.2535,2.2447,2.2271,2.2154,2.2242,2.2052,2.1862,2.1657,2.1379,2.1145,2.0998,2.0867,2.0779,2.0737,2.0723,2.0835,2.0891,2.0947,2.1283,2.1896,2.2174,2.2837,2.3859,2.4689,2.5485,2.6621,2.7103,2.753,2.8013,2.8223,2.8262,2.8301,2.8301,2.8301,2.8301,2.8301,2.8301,2.8301,2.8301,2.8301,2.8223,2.791,2.7806,2.7532,2.718,2.6934,2.666,2.6328,2.6133,2.6113,2.6094,2.6094,2.6055,2.5908,2.5888,2.5849,2.5791,2.5732,2.5625,2.5273,2.4844,2.4453,2.4394,2.4336,2.4414,2.4531,2.4512,2.4512,2.4668,2.4609,2.4316,2.4082,2.3945,2.3926,2.3965,2.3906,2.3744,2.351,2.3276,2.3179,2.3101,2.3257,2.3413,2.3574,2.3848,2.3106,2.3106,2.3106,2.3106,2.3106,2.3106,2.3106,2.3062,2.2754,2.2491,2.2257,2.1979,2.1847,2.1964,2.2198,2.2462,2.2754,2.3003,2.3091,2.3106,2.3106,2.3106,2.3106,2.3106,2.3106,2.3106,2.3106,2.3091,2.3018,2.2901,2.2769,2.274,2.2593,2.2476,2.2418,2.2315,2.2154,2.1862,2.1642,2.1511,2.1467,2.1467,2.1452,2.1452,2.1452,2.1452,2.1452,2.1568,2.19,2.2475,2.2991,2.3788,2.4822,2.5608,2.6405,2.7362,2.7855,2.8183,2.8412,2.8516,2.834,2.8301,2.8301,2.8301,2.8301,2.8301,2.8301,2.8301,2.8301,2.8301,2.8242,2.7988,2.7982,2.7806,2.7513,2.7305,2.7109,2.6758,2.6543,2.6543,2.6543,2.6543,2.6465,2.625,2.6103,2.6094,2.5947,2.583,2.5684,2.5469,2.5254,2.4875,2.4855,2.4902,2.4941,2.498,2.4922,2.4902,2.5059,2.5019,2.4707,2.4551,2.4434,2.4473,2.4512,2.4336,2.4102,2.3705,2.3413,2.3569,2.3686,2.375,2.3848,2.3965,2.4238,2.3106,2.3106,2.3106,2.3106,2.3106,2.3106,2.3106,2.3091,2.2784,2.2623,2.2506,2.2286,2.2257,2.2462,2.252,2.2725,2.3062,2.3106,2.3106,2.3106,2.3106,2.3106,2.3106,2.3106,2.3106,2.3106,2.3106,2.3106,2.3106,2.3062,2.3032,2.3047,2.2915,2.2988,2.2886,2.2623,2.2418,2.2169,2.2023,2.2008,2.2008,2.2023,2.2023,2.2052,2.2081,2.2111,2.2111,2.2305,2.2674,2.3247,2.3891,2.4821,2.5806,2.6622,2.7397,2.8145,2.8536,2.887,2.9124,2.8789,2.8418,2.832,2.8379,2.8476,2.8535,2.8359,2.8301,2.834,2.8359,2.8301,2.8281,2.8262,2.8144,2.8027,2.7812,2.7695,2.75,2.7187,2.7012,2.6973,2.6973,2.6992,2.707,2.6914,2.6641,2.6582,2.6426,2.6309,2.6005,2.584,2.5762,2.5557,2.5518,2.5518,2.5538,2.5479,2.5352,2.5332,2.543,2.5332,2.5098,2.5,2.4941,2.4805,2.4766,2.459,2.4492,2.4348,2.429,2.4336,2.4316,2.4199,2.4375,2.459,2.4941,2.3106,2.3106,2.3106,2.3106,2.3106,2.3106,2.3106,2.3091,2.2974,2.2798,2.2608,2.233,2.2345,2.2564,2.2637,2.2798,2.3076,2.3106,2.3106,2.3106,2.3106,2.3106,2.3106,2.3106,2.3106,2.3106,2.3106,2.3106,2.3106,2.3106,2.3106,2.3106,2.3106,2.3106,2.2988,2.2828,2.2593,2.2462,2.2301,2.2198,2.2184,2.2184,2.2184,2.2184,2.2184,2.2184,2.2229,2.2513,2.3033,2.3716,2.4499,2.5628,2.6707,2.7438,2.818,2.8861,2.9162,2.9368,2.9553,2.9277,2.9101,2.9082,2.9082,2.9043,2.8965,2.8848,2.8711,2.8613,2.8457,2.8359,2.832,2.8301,2.8262,2.8242,2.8203,2.8125,2.793,2.7656,2.7461,2.7422,2.7422,2.7422,2.7539,2.7656,2.7344,2.707,2.6894,2.6699,2.6445,2.625,2.6172,2.6044,2.5986,2.5888,2.5869,2.5791,2.5713,2.5752,2.5771,2.5684,2.5547,2.5488,2.5362,2.5206,2.5137,2.5137,2.5109,2.5167,2.5031,2.4766,2.4609,2.4512,2.4785,2.5156,2.541,2.3106,2.3106,2.3106,2.3106,2.3106,2.3106,2.3106,2.3106,2.3106,2.2988,2.2754,2.255,2.2564,2.2725,2.2784,2.2871,2.3062,2.3106,2.3106,2.3106,2.3106,2.3106,2.3106,2.3106,2.3106,2.3106,2.3106,2.3106,2.3106,2.3106,2.3106,2.3106,2.3106,2.3106,2.3062,2.2901,2.2769,2.271,2.2593,2.2462,2.2476,2.2491,2.2491,2.2506,2.252,2.2642,2.2839,2.3202,2.3836,2.4599,2.5492,2.652,2.7437,2.8247,2.8879,2.9336,2.9621,2.9734,2.9865,2.9724,2.9646,2.9473,2.9492,2.9512,2.9492,2.9297,2.9121,2.9082,2.8769,2.8516,2.8555,2.8652,2.8711,2.8769,2.8848,2.8769,2.8496,2.8242,2.8027,2.7891,2.7871,2.7851,2.7891,2.7969,2.7734,2.7461,2.7305,2.709,2.6816,2.666,2.6602,2.6504,2.6356,2.6239,2.6152,2.625,2.6328,2.6367,2.6348,2.6152,2.6035,2.5908,2.5732,2.5499,2.5479,2.5635,2.5596,2.546,2.5226,2.4933,2.4941,2.498,2.5137,2.5469,2.5547,2.3106,2.3106,2.3106,2.3106,2.3106,2.3106,2.3106,2.3106,2.3106,2.3091,2.3047,2.3003,2.3003,2.3062,2.3018,2.3062,2.3076,2.3106,2.3106,2.3106,2.3106,2.3106,2.3106,2.3106,2.3106,2.3106,2.3106,2.3106,2.3106,2.3106,2.3106,2.3106,2.3106,2.3106,2.3106,2.3106,2.3091,2.3076,2.3032,2.3003,2.2974,2.2945,2.2945,2.293,2.293,2.3024,2.3333,2.3886,2.4544,2.5533,2.6756,2.7831,2.8836,2.9578,3.0199,3.0587,3.0684,3.0781,3.0781,3.0096,2.9841,2.9785,2.9883,2.9824,2.9668,2.957,2.9551,2.9512,2.918,2.9121,2.918,2.9199,2.9199,2.9238,2.9277,2.9238,2.8965,2.8828,2.8633,2.8359,2.8301,2.8281,2.8262,2.8223,2.8008,2.7832,2.7767,2.75,2.7246,2.709,2.7012,2.6914,2.6797,2.666,2.6602,2.6797,2.6894,2.6934,2.6816,2.6582,2.6406,2.6289,2.6094,2.581,2.5674,2.5674,2.5674,2.5654,2.544,2.5265,2.544,2.5518,2.5635,2.5654,2.5674,2.3106,2.3106,2.3355,2.3417,2.3417,2.3168,2.3106,2.3106,2.3106,2.3106,2.3106,2.3106,2.3106,2.3106,2.3106,2.3106,2.3106,2.3106,2.3106,2.3106,2.3106,2.3106,2.3106,2.3106,2.3106,2.3106,2.3106,2.3106,2.3106,2.3106,2.3106,2.3106,2.3106,2.3106,2.3106,2.3106,2.3106,2.3106,2.3091,2.3091,2.3106,2.3106,2.3106,2.3106,2.3106,2.3307,2.3696,2.4347,2.5197,2.6239,2.747,2.8517,2.9372,3.0079,3.0567,3.082,3.0898,3.0898,3.0879,3.0547,3.0469,3.041,3.0371,3.0351,3.043,3.0137,3.0039,2.9902,2.959,2.9531,2.9509,2.9453,2.9453,2.9453,2.9548,2.9528,2.9336,2.9336,2.9199,2.8887,2.8711,2.8516,2.8418,2.832,2.8144,2.8144,2.8047,2.8027,2.7851,2.7598,2.7493,2.7305,2.7187,2.7051,2.7031,2.7226,2.7246,2.7207,2.709,2.6894,2.6738,2.666,2.6445,2.623,2.5957,2.5693,2.583,2.5908,2.5732,2.5654,2.583,2.5791,2.5674,2.5674,2.5674,2.3003,2.3168,2.3479,2.3666,2.3728,2.3542,2.3417,2.3293,2.3293,2.323,2.3106,2.3106,2.3106,2.3106,2.3106,2.3106,2.3106,2.3106,2.3106,2.3106,2.3106,2.3106,2.3106,2.3106,2.3106,2.3106,2.3106,2.3106,2.3106,2.3106,2.3106,2.3106,2.3106,2.3106,2.3106,2.3106,2.3106,2.3106,2.3106,2.3106,2.3106,2.3106,2.3106,2.3106,2.3183,2.3352,2.4003,2.4657,2.5509,2.6616,2.7756,2.8786,2.9565,3.0157,3.0645,3.082,3.0898,3.0898,3.0879,3.0859,3.0781,3.0801,3.0898,3.0898,3.0879,3.0586,3.0488,3.0312,3.0,2.998,2.9961,2.9941,2.9844,2.9844,2.998,2.998,2.9805,2.9785,2.9648,2.9316,2.9082,2.8848,2.8594,2.8398,2.8242,2.832,2.8398,2.8398,2.8359,2.8105,2.7904,2.7715,2.7676,2.7617,2.7559,2.7617,2.7617,2.748,2.7402,2.7324,2.7207,2.72,2.6875,2.6641,2.6465,2.6278,2.622,2.6181,2.623,2.623,2.6278,2.6103,2.5771,2.5752,2.581,2.2798,2.3139,2.3479,2.3837,2.4162,2.4286,2.41,2.3666,2.3666,2.3494,2.323,2.3293,2.3355,2.323,2.3168,2.3168,2.3106,2.3106,2.3106,2.3106,2.3106,2.3106,2.3106,2.3106,2.3106,2.3106,2.3106,2.3106,2.3106,2.3106,2.3106,2.3106,2.3106,2.3106,2.3106,2.3106,2.3106,2.3106,2.3106,2.3106,2.3106,2.3106,2.3106,2.3106,2.3183,2.3598,2.4297,2.5109,2.6218,2.7412,2.8717,2.9444,3.0052,3.0547,3.0762,3.0898,3.0898,3.0898,3.0898,3.0898,3.0898,3.0898,3.0898,3.0898,3.0879,3.0801,3.0762,3.0664,3.0449,3.0586,3.0664,3.0508,3.0371,3.0508,3.0684,3.0566,3.0293,3.0156,2.998,2.9746,2.9551,2.9297,2.9004,2.875,2.8633,2.873,2.8789,2.8672,2.8613,2.8476,2.8262,2.8125,2.8125,2.8184,2.8144,2.7988,2.7969,2.7851,2.7949,2.791,2.7773,2.7611,2.7305,2.709,2.7012,2.6894,2.668,2.6719,2.6836,2.6836,2.6699,2.6562,2.62,2.6064,2.6103,2.2598,2.3122,2.3749,2.4438,2.5194,2.5884,2.5639,2.4734,2.4672,2.461,2.4548,2.4301,2.41,2.4177,2.3666,2.3542,2.3355,2.323,2.3106,2.3106,2.3106,2.3106,2.3106,2.3106,2.3106,2.3106,2.3106,2.3106,2.3106,2.3106,2.3106,2.3106,2.3106,2.3106,2.3106,2.3106,2.3106,2.3106,2.3106,2.3106,2.3106,2.3106,2.3106,2.3106,2.3106,2.3598,2.4329,2.525,2.6379,2.7559,2.8832,2.9767,3.0831,3.0895,3.0898,3.0898,3.0898,3.0898,3.0898,3.0898,3.0898,3.0898,3.0898,3.0898,3.0898,3.0898,3.0898,3.0801,3.0742,3.0801,3.084,3.0742,3.0664,3.0762,3.0898,3.0781,3.0566,3.0527,3.0351,3.0117,2.9922,2.9648,2.9355,2.9238,2.9141,2.9219,2.918,2.9004,2.8848,2.8691,2.8496,2.834,2.8301,2.8301,2.8301,2.8184,2.8223,2.8262,2.8281,2.8262,2.8086,2.7871,2.7656,2.7519,2.7402,2.7187,2.6973,2.709,2.7285,2.709,2.6934,2.6836,2.6719,2.6532,2.6543,2.2348,2.2976,2.3654,2.4743,2.6198,2.7151,2.7159,2.6571,2.5839,2.541,2.5103,2.4857,2.4795,2.4672,2.4224,2.3976,2.3991,2.3542,2.3355,2.3293,2.3168,2.3106,2.3106,2.3106,2.3106,2.3106,2.3106,2.3106,2.3106,2.3106,2.3106,2.3106,2.3106,2.3106,2.3106,2.3106,2.3106,2.3106,2.3106,2.3106,2.3106,2.3106,2.3106,2.3106,2.3106,2.3539,2.4314,2.5298,2.6526,2.7815,2.9136,3.0267,3.1191,3.1281,3.1269,3.125,3.1172,3.1055,3.0957,3.0898,3.0898,3.0898,3.0898,3.0898,3.0898,3.0898,3.0898,3.0859,3.0879,3.0898,3.0898,3.0898,3.0879,3.0898,3.0898,3.0898,3.0879,3.0879,3.0703,3.0469,3.0215,2.9961,2.9766,2.9687,2.957,2.9473,2.9355,2.9199,2.9023,2.8848,2.8594,2.8359,2.832,2.8301,2.8301,2.8301,2.8301,2.8301,2.8301,2.8262,2.8223,2.8164,2.7969,2.7851,2.7734,2.7578,2.748,2.7559,2.7656,2.7461,2.7422,2.748,2.7344,2.7051,2.707,2.2142,2.2796,2.3508,2.5225,2.7057,2.8086,2.8683,2.8797,2.7159,2.6083,2.5656,2.541,2.5533,2.5578,2.5087,2.478,2.4533,2.41,2.3728,2.3666,2.337,2.323,2.3106,2.3106,2.3106,2.3106,2.3106,2.3106,2.3106,2.3106,2.3106,2.3106,2.3106,2.3106,2.3106,2.3106,2.3106,2.3106,2.3106,2.3106,2.3106,2.3106,2.3106,2.3106,2.326,2.3598,2.459,2.5707,2.6869,2.83,2.9619,3.0717,3.137,3.1883,3.1873,3.1719,3.1582,3.1445,3.123,3.1113,3.1035,3.0976,3.0898,3.0898,3.0898,3.0898,3.0898,3.0898,3.0898,3.0898,3.0898,3.0898,3.0898,3.0898,3.0898,3.0898,3.0898,3.0898,3.082,3.0644,3.0527,3.0293,3.0254,3.0156,3.0098,2.9863,2.9766,2.9629,2.9355,2.918,2.8789,2.8457,2.834,2.8301,2.8301,2.8301,2.8301,2.8301,2.8301,2.8301,2.8262,2.8281,2.8301,2.8144,2.7988,2.8125,2.8105,2.8066,2.8008,2.8027,2.8027,2.8184,2.7988,2.7578,2.7539,2.2494,2.3457,2.5268,2.6714,2.771,2.8713,2.917,2.9253,2.8879,2.8343,2.8002,2.7539,2.7237,2.7039,2.6128,2.5762,2.5517,2.4841,2.4286,2.3976,2.3728,2.3494,2.3168,2.3293,2.3168,2.3106,2.3106,2.3106,2.3106,2.3106,2.3106,2.3106,2.3106,2.3106,2.3106,2.3106,2.3106,2.3106,2.3106,2.3106,2.3168,2.3106,2.3106,2.3168,2.3384,2.382,2.4813,2.5877,2.7131,2.8474,2.9865,3.1025,3.1924,3.24,3.2402,3.2109,3.2012,3.1894,3.1738,3.1504,3.1387,3.125,3.1152,3.0976,3.0898,3.0898,3.0898,3.0918,3.0898,3.0898,3.0898,3.0898,3.0898,3.0898,3.0898,3.0898,3.0898,3.0898,3.0898,3.084,3.0762,3.0703,3.0664,3.0625,3.0605,3.0586,3.0605,3.0449,3.0039,2.9726,2.9121,2.875,2.8398,2.832,2.8301,2.8301,2.8301,2.8301,2.8301,2.8301,2.8301,2.8354,2.8408,2.8301,2.8262,2.8301,2.8301,2.8262,2.8262,2.8301,2.8301,2.8301,2.8301,2.7969,2.8027,2.2906,2.3666,2.5383,2.6554,2.743,2.852,2.9317,2.9716,2.9944,2.9981,2.9705,2.8916,2.8439,2.8319,2.734,2.6796,2.6554,2.57,2.521,2.4795,2.4409,2.4115,2.3929,2.3728,2.3542,2.3417,2.3168,2.3106,2.3168,2.3106,2.3106,2.3106,2.3106,2.3168,2.3106,2.3106,2.3106,2.3106,2.3168,2.323,2.3293,2.323,2.323,2.3355,2.3666,2.4162,2.5029,2.6088,2.7367,2.8844,3.0414,3.156,3.2393,3.2871,3.2812,3.2578,3.2422,3.2363,3.2187,3.1992,3.1816,3.1699,3.1641,3.1543,3.1622,3.1543,3.123,3.1191,3.0937,3.0898,3.0898,3.0898,3.0898,3.0898,3.0898,3.0898,3.0898,3.0898,3.0898,3.0879,3.082,3.082,3.0781,3.0781,3.0742,3.0684,3.0801,3.0644,3.0332,3.0195,2.959,2.9141,2.8828,2.8437,2.8301,2.8301,2.8301,2.8301,2.8393,2.8427,2.85,2.8461,2.8461,2.852,2.8466,2.8301,2.8301,2.8525,2.834,2.8301,2.8301,2.8301,2.8301,2.8374,2.8315,2.336,2.3809,2.4799,2.579,2.6774,2.8069,2.922,3.0042,3.0664,3.0898,3.0704,2.9705,2.9272,2.8975,2.8498,2.8062,2.7521,2.6796,2.6266,2.5656,2.5349,2.4857,2.4672,2.4548,2.4239,2.379,2.3542,2.3417,2.3355,2.3355,2.3355,2.323,2.323,2.323,2.323,2.323,2.3355,2.3417,2.3479,2.3542,2.3479,2.3355,2.3479,2.3743,2.4115,2.461,2.5445,2.6499,2.7685,2.9079,3.0733,3.1869,3.2611,3.2988,3.3047,3.2891,3.2871,3.2715,3.25,3.2344,3.2266,3.2226,3.2226,3.2229,3.2209,3.1973,3.166,3.1465,3.1211,3.1094,3.1113,3.1094,3.1094,3.1094,3.1094,3.1094,3.1094,3.1074,3.1074,3.1055,3.1016,3.1016,3.0918,3.0918,3.0859,3.0801,3.0664,3.0449,3.0293,3.0293,3.0019,2.9687,2.9414,2.9004,2.8535,2.8359,2.8432,2.8657,2.877,2.8725,2.8813,2.9084,2.9158,2.8926,2.8852,2.8883,2.8903,2.9055,2.881,2.8677,2.8745,2.8858,2.8779,2.8779,2.8534,2.4312,2.4595,2.5216,2.6009,2.7027,2.8062,2.9,2.9785,3.0547,3.0898,3.084,3.0762,3.0411,3.0098,2.9431,2.8957,2.8558,2.79,2.7116,2.6449,2.6327,2.5717,2.5226,2.5226,2.4795,2.4425,2.41,2.3929,2.3914,2.3929,2.3929,2.3929,2.3914,2.4038,2.4239,2.4162,2.3976,2.4053,2.4053,2.41,2.4162,2.41,2.3991,2.4301,2.4734,2.5472,2.63,2.7289,2.8289,2.9453,3.0727,3.1866,3.2439,3.2812,3.2949,3.3105,3.3105,3.3125,3.291,3.2773,3.2695,3.2656,3.2559,3.2344,3.2324,3.2305,3.2109,3.2109,3.1934,3.1875,3.1855,3.1797,3.1797,3.1797,3.1797,3.1797,3.1777,3.1738,3.1699,3.1562,3.1406,3.123,3.0976,3.0957,3.0937,3.0879,3.084,3.0664,3.0625,3.0547,3.0468,3.0195,2.9941,2.9473,2.8965,2.8648,2.8662,2.8962,2.9243,2.9405,2.9633,2.9968,2.9948,2.9667,2.9808,2.9973,2.9899,2.961,2.9764,2.9704,2.9613,2.9587,2.9379,2.9206,2.8979]}]]